Wetterdaten: Freitag, 12.05.2017
Datum Zeit Temp. A. Pool Temp. Feuchte A. Luftdruck Regen Wind Richtung Richtung Sonnenschein ET UV Solar Taupunkt Windchill Windben Empfang
12.05.2017 00:00 13,7 C 16,7 C 77 % 998,6 hPa 0,0 l/m 3,3 km/h (1 Bft) O-NO 57 0 min 0,000 mm 0,0 UV-I 0 W/m 9,7 C 13,7 C 4,8 km/h (1 Bft) 96,00 %
12.05.2017 00:02 13,8 C 16,7 C 77 % 998,7 hPa 0,0 l/m 3,4 km/h (1 Bft) O-NO 57 0 min 0,000 mm 0,0 UV-I 0 W/m 9,8 C 13,8 C 4,8 km/h (1 Bft) 93,62 %
12.05.2017 00:04 13,8 C 16,7 C 77 % 998,7 hPa 0,0 l/m 2,2 km/h (1 Bft) O-NO 57 0 min 0,000 mm 0,0 UV-I 0 W/m 9,8 C 13,8 C 3,2 km/h (1 Bft) 97,87 %
12.05.2017 00:06 13,8 C 16,7 C 77 % 998,7 hPa 0,0 l/m 1,0 km/h (0 Bft) O-NO 57 0 min 0,000 mm 0,0 UV-I 0 W/m 9,8 C 13,8 C 3,2 km/h (1 Bft) 94,74 %
12.05.2017 00:08 13,5 C 16,7 C 78 % 998,7 hPa 0,0 l/m 0,2 km/h (0 Bft) O-NO 57 0 min 0,000 mm 0,0 UV-I 0 W/m 9,7 C 13,5 C 1,6 km/h (1 Bft) 98,00 %
12.05.2017 00:10 13,2 C 16,7 C 79 % 998,7 hPa 0,0 l/m 0,0 km/h (0 Bft) O-NO 57 0 min 0,000 mm 0,0 UV-I 0 W/m 9,6 C 13,2 C 0,0 km/h (0 Bft) 97,87 %
12.05.2017 00:12 12,9 C 16,7 C 81 % 998,7 hPa 0,0 l/m 0,4 km/h (0 Bft) O-NO 57 0 min 0,000 mm 0,0 UV-I 0 W/m 9,7 C 12,9 C 3,2 km/h (1 Bft) 100,00 %
12.05.2017 00:14 12,8 C 16,7 C 81 % 998,7 hPa 0,0 l/m 2,0 km/h (1 Bft) O-NO 57 0 min 0,000 mm 0,0 UV-I 0 W/m 9,6 C 12,8 C 3,2 km/h (1 Bft) 98,11 %
12.05.2017 00:16 12,8 C 16,7 C 81 % 998,7 hPa 0,0 l/m 2,0 km/h (1 Bft) O-NO 57 0 min 0,000 mm 0,0 UV-I 0 W/m 9,6 C 12,8 C 3,2 km/h (1 Bft) 100,00 %
12.05.2017 00:18 12,8 C 16,7 C 82 % 998,7 hPa 0,0 l/m 1,5 km/h (1 Bft) O-NO 57 0 min 0,000 mm 0,0 UV-I 0 W/m 9,8 C 12,8 C 3,2 km/h (1 Bft) 100,00 %
12.05.2017 00:20 12,7 C 16,7 C 82 % 998,7 hPa 0,0 l/m 0,0 km/h (0 Bft) O-NO 57 0 min 0,000 mm 0,0 UV-I 0 W/m 9,7 C 12,7 C 0,0 km/h (0 Bft) 100,00 %
12.05.2017 00:22 12,5 C 16,7 C 83 % 998,7 hPa 0,0 l/m 0,7 km/h (0 Bft) O-NO 57 0 min 0,000 mm 0,0 UV-I 0 W/m 9,7 C 12,5 C 4,8 km/h (1 Bft) 100,00 %
12.05.2017 00:24 12,3 C 16,7 C 84 % 998,8 hPa 0,0 l/m 3,3 km/h (1 Bft) O-NO 59 0 min 0,000 mm 0,0 UV-I 0 W/m 9,7 C 12,3 C 4,8 km/h (1 Bft) 100,00 %
12.05.2017 00:26 12,2 C 16,7 C 85 % 998,9 hPa 0,0 l/m 0,9 km/h (0 Bft) O-NO 59 0 min 0,000 mm 0,0 UV-I 0 W/m 9,8 C 12,2 C 3,2 km/h (1 Bft) 100,00 %
12.05.2017 00:28 12,2 C 16,7 C 85 % 998,8 hPa 0,0 l/m 0,9 km/h (0 Bft) O-NO 59 0 min 0,000 mm 0,0 UV-I 0 W/m 9,8 C 12,2 C 3,2 km/h (1 Bft) 97,37 %
12.05.2017 00:30 12,2 C 16,7 C 85 % 998,8 hPa 0,0 l/m 0,3 km/h (0 Bft) O-NO 59 0 min 0,000 mm 0,0 UV-I 0 W/m 9,8 C 12,2 C 1,6 km/h (1 Bft) 100,00 %
12.05.2017 00:32 12,3 C 16,7 C 85 % 998,8 hPa 0,0 l/m 0,0 km/h (0 Bft) O-NO 59 0 min 0,000 mm 0,0 UV-I 0 W/m 9,9 C 12,3 C 0,0 km/h (0 Bft) 98,11 %
12.05.2017 00:34 12,3 C 16,7 C 85 % 998,8 hPa 0,0 l/m 0,4 km/h (0 Bft) O-NO 59 0 min 0,000 mm 0,0 UV-I 0 W/m 9,9 C 12,3 C 1,6 km/h (1 Bft) 100,00 %
12.05.2017 00:36 12,3 C 16,7 C 85 % 998,8 hPa 0,0 l/m 0,5 km/h (0 Bft) O-NO 59 0 min 0,000 mm 0,0 UV-I 0 W/m 9,9 C 12,3 C 1,6 km/h (1 Bft) 97,14 %
12.05.2017 00:38 12,3 C 16,7 C 85 % 998,8 hPa 0,0 l/m 0,0 km/h (0 Bft) O-NO 59 0 min 0,000 mm 0,0 UV-I 0 W/m 9,9 C 12,3 C 0,0 km/h (0 Bft) 100,00 %
12.05.2017 00:40 12,2 C 16,7 C 85 % 998,8 hPa 0,0 l/m 0,0 km/h (0 Bft) O-NO 59 0 min 0,000 mm 0,0 UV-I 0 W/m 9,8 C 12,2 C 0,0 km/h (0 Bft) 97,87 %
12.05.2017 00:42 12,1 C 16,7 C 86 % 998,8 hPa 0,0 l/m 0,0 km/h (0 Bft) O-NO 59 0 min 0,000 mm 0,0 UV-I 0 W/m 9,8 C 12,1 C 0,0 km/h (0 Bft) 100,00 %
12.05.2017 00:44 12,0 C 16,7 C 86 % 998,9 hPa 0,0 l/m 0,1 km/h (0 Bft) O-NO 59 0 min 0,000 mm 0,0 UV-I 0 W/m 9,7 C 12,0 C 1,6 km/h (1 Bft) 94,00 %
12.05.2017 00:46 12,0 C 16,7 C 86 % 998,9 hPa 0,0 l/m 0,0 km/h (0 Bft) O-NO 59 0 min 0,000 mm 0,0 UV-I 0 W/m 9,7 C 12,0 C 0,0 km/h (0 Bft) 100,00 %
12.05.2017 00:48 12,1 C 16,7 C 86 % 998,9 hPa 0,0 l/m 1,7 km/h (1 Bft) O-NO 59 0 min 0,000 mm 0,0 UV-I 0 W/m 9,8 C 12,1 C 3,2 km/h (1 Bft) 98,00 %
12.05.2017 00:50 12,1 C 16,7 C 86 % 998,8 hPa 0,0 l/m 1,9 km/h (1 Bft) O-NO 59 0 min 0,000 mm 0,0 UV-I 0 W/m 9,8 C 12,1 C 3,2 km/h (1 Bft) 100,00 %
12.05.2017 00:52 12,1 C 16,7 C 86 % 998,8 hPa 0,0 l/m 0,2 km/h (0 Bft) O-NO 59 0 min 0,000 mm 0,0 UV-I 0 W/m 9,8 C 12,1 C 1,6 km/h (1 Bft) 98,18 %
12.05.2017 00:54 12,2 C 16,7 C 86 % 998,8 hPa 0,0 l/m 0,0 km/h (0 Bft) O-NO 59 0 min 0,000 mm 0,0 UV-I 0 W/m 9,9 C 12,2 C 0,0 km/h (0 Bft) 97,87 %
12.05.2017 00:56 12,2 C 16,7 C 85 % 998,8 hPa 0,0 l/m 2,0 km/h (1 Bft) O-NO 59 0 min 0,000 mm 0,0 UV-I 0 W/m 9,8 C 12,2 C 3,2 km/h (1 Bft) 97,62 %
12.05.2017 00:58 12,2 C 16,7 C 85 % 999,0 hPa 0,0 l/m 0,6 km/h (0 Bft) O-NO 59 0 min 0,000 mm 0,0 UV-I 0 W/m 9,8 C 12,2 C 3,2 km/h (1 Bft) 100,00 %
12.05.2017 01:00 12,1 C 16,7 C 86 % 998,8 hPa 0,0 l/m 0,0 km/h (0 Bft) O-NO 59 0 min 0,000 mm 0,0 UV-I 0 W/m 9,8 C 12,1 C 0,0 km/h (0 Bft) 96,43 %
12.05.2017 01:02 12,0 C 16,7 C 86 % 998,9 hPa 0,0 l/m 0,0 km/h (0 Bft) O-NO 59 0 min 0,000 mm 0,0 UV-I 0 W/m 9,7 C 12,0 C 0,0 km/h (0 Bft) 100,00 %
12.05.2017 01:04 12,0 C 16,7 C 86 % 999,0 hPa 0,0 l/m 0,0 km/h (0 Bft) O-NO 59 0 min 0,000 mm 0,0 UV-I 0 W/m 9,7 C 12,0 C 0,0 km/h (0 Bft) 97,37 %
12.05.2017 01:06 11,9 C 16,7 C 86 % 999,0 hPa 0,0 l/m 0,0 km/h (0 Bft) O-NO 59 0 min 0,000 mm 0,0 UV-I 0 W/m 9,6 C 11,9 C 0,0 km/h (0 Bft) 97,87 %
12.05.2017 01:08 11,9 C 16,7 C 86 % 999,0 hPa 0,0 l/m 0,0 km/h (0 Bft) O-NO 59 0 min 0,000 mm 0,0 UV-I 0 W/m 9,6 C 11,9 C 0,0 km/h (0 Bft) 100,00 %
12.05.2017 01:10 12,1 C 16,7 C 86 % 999,0 hPa 0,0 l/m 0,0 km/h (0 Bft) O-NO 59 0 min 0,000 mm 0,0 UV-I 0 W/m 9,8 C 12,1 C 0,0 km/h (0 Bft) 97,37 %
12.05.2017 01:12 12,2 C 16,7 C 86 % 999,0 hPa 0,0 l/m 0,0 km/h (0 Bft) O-NO 59 0 min 0,000 mm 0,0 UV-I 0 W/m 9,9 C 12,2 C 0,0 km/h (0 Bft) 100,00 %
12.05.2017 01:14 12,2 C 16,7 C 86 % 999,0 hPa 0,0 l/m 0,0 km/h (0 Bft) O-NO 59 0 min 0,000 mm 0,0 UV-I 0 W/m 9,9 C 12,2 C 0,0 km/h (0 Bft) 97,37 %
12.05.2017 01:16 12,3 C 16,7 C 86 % 999,0 hPa 0,0 l/m 0,0 km/h (0 Bft) O-NO 59 0 min 0,000 mm 0,0 UV-I 0 W/m 10,0 C 12,3 C 0,0 km/h (0 Bft) 100,00 %
12.05.2017 01:18 12,2 C 16,7 C 86 % 999,0 hPa 0,0 l/m 0,0 km/h (0 Bft) O-NO 59 0 min 0,000 mm 0,0 UV-I 0 W/m 9,9 C 12,2 C 0,0 km/h (0 Bft) 94,92 %
12.05.2017 01:20 12,2 C 16,7 C 86 % 999,0 hPa 0,0 l/m 0,0 km/h (0 Bft) O-NO 59 0 min 0,000 mm 0,0 UV-I 0 W/m 9,9 C 12,2 C 0,0 km/h (0 Bft) 100,00 %
12.05.2017 01:22 12,2 C 16,7 C 86 % 999,1 hPa 0,0 l/m 0,7 km/h (0 Bft) O-NO 59 0 min 0,000 mm 0,0 UV-I 0 W/m 9,9 C 12,2 C 4,8 km/h (1 Bft) 100,00 %
12.05.2017 01:24 12,1 C 16,7 C 86 % 999,1 hPa 0,0 l/m 1,9 km/h (1 Bft) O-NO 60 0 min 0,000 mm 0,0 UV-I 0 W/m 9,8 C 12,1 C 4,8 km/h (1 Bft) 98,00 %
12.05.2017 01:26 12,1 C 16,7 C 86 % 999,0 hPa 0,0 l/m 0,0 km/h (0 Bft) O-NO 61 0 min 0,000 mm 0,0 UV-I 0 W/m 9,8 C 12,1 C 1,6 km/h (1 Bft) 100,00 %
12.05.2017 01:28 12,0 C 16,7 C 87 % 999,0 hPa 0,0 l/m 0,0 km/h (0 Bft) O-NO 61 0 min 0,000 mm 0,0 UV-I 0 W/m 9,9 C 12,0 C 0,0 km/h (0 Bft) 93,62 %
12.05.2017 01:30 12,0 C 16,7 C 87 % 999,0 hPa 0,0 l/m 1,7 km/h (1 Bft) O-NO 61 0 min 0,000 mm 0,0 UV-I 0 W/m 9,9 C 12,0 C 3,2 km/h (1 Bft) 97,87 %
12.05.2017 01:32 12,1 C 16,7 C 86 % 999,0 hPa 0,0 l/m 0,2 km/h (0 Bft) O-NO 60 0 min 0,000 mm 0,0 UV-I 0 W/m 9,8 C 12,1 C 1,6 km/h (1 Bft) 100,00 %
12.05.2017 01:34 12,2 C 16,7 C 86 % 999,0 hPa 0,0 l/m 0,0 km/h (0 Bft) O-NO 61 0 min 0,000 mm 0,0 UV-I 0 W/m 9,9 C 12,2 C 0,0 km/h (0 Bft) 93,62 %
12.05.2017 01:36 12,2 C 16,7 C 86 % 999,0 hPa 0,0 l/m 1,1 km/h (1 Bft) O-NO 61 0 min 0,000 mm 0,0 UV-I 0 W/m 9,9 C 12,2 C 1,6 km/h (1 Bft) 96,00 %
12.05.2017 01:38 12,2 C 16,7 C 87 % 999,0 hPa 0,0 l/m 0,0 km/h (0 Bft) O-NO 61 0 min 0,000 mm 0,0 UV-I 0 W/m 10,1 C 12,2 C 0,0 km/h (0 Bft) 94,29 %
12.05.2017 01:40 12,2 C 16,7 C 87 % 999,0 hPa 0,0 l/m 0,2 km/h (0 Bft) O-NO 61 0 min 0,000 mm 0,0 UV-I 0 W/m 10,1 C 12,2 C 1,6 km/h (1 Bft) 96,43 %
12.05.2017 01:42 12,3 C 16,7 C 86 % 999,0 hPa 0,0 l/m 0,0 km/h (0 Bft) O-NO 61 0 min 0,000 mm 0,0 UV-I 0 W/m 10,0 C 12,3 C 1,6 km/h (1 Bft) 96,00 %
12.05.2017 01:44 12,3 C 16,7 C 86 % 999,1 hPa 0,0 l/m 1,3 km/h (1 Bft) O-NO 61 0 min 0,000 mm 0,0 UV-I 0 W/m 10,0 C 12,3 C 3,2 km/h (1 Bft) 91,49 %
12.05.2017 01:46 12,4 C 16,7 C 85 % 999,1 hPa 0,0 l/m 2,3 km/h (1 Bft) O-NO 61 0 min 0,000 mm 0,0 UV-I 0 W/m 9,9 C 12,4 C 4,8 km/h (1 Bft) 95,74 %
12.05.2017 01:48 12,4 C 16,7 C 85 % 999,2 hPa 0,0 l/m 3,2 km/h (1 Bft) O-SO 105 0 min 0,000 mm 0,0 UV-I 0 W/m 9,9 C 12,4 C 4,8 km/h (1 Bft) 92,45 %
12.05.2017 01:50 12,4 C 16,7 C 85 % 999,1 hPa 0,0 l/m 2,0 km/h (1 Bft) O-SO 105 0 min 0,000 mm 0,0 UV-I 0 W/m 9,9 C 12,4 C 3,2 km/h (1 Bft) 95,12 %
12.05.2017 01:52 12,4 C 16,7 C 85 % 999,1 hPa 0,0 l/m 1,4 km/h (1 Bft) O-SO 105 0 min 0,000 mm 0,0 UV-I 0 W/m 9,9 C 12,4 C 3,2 km/h (1 Bft) 94,00 %
12.05.2017 01:54 12,3 C 16,7 C 85 % 999,1 hPa 0,0 l/m 0,4 km/h (0 Bft) O-SO 105 0 min 0,000 mm 0,0 UV-I 0 W/m 9,9 C 12,3 C 1,6 km/h (1 Bft) 96,00 %
12.05.2017 01:56 12,3 C 16,7 C 85 % 999,1 hPa 0,0 l/m 0,4 km/h (0 Bft) O-SO 105 0 min 0,000 mm 0,0 UV-I 0 W/m 9,9 C 12,3 C 1,6 km/h (1 Bft) 95,12 %
12.05.2017 01:58 12,3 C 16,7 C 85 % 999,2 hPa 0,0 l/m 1,3 km/h (1 Bft) O-SO 105 0 min 0,000 mm 0,0 UV-I 0 W/m 9,9 C 12,3 C 3,2 km/h (1 Bft) 93,62 %
12.05.2017 02:00 12,3 C 16,7 C 85 % 999,1 hPa 0,0 l/m 1,8 km/h (1 Bft) O-SO 105 0 min 0,000 mm 0,0 UV-I 0 W/m 9,9 C 12,3 C 3,2 km/h (1 Bft) 93,62 %
12.05.2017 02:02 12,3 C 16,7 C 85 % 999,1 hPa 0,0 l/m 0,2 km/h (0 Bft) O-SO 105 0 min 0,000 mm 0,0 UV-I 0 W/m 9,9 C 12,3 C 1,6 km/h (1 Bft) 94,00 %
12.05.2017 02:04 12,1 C 16,7 C 85 % 999,2 hPa 0,0 l/m 0,0 km/h (0 Bft) O-SO 105 0 min 0,000 mm 0,0 UV-I 0 W/m 9,7 C 12,1 C 0,0 km/h (0 Bft) 94,74 %
12.05.2017 02:06 11,9 C 16,7 C 86 % 999,2 hPa 0,0 l/m 1,4 km/h (1 Bft) O-SO 105 0 min 0,000 mm 0,0 UV-I 0 W/m 9,6 C 11,9 C 3,2 km/h (1 Bft) 94,64 %
12.05.2017 02:08 11,7 C 16,7 C 87 % 999,2 hPa 0,0 l/m 2,4 km/h (1 Bft) O-SO 105 0 min 0,000 mm 0,0 UV-I 0 W/m 9,6 C 11,7 C 3,2 km/h (1 Bft) 95,12 %
12.05.2017 02:10 11,5 C 16,7 C 88 % 999,2 hPa 0,0 l/m 3,6 km/h (1 Bft) SO 145 0 min 0,000 mm 0,0 UV-I 0 W/m 9,6 C 11,5 C 4,8 km/h (1 Bft) 90,00 %
12.05.2017 02:12 11,4 C 16,7 C 88 % 999,2 hPa 0,0 l/m 3,5 km/h (1 Bft) SO 145 0 min 0,000 mm 0,0 UV-I 0 W/m 9,5 C 11,4 C 4,8 km/h (1 Bft) 94,00 %
12.05.2017 02:14 11,3 C 16,7 C 89 % 999,2 hPa 0,0 l/m 1,9 km/h (1 Bft) SO 145 0 min 0,000 mm 0,0 UV-I 0 W/m 9,6 C 11,3 C 3,2 km/h (1 Bft) 91,49 %
12.05.2017 02:16 11,3 C 16,7 C 89 % 999,2 hPa 0,0 l/m 1,7 km/h (1 Bft) SO 145 0 min 0,000 mm 0,0 UV-I 0 W/m 9,6 C 11,3 C 3,2 km/h (1 Bft) 94,87 %
12.05.2017 02:18 11,3 C 16,7 C 89 % 999,2 hPa 0,0 l/m 2,1 km/h (1 Bft) SO 145 0 min 0,000 mm 0,0 UV-I 0 W/m 9,6 C 11,3 C 4,8 km/h (1 Bft) 94,00 %
12.05.2017 02:20 11,3 C 16,7 C 89 % 999,2 hPa 0,0 l/m 0,5 km/h (0 Bft) SO 145 0 min 0,000 mm 0,0 UV-I 0 W/m 9,6 C 11,3 C 3,2 km/h (1 Bft) 96,23 %
12.05.2017 02:23 11,2 C 16,7 C 89 % 999,2 hPa 0,0 l/m 1,1 km/h (1 Bft) SO 145 0 min 0,000 mm 0,0 UV-I 0 W/m 9,5 C 11,2 C 3,2 km/h (1 Bft) 98,36 %
12.05.2017 02:24 11,2 C 16,7 C 90 % 999,2 hPa 0,0 l/m 2,1 km/h (1 Bft) SO 145 0 min 0,000 mm 0,0 UV-I 0 W/m 9,6 C 11,2 C 3,2 km/h (1 Bft) 91,67 %
12.05.2017 02:26 11,2 C 16,7 C 90 % 999,2 hPa 0,0 l/m 0,9 km/h (0 Bft) SO 145 0 min 0,000 mm 0,0 UV-I 0 W/m 9,6 C 11,2 C 3,2 km/h (1 Bft) 96,23 %
12.05.2017 02:29 11,3 C 16,7 C 90 % 999,2 hPa 0,0 l/m 2,6 km/h (1 Bft) SO 145 0 min 0,000 mm 0,0 UV-I 0 W/m 9,7 C 11,3 C 3,2 km/h (1 Bft) 95,89 %
12.05.2017 02:30 11,3 C 16,7 C 90 % 999,2 hPa 0,0 l/m 2,8 km/h (1 Bft) SO 145 0 min 0,000 mm 0,0 UV-I 0 W/m 9,7 C 11,3 C 3,2 km/h (1 Bft) 100,00 %
12.05.2017 02:32 11,5 C 16,7 C 89 % 999,2 hPa 0,0 l/m 3,5 km/h (1 Bft) SO 145 0 min 0,000 mm 0,0 UV-I 0 W/m 9,8 C 11,5 C 4,8 km/h (1 Bft) 96,23 %
12.05.2017 02:34 11,6 C 16,7 C 89 % 999,2 hPa 0,0 l/m 3,2 km/h (1 Bft) SO 145 0 min 0,000 mm 0,0 UV-I 0 W/m 9,8 C 11,6 C 4,8 km/h (1 Bft) 93,62 %
12.05.2017 02:36 11,7 C 16,7 C 88 % 999,1 hPa 0,0 l/m 2,4 km/h (1 Bft) SO 145 0 min 0,000 mm 0,0 UV-I 0 W/m 9,8 C 11,7 C 3,2 km/h (1 Bft) 91,49 %
12.05.2017 02:38 11,7 C 16,7 C 88 % 999,1 hPa 0,0 l/m 2,8 km/h (1 Bft) SO 145 0 min 0,000 mm 0,0 UV-I 0 W/m 9,8 C 11,7 C 4,8 km/h (1 Bft) 96,00 %
12.05.2017 02:40 11,7 C 16,7 C 88 % 999,1 hPa 0,0 l/m 1,3 km/h (1 Bft) SO 145 0 min 0,000 mm 0,0 UV-I 0 W/m 9,8 C 11,7 C 3,2 km/h (1 Bft) 100,00 %
12.05.2017 02:42 11,6 C 16,7 C 88 % 999,1 hPa 0,0 l/m 0,7 km/h (0 Bft) SO 145 0 min 0,000 mm 0,0 UV-I 0 W/m 9,7 C 11,6 C 3,2 km/h (1 Bft) 98,00 %
12.05.2017 02:44 11,4 C 16,7 C 89 % 999,2 hPa 0,0 l/m 1,3 km/h (1 Bft) SO 145 0 min 0,000 mm 0,0 UV-I 0 W/m 9,7 C 11,4 C 3,2 km/h (1 Bft) 100,00 %
12.05.2017 02:46 11,4 C 16,7 C 89 % 999,2 hPa 0,0 l/m 2,5 km/h (1 Bft) SO 145 0 min 0,000 mm 0,0 UV-I 0 W/m 9,7 C 11,4 C 4,8 km/h (1 Bft) 98,00 %
12.05.2017 02:48 11,4 C 16,7 C 89 % 999,2 hPa 0,0 l/m 0,6 km/h (0 Bft) SO 145 0 min 0,000 mm 0,0 UV-I 0 W/m 9,7 C 11,4 C 3,2 km/h (1 Bft) 100,00 %
12.05.2017 02:50 11,4 C 16,7 C 89 % 999,2 hPa 0,0 l/m 1,9 km/h (1 Bft) SO 145 0 min 0,000 mm 0,0 UV-I 0 W/m 9,7 C 11,4 C 3,2 km/h (1 Bft) 100,00 %
12.05.2017 02:52 11,4 C 16,7 C 89 % 999,2 hPa 0,0 l/m 3,0 km/h (1 Bft) SO 145 0 min 0,000 mm 0,0 UV-I 0 W/m 9,7 C 11,4 C 4,8 km/h (1 Bft) 94,64 %
12.05.2017 02:54 11,4 C 16,7 C 89 % 999,2 hPa 0,0 l/m 3,5 km/h (1 Bft) SO 145 0 min 0,000 mm 0,0 UV-I 0 W/m 9,7 C 11,4 C 4,8 km/h (1 Bft) 98,11 %
12.05.2017 02:56 11,4 C 16,7 C 89 % 999,3 hPa 0,0 l/m 4,6 km/h (1 Bft) SO 146 0 min 0,000 mm 0,0 UV-I 0 W/m 9,7 C 11,4 C 6,4 km/h (2 Bft) 97,87 %
12.05.2017 02:58 11,4 C 16,7 C 89 % 999,3 hPa 0,0 l/m 1,8 km/h (1 Bft) SO 146 0 min 0,000 mm 0,0 UV-I 0 W/m 9,7 C 11,4 C 4,8 km/h (1 Bft) 98,00 %
12.05.2017 03:00 11,4 C 16,7 C 89 % 999,3 hPa 0,0 l/m 1,3 km/h (1 Bft) SO 146 0 min 0,000 mm 0,0 UV-I 0 W/m 9,7 C 11,4 C 3,2 km/h (1 Bft) 100,00 %
12.05.2017 03:02 11,3 C 16,7 C 89 % 999,3 hPa 0,0 l/m 0,5 km/h (0 Bft) SO 146 0 min 0,000 mm 0,0 UV-I 0 W/m 9,6 C 11,3 C 1,6 km/h (1 Bft) 100,00 %
12.05.2017 03:04 11,3 C 16,7 C 89 % 999,3 hPa 0,0 l/m 3,0 km/h (1 Bft) SO 146 0 min 0,000 mm 0,0 UV-I 0 W/m 9,6 C 11,3 C 3,2 km/h (1 Bft) 100,00 %
12.05.2017 03:06 11,2 C 16,7 C 89 % 999,3 hPa 0,0 l/m 2,3 km/h (1 Bft) SO 146 0 min 0,000 mm 0,0 UV-I 0 W/m 9,5 C 11,2 C 3,2 km/h (1 Bft) 100,00 %
12.05.2017 03:08 11,3 C 16,7 C 90 % 999,4 hPa 0,0 l/m 0,6 km/h (0 Bft) SO 146 0 min 0,000 mm 0,0 UV-I 0 W/m 9,7 C 11,3 C 3,2 km/h (1 Bft) 100,00 %
12.05.2017 03:10 11,4 C 16,7 C 90 % 999,5 hPa 0,0 l/m 3,4 km/h (1 Bft) SO 146 0 min 0,000 mm 0,0 UV-I 0 W/m 9,8 C 11,4 C 4,8 km/h (1 Bft) 100,00 %
12.05.2017 03:12 11,6 C 16,7 C 90 % 999,5 hPa 0,0 l/m 3,3 km/h (1 Bft) SO 146 0 min 0,000 mm 0,0 UV-I 0 W/m 10,0 C 11,6 C 4,8 km/h (1 Bft) 98,00 %
12.05.2017 03:14 11,6 C 16,7 C 89 % 999,6 hPa 0,0 l/m 4,0 km/h (1 Bft) SO 146 0 min 0,000 mm 0,0 UV-I 0 W/m 9,8 C 11,6 C 4,8 km/h (1 Bft) 100,00 %
12.05.2017 03:16 11,5 C 16,7 C 89 % 999,6 hPa 0,0 l/m 4,0 km/h (1 Bft) SO 146 0 min 0,000 mm 0,0 UV-I 0 W/m 9,8 C 11,5 C 4,8 km/h (1 Bft) 97,37 %
12.05.2017 03:18 11,4 C 16,7 C 89 % 999,6 hPa 0,0 l/m 2,4 km/h (1 Bft) S-SO 147 0 min 0,000 mm 0,0 UV-I 0 W/m 9,7 C 11,4 C 4,8 km/h (1 Bft) 100,00 %
12.05.2017 03:20 11,3 C 16,7 C 89 % 999,6 hPa 0,0 l/m 1,1 km/h (1 Bft) S-SO 147 0 min 0,000 mm 0,0 UV-I 0 W/m 9,6 C 11,3 C 3,2 km/h (1 Bft) 95,83 %
12.05.2017 03:22 11,3 C 16,7 C 89 % 999,6 hPa 0,0 l/m 0,4 km/h (0 Bft) S-SO 147 0 min 0,000 mm 0,0 UV-I 0 W/m 9,6 C 11,3 C 1,6 km/h (1 Bft) 95,31 %
12.05.2017 03:24 11,3 C 16,7 C 90 % 999,7 hPa 0,0 l/m 2,3 km/h (1 Bft) S-SO 147 0 min 0,000 mm 0,0 UV-I 0 W/m 9,7 C 11,3 C 4,8 km/h (1 Bft) 100,00 %
12.05.2017 03:26 11,3 C 16,7 C 90 % 999,6 hPa 0,0 l/m 3,0 km/h (1 Bft) S-SW 196 0 min 0,000 mm 0,0 UV-I 0 W/m 9,7 C 11,3 C 4,8 km/h (1 Bft) 97,87 %
12.05.2017 03:28 11,4 C 16,7 C 90 % 999,6 hPa 0,0 l/m 3,7 km/h (1 Bft) S-SW 207 0 min 0,000 mm 0,0 UV-I 0 W/m 9,8 C 11,4 C 4,8 km/h (1 Bft) 100,00 %
12.05.2017 03:30 11,4 C 16,7 C 90 % 999,6 hPa 0,0 l/m 2,6 km/h (1 Bft) S-SW 207 0 min 0,000 mm 0,0 UV-I 0 W/m 9,8 C 11,4 C 3,2 km/h (1 Bft) 97,87 %
12.05.2017 03:32 11,5 C 16,7 C 90 % 999,6 hPa 0,0 l/m 2,4 km/h (1 Bft) S-SW 207 0 min 0,000 mm 0,0 UV-I 0 W/m 9,9 C 11,5 C 3,2 km/h (1 Bft) 97,30 %
12.05.2017 03:34 11,6 C 16,7 C 90 % 999,6 hPa 0,0 l/m 1,1 km/h (1 Bft) S-SW 205 0 min 0,000 mm 0,0 UV-I 0 W/m 10,0 C 11,6 C 3,2 km/h (1 Bft) 98,11 %
12.05.2017 03:36 11,6 C 16,7 C 89 % 999,6 hPa 0,0 l/m 3,3 km/h (1 Bft) S-SW 204 0 min 0,000 mm 0,0 UV-I 0 W/m 9,8 C 11,6 C 4,8 km/h (1 Bft) 98,00 %
12.05.2017 03:38 11,6 C 16,7 C 90 % 999,6 hPa 0,0 l/m 1,2 km/h (1 Bft) S-SW 204 0 min 0,000 mm 0,0 UV-I 0 W/m 10,0 C 11,6 C 3,2 km/h (1 Bft) 97,14 %
12.05.2017 03:40 11,5 C 16,7 C 90 % 999,6 hPa 0,0 l/m 0,1 km/h (0 Bft) S-SW 204 0 min 0,000 mm 0,0 UV-I 0 W/m 9,9 C 11,5 C 1,6 km/h (1 Bft) 98,21 %
12.05.2017 03:42 11,5 C 16,7 C 90 % 999,5 hPa 0,0 l/m 0,6 km/h (0 Bft) S-SW 204 0 min 0,000 mm 0,0 UV-I 0 W/m 9,9 C 11,5 C 1,6 km/h (1 Bft) 100,00 %
12.05.2017 03:44 11,6 C 16,7 C 90 % 999,5 hPa 0,0 l/m 0,1 km/h (0 Bft) S-SW 204 0 min 0,000 mm 0,0 UV-I 0 W/m 10,0 C 11,6 C 1,6 km/h (1 Bft) 97,56 %
12.05.2017 03:46 11,7 C 16,7 C 90 % 999,5 hPa 0,0 l/m 0,1 km/h (0 Bft) S-SW 204 0 min 0,000 mm 0,0 UV-I 0 W/m 10,1 C 11,7 C 1,6 km/h (1 Bft) 98,00 %
12.05.2017 03:48 11,8 C 16,7 C 89 % 999,6 hPa 0,0 l/m 2,3 km/h (1 Bft) S-SW 204 0 min 0,000 mm 0,0 UV-I 0 W/m 10,0 C 11,8 C 3,2 km/h (1 Bft) 94,74 %
12.05.2017 03:50 11,8 C 16,7 C 89 % 999,6 hPa 0,0 l/m 1,5 km/h (1 Bft) S-SW 204 0 min 0,000 mm 0,0 UV-I 0 W/m 10,0 C 11,8 C 3,2 km/h (1 Bft) 100,00 %
12.05.2017 03:52 11,8 C 16,7 C 89 % 999,6 hPa 0,0 l/m 1,8 km/h (1 Bft) S-SW 204 0 min 0,000 mm 0,0 UV-I 0 W/m 10,0 C 11,8 C 3,2 km/h (1 Bft) 92,68 %
12.05.2017 03:54 11,7 C 16,7 C 89 % 999,6 hPa 0,0 l/m 0,0 km/h (0 Bft) S-SW 204 0 min 0,000 mm 0,0 UV-I 0 W/m 9,9 C 11,7 C 1,6 km/h (1 Bft) 95,74 %
12.05.2017 03:56 11,7 C 16,7 C 89 % 999,6 hPa 0,0 l/m 0,2 km/h (0 Bft) S-SW 204 0 min 0,000 mm 0,0 UV-I 0 W/m 9,9 C 11,7 C 1,6 km/h (1 Bft) 94,00 %
12.05.2017 03:58 11,8 C 16,7 C 89 % 999,7 hPa 0,0 l/m 0,8 km/h (0 Bft) S-SW 204 0 min 0,000 mm 0,0 UV-I 0 W/m 10,0 C 11,8 C 3,2 km/h (1 Bft) 96,00 %
12.05.2017 04:00 11,8 C 16,7 C 89 % 999,9 hPa 0,0 l/m 4,1 km/h (1 Bft) S-SW 204 0 min 0,000 mm 0,0 UV-I 0 W/m 10,0 C 11,8 C 6,4 km/h (2 Bft) 94,74 %
12.05.2017 04:02 11,8 C 16,7 C 89 % 999,9 hPa 0,0 l/m 4,8 km/h (1 Bft) S-SW 204 0 min 0,000 mm 0,0 UV-I 0 W/m 10,0 C 11,8 C 6,4 km/h (2 Bft) 100,00 %
12.05.2017 04:04 11,7 C 16,7 C 89 % 999,8 hPa 0,0 l/m 4,6 km/h (1 Bft) S-SW 204 0 min 0,000 mm 0,0 UV-I 0 W/m 9,9 C 11,7 C 6,4 km/h (2 Bft) 96,00 %
12.05.2017 04:06 11,6 C 16,7 C 89 % 999,9 hPa 0,0 l/m 4,6 km/h (1 Bft) S-SW 204 0 min 0,000 mm 0,0 UV-I 0 W/m 9,8 C 11,6 C 6,4 km/h (2 Bft) 97,87 %
12.05.2017 04:08 11,6 C 16,7 C 90 % 999,9 hPa 0,0 l/m 3,0 km/h (1 Bft) S-SW 204 0 min 0,000 mm 0,0 UV-I 0 W/m 10,0 C 11,6 C 4,8 km/h (1 Bft) 97,22 %
12.05.2017 04:10 11,6 C 16,7 C 90 % 999,9 hPa 0,0 l/m 0,5 km/h (0 Bft) S-SW 204 0 min 0,000 mm 0,0 UV-I 0 W/m 10,0 C 11,6 C 3,2 km/h (1 Bft) 96,23 %
12.05.2017 04:12 11,6 C 16,7 C 90 % 999,9 hPa 0,0 l/m 2,3 km/h (1 Bft) S-SW 204 0 min 0,000 mm 0,0 UV-I 0 W/m 10,0 C 11,6 C 3,2 km/h (1 Bft) 96,00 %
12.05.2017 04:14 11,6 C 16,7 C 90 % 999,8 hPa 0,0 l/m 1,9 km/h (1 Bft) S-SW 204 0 min 0,000 mm 0,0 UV-I 0 W/m 10,0 C 11,6 C 3,2 km/h (1 Bft) 96,00 %
12.05.2017 04:16 11,7 C 16,7 C 90 % 999,7 hPa 0,0 l/m 0,6 km/h (0 Bft) S-SW 204 0 min 0,000 mm 0,0 UV-I 0 W/m 10,1 C 11,7 C 3,2 km/h (1 Bft) 95,12 %
12.05.2017 04:18 11,8 C 16,7 C 89 % 999,7 hPa 0,0 l/m 1,2 km/h (1 Bft) S-SW 204 0 min 0,000 mm 0,0 UV-I 0 W/m 10,0 C 11,8 C 3,2 km/h (1 Bft) 94,00 %
12.05.2017 04:20 11,8 C 16,7 C 89 % 999,8 hPa 0,0 l/m 2,6 km/h (1 Bft) S-SW 204 0 min 0,000 mm 0,0 UV-I 0 W/m 10,0 C 11,8 C 4,8 km/h (1 Bft) 93,10 %
12.05.2017 04:22 11,8 C 16,7 C 89 % 999,9 hPa 0,0 l/m 0,9 km/h (0 Bft) S-SW 204 0 min 0,000 mm 0,0 UV-I 0 W/m 10,0 C 11,8 C 3,2 km/h (1 Bft) 96,92 %
12.05.2017 04:24 11,9 C 16,7 C 89 % 999,9 hPa 0,0 l/m 2,1 km/h (1 Bft) S-SW 204 0 min 0,000 mm 0,0 UV-I 0 W/m 10,1 C 11,9 C 4,8 km/h (1 Bft) 94,74 %
12.05.2017 04:26 11,9 C 16,7 C 89 % 999,7 hPa 0,0 l/m 6,1 km/h (2 Bft) S-SO 167 0 min 0,000 mm 0,0 UV-I 0 W/m 10,1 C 11,9 C 8,0 km/h (2 Bft) 98,31 %
12.05.2017 04:28 11,8 C 16,7 C 89 % 999,7 hPa 0,0 l/m 6,4 km/h (2 Bft) S-SO 166 0 min 0,000 mm 0,0 UV-I 0 W/m 10,0 C 11,8 C 8,0 km/h (2 Bft) 100,00 %
12.05.2017 04:30 11,8 C 16,7 C 90 % 999,7 hPa 0,0 l/m 2,5 km/h (1 Bft) S-SO 166 0 min 0,000 mm 0,0 UV-I 0 W/m 10,2 C 11,8 C 6,4 km/h (2 Bft) 97,56 %
12.05.2017 04:32 11,8 C 16,7 C 90 % 999,8 hPa 0,0 l/m 2,4 km/h (1 Bft) S-SO 166 0 min 0,000 mm 0,0 UV-I 0 W/m 10,2 C 11,8 C 6,4 km/h (2 Bft) 98,00 %
12.05.2017 04:34 11,9 C 16,7 C 90 % 999,8 hPa 0,0 l/m 2,0 km/h (1 Bft) S-SO 166 0 min 0,000 mm 0,0 UV-I 0 W/m 10,3 C 11,9 C 4,8 km/h (1 Bft) 95,12 %
12.05.2017 04:36 12,0 C 16,7 C 89 % 999,8 hPa 0,0 l/m 4,3 km/h (1 Bft) S-SO 166 0 min 0,000 mm 0,0 UV-I 0 W/m 10,2 C 12,0 C 6,4 km/h (2 Bft) 100,00 %
12.05.2017 04:38 11,9 C 16,7 C 89 % 999,9 hPa 0,0 l/m 3,1 km/h (1 Bft) S-SO 166 0 min 0,000 mm 0,0 UV-I 0 W/m 10,1 C 11,9 C 6,4 km/h (2 Bft) 94,00 %
12.05.2017 04:40 11,9 C 16,7 C 89 % 999,9 hPa 0,0 l/m 2,2 km/h (1 Bft) S-SO 166 0 min 0,000 mm 0,0 UV-I 0 W/m 10,1 C 11,9 C 6,4 km/h (2 Bft) 100,00 %
12.05.2017 04:42 12,0 C 16,7 C 89 % 999,8 hPa 0,0 l/m 5,4 km/h (1 Bft) S-SO 166 0 min 0,000 mm 0,0 UV-I 0 W/m 10,2 C 12,0 C 8,0 km/h (2 Bft) 97,44 %
12.05.2017 04:44 12,1 C 16,7 C 89 % 999,8 hPa 0,0 l/m 3,7 km/h (1 Bft) S-SO 166 0 min 0,000 mm 0,0 UV-I 0 W/m 10,3 C 12,1 C 6,4 km/h (2 Bft) 97,87 %
12.05.2017 04:46 12,1 C 16,7 C 89 % 999,8 hPa 0,0 l/m 6,8 km/h (2 Bft) S-SO 165 0 min 0,000 mm 0,0 UV-I 0 W/m 10,3 C 11,8 C 8,0 km/h (2 Bft) 98,11 %
12.05.2017 04:48 12,1 C 16,7 C 88 % 999,8 hPa 0,0 l/m 4,0 km/h (1 Bft) S-SO 164 0 min 0,000 mm 0,0 UV-I 0 W/m 10,2 C 12,1 C 9,7 km/h (2 Bft) 100,00 %
12.05.2017 04:50 12,1 C 16,1 C 89 % 999,8 hPa 0,0 l/m 4,4 km/h (1 Bft) S-SO 163 0 min 0,000 mm 0,0 UV-I 0 W/m 10,3 C 12,1 C 8,0 km/h (2 Bft) 100,00 %
12.05.2017 04:52 12,1 C 16,7 C 88 % 999,7 hPa 0,0 l/m 6,3 km/h (2 Bft) S-SO 163 0 min 0,000 mm 0,0 UV-I 0 W/m 10,2 C 12,1 C 8,0 km/h (2 Bft) 100,00 %
12.05.2017 04:54 12,1 C 16,1 C 89 % 999,7 hPa 0,0 l/m 1,5 km/h (1 Bft) S-SO 163 0 min 0,000 mm 0,0 UV-I 0 W/m 10,3 C 12,1 C 3,2 km/h (1 Bft) 97,87 %
12.05.2017 04:56 12,2 C 16,1 C 89 % 999,7 hPa 0,0 l/m 2,0 km/h (1 Bft) S-SO 163 0 min 0,000 mm 0,0 UV-I 0 W/m 10,4 C 12,2 C 6,4 km/h (2 Bft) 100,00 %
12.05.2017 04:58 12,2 C 16,1 C 89 % 999,7 hPa 0,0 l/m 2,6 km/h (1 Bft) S-SO 163 0 min 0,000 mm 0,0 UV-I 0 W/m 10,4 C 12,2 C 6,4 km/h (2 Bft) 97,87 %
12.05.2017 05:00 12,2 C 16,1 C 88 % 999,6 hPa 0,0 l/m 2,5 km/h (1 Bft) S-SO 163 0 min 0,000 mm 0,0 UV-I 0 W/m 10,3 C 12,2 C 6,4 km/h (2 Bft) 100,00 %
12.05.2017 05:02 12,2 C 16,1 C 89 % 999,7 hPa 0,0 l/m 1,4 km/h (1 Bft) S-SO 163 0 min 0,000 mm 0,0 UV-I 0 W/m 10,4 C 12,2 C 3,2 km/h (1 Bft) 97,56 %
12.05.2017 05:04 12,2 C 16,1 C 89 % 999,7 hPa 0,0 l/m 4,2 km/h (1 Bft) S-SO 163 0 min 0,000 mm 0,0 UV-I 0 W/m 10,4 C 12,2 C 6,4 km/h (2 Bft) 98,21 %
12.05.2017 05:06 12,2 C 16,1 C 88 % 999,7 hPa 0,0 l/m 4,9 km/h (1 Bft) S-SO 163 0 min 0,000 mm 0,0 UV-I 0 W/m 10,3 C 12,2 C 6,4 km/h (2 Bft) 100,00 %
12.05.2017 05:08 12,3 C 16,1 C 88 % 999,7 hPa 0,0 l/m 0,6 km/h (0 Bft) S-SO 163 0 min 0,000 mm 0,0 UV-I 0 W/m 10,4 C 12,3 C 3,2 km/h (1 Bft) 98,11 %
12.05.2017 05:10 12,3 C 16,1 C 88 % 999,7 hPa 0,0 l/m 2,5 km/h (1 Bft) S-SO 163 0 min 0,000 mm 0,0 UV-I 0 W/m 10,4 C 12,3 C 3,2 km/h (1 Bft) 97,87 %
12.05.2017 05:12 12,2 C 16,1 C 88 % 999,7 hPa 0,0 l/m 2,5 km/h (1 Bft) S-SO 163 0 min 0,000 mm 0,0 UV-I 0 W/m 10,3 C 12,2 C 6,4 km/h (2 Bft) 98,00 %
12.05.2017 05:14 12,2 C 16,1 C 88 % 999,9 hPa 0,0 l/m 4,5 km/h (1 Bft) SW 230 0 min 0,000 mm 0,0 UV-I 0 W/m 10,3 C 12,2 C 8,0 km/h (2 Bft) 100,00 %
12.05.2017 05:16 12,2 C 16,1 C 89 % 999,9 hPa 0,0 l/m 5,0 km/h (1 Bft) SW 230 0 min 0,000 mm 0,0 UV-I 0 W/m 10,4 C 12,2 C 6,4 km/h (2 Bft) 96,23 %
12.05.2017 05:18 12,1 C 16,1 C 89 % 1000,0 hPa 0,0 l/m 4,6 km/h (1 Bft) SW 234 0 min 0,000 mm 0,0 UV-I 0 W/m 10,3 C 12,1 C 6,4 km/h (2 Bft) 100,00 %
12.05.2017 05:20 12,0 C 16,1 C 89 % 1000,1 hPa 0,0 l/m 4,3 km/h (1 Bft) W 273 0 min 0,000 mm 0,0 UV-I 0 W/m 10,2 C 12,0 C 6,4 km/h (2 Bft) 100,00 %
12.05.2017 05:22 11,9 C 16,1 C 90 % 1000,1 hPa 0,0 l/m 3,1 km/h (1 Bft) W 273 0 min 0,000 mm 0,0 UV-I 0 W/m 10,3 C 11,9 C 4,8 km/h (1 Bft) 98,11 %
12.05.2017 05:24 11,9 C 16,1 C 90 % 1000,1 hPa 0,0 l/m 4,2 km/h (1 Bft) W 272 0 min 0,000 mm 0,0 UV-I 0 W/m 10,3 C 11,9 C 6,4 km/h (2 Bft) 97,87 %
12.05.2017 05:26 11,9 C 16,1 C 90 % 1000,1 hPa 0,0 l/m 2,9 km/h (1 Bft) W 272 0 min 0,000 mm 0,0 UV-I 0 W/m 10,3 C 11,9 C 4,8 km/h (1 Bft) 100,00 %
12.05.2017 05:28 11,9 C 16,1 C 91 % 1000,2 hPa 0,0 l/m 4,4 km/h (1 Bft) W 272 0 min 0,000 mm 0,0 UV-I 1 W/m 10,5 C 11,9 C 6,4 km/h (2 Bft) 97,22 %
12.05.2017 05:30 12,0 C 16,1 C 90 % 1000,2 hPa 0,0 l/m 3,3 km/h (1 Bft) W 272 0 min 0,000 mm 0,0 UV-I 5 W/m 10,4 C 12,0 C 4,8 km/h (1 Bft) 95,31 %
12.05.2017 05:32 12,0 C 16,1 C 90 % 1000,2 hPa 0,0 l/m 1,4 km/h (1 Bft) W 272 0 min 0,000 mm 0,0 UV-I 5 W/m 10,4 C 12,0 C 3,2 km/h (1 Bft) 95,24 %
12.05.2017 05:34 12,1 C 16,1 C 90 % 1000,2 hPa 0,0 l/m 1,2 km/h (1 Bft) W 272 0 min 0,000 mm 0,0 UV-I 6 W/m 10,5 C 12,1 C 4,8 km/h (1 Bft) 96,23 %
12.05.2017 05:36 12,1 C 16,1 C 90 % 1000,2 hPa 0,0 l/m 0,2 km/h (0 Bft) W 272 0 min 0,000 mm 0,0 UV-I 7 W/m 10,5 C 12,1 C 1,6 km/h (1 Bft) 97,87 %
12.05.2017 05:38 12,1 C 16,1 C 90 % 1000,0 hPa 0,0 l/m 0,0 km/h (0 Bft) W 272 0 min 0,000 mm 0,0 UV-I 7 W/m 10,5 C 12,1 C 0,0 km/h (0 Bft) 92,11 %
12.05.2017 05:40 12,1 C 16,1 C 91 % 1000,0 hPa 0,0 l/m 1,9 km/h (1 Bft) W 272 0 min 0,000 mm 0,0 UV-I 7 W/m 10,7 C 12,1 C 3,2 km/h (1 Bft) 89,36 %
12.05.2017 05:42 12,1 C 16,1 C 91 % 1000,0 hPa 0,0 l/m 1,6 km/h (1 Bft) W 272 0 min 0,000 mm 0,0 UV-I 7 W/m 10,7 C 12,1 C 3,2 km/h (1 Bft) 94,00 %
12.05.2017 05:44 12,1 C 16,1 C 91 % 999,9 hPa 0,0 l/m 1,2 km/h (1 Bft) W 272 0 min 0,000 mm 0,0 UV-I 7 W/m 10,7 C 12,1 C 1,6 km/h (1 Bft) 94,00 %
12.05.2017 05:46 12,1 C 16,1 C 91 % 999,9 hPa 0,0 l/m 0,4 km/h (0 Bft) W 272 0 min 0,000 mm 0,0 UV-I 8 W/m 10,7 C 12,1 C 1,6 km/h (1 Bft) 97,37 %
12.05.2017 05:48 12,2 C 16,1 C 91 % 999,9 hPa 0,0 l/m 0,0 km/h (0 Bft) W 272 0 min 0,000 mm 0,0 UV-I 9 W/m 10,8 C 12,2 C 0,0 km/h (0 Bft) 96,23 %
12.05.2017 05:50 12,2 C 16,1 C 90 % 1000,0 hPa 0,0 l/m 0,9 km/h (0 Bft) W 272 0 min 0,000 mm 0,0 UV-I 11 W/m 10,6 C 12,2 C 3,2 km/h (1 Bft) 95,74 %
12.05.2017 05:52 12,2 C 16,1 C 90 % 1000,0 hPa 0,0 l/m 0,0 km/h (0 Bft) W 272 0 min 0,000 mm 0,0 UV-I 11 W/m 10,6 C 12,2 C 1,6 km/h (1 Bft) 94,00 %
12.05.2017 05:54 12,2 C 16,1 C 90 % 1000,1 hPa 0,0 l/m 0,0 km/h (0 Bft) W 272 0 min 0,000 mm 0,0 UV-I 12 W/m 10,6 C 12,2 C 1,6 km/h (1 Bft) 93,62 %
12.05.2017 05:56 12,1 C 16,1 C 90 % 1000,2 hPa 0,0 l/m 0,1 km/h (0 Bft) W 272 0 min 0,000 mm 0,0 UV-I 14 W/m 10,5 C 12,1 C 1,6 km/h (1 Bft) 95,12 %
12.05.2017 05:58 11,9 C 16,1 C 90 % 1000,2 hPa 0,0 l/m 0,2 km/h (0 Bft) W 272 0 min 0,000 mm 0,0 UV-I 16 W/m 10,3 C 11,9 C 1,6 km/h (1 Bft) 93,62 %
12.05.2017 06:00 11,8 C 16,1 C 91 % 1000,3 hPa 0,0 l/m 0,0 km/h (0 Bft) W 272 0 min 0,000 mm 0,0 UV-I 16 W/m 10,4 C 11,8 C 0,0 km/h (0 Bft) 94,34 %
12.05.2017 06:02 11,8 C 16,1 C 91 % 1000,4 hPa 0,0 l/m 1,3 km/h (1 Bft) W 272 0 min 0,000 mm 0,0 UV-I 16 W/m 10,4 C 11,8 C 3,2 km/h (1 Bft) 95,74 %
12.05.2017 06:04 11,8 C 16,1 C 91 % 1000,3 hPa 0,0 l/m 0,4 km/h (0 Bft) W 272 0 min 0,000 mm 0,0 UV-I 18 W/m 10,4 C 11,8 C 1,6 km/h (1 Bft) 94,44 %
12.05.2017 06:06 11,8 C 16,1 C 91 % 1000,4 hPa 0,0 l/m 1,5 km/h (1 Bft) W 272 0 min 0,000 mm 0,0 UV-I 18 W/m 10,4 C 11,8 C 4,8 km/h (1 Bft) 92,11 %
12.05.2017 06:08 11,8 C 16,1 C 91 % 1000,5 hPa 0,0 l/m 2,4 km/h (1 Bft) W 272 0 min 0,000 mm 0,0 UV-I 18 W/m 10,4 C 11,8 C 4,8 km/h (1 Bft) 90,32 %
12.05.2017 06:10 11,8 C 16,1 C 92 % 1000,5 hPa 0,0 l/m 0,9 km/h (0 Bft) W 272 0 min 0,000 mm 0,0 UV-I 18 W/m 10,5 C 11,8 C 3,2 km/h (1 Bft) 95,74 %
12.05.2017 06:12 11,9 C 16,1 C 92 % 1000,5 hPa 0,0 l/m 1,5 km/h (1 Bft) W 272 0 min 0,000 mm 0,0 UV-I 18 W/m 10,6 C 11,9 C 4,8 km/h (1 Bft) 93,62 %
12.05.2017 06:14 11,9 C 16,1 C 92 % 1000,6 hPa 0,0 l/m 2,0 km/h (1 Bft) W 272 0 min 0,000 mm 0,0 UV-I 18 W/m 10,6 C 11,9 C 4,8 km/h (1 Bft) 90,00 %
12.05.2017 06:16 11,9 C 16,1 C 92 % 1000,5 hPa 0,0 l/m 0,5 km/h (0 Bft) W 272 0 min 0,000 mm 0,0 UV-I 19 W/m 10,6 C 11,9 C 1,6 km/h (1 Bft) 93,62 %
12.05.2017 06:18 12,0 C 16,1 C 92 % 1000,6 hPa 0,0 l/m 0,0 km/h (0 Bft) W 272 0 min 0,000 mm 0,0 UV-I 20 W/m 10,7 C 12,0 C 0,0 km/h (0 Bft) 95,74 %
12.05.2017 06:20 11,9 C 16,1 C 91 % 1000,6 hPa 0,0 l/m 0,0 km/h (0 Bft) W 272 0 min 0,000 mm 0,0 UV-I 22 W/m 10,5 C 11,9 C 0,0 km/h (0 Bft) 95,12 %
12.05.2017 06:22 11,9 C 16,1 C 92 % 1000,5 hPa 0,0 l/m 0,0 km/h (0 Bft) W 272 0 min 0,000 mm 0,0 UV-I 24 W/m 10,6 C 11,9 C 0,0 km/h (0 Bft) 96,00 %
12.05.2017 06:24 12,0 C 16,1 C 92 % 1000,6 hPa 0,0 l/m 0,0 km/h (0 Bft) W 272 0 min 0,000 mm 0,0 UV-I 26 W/m 10,7 C 12,0 C 0,0 km/h (0 Bft) 91,49 %
12.05.2017 06:26 12,0 C 16,1 C 92 % 1000,6 hPa 0,0 l/m 0,9 km/h (0 Bft) W 272 0 min 0,000 mm 0,0 UV-I 29 W/m 10,7 C 12,0 C 3,2 km/h (1 Bft) 92,00 %
12.05.2017 06:28 12,1 C 16,1 C 92 % 1000,6 hPa 0,0 l/m 0,0 km/h (0 Bft) W 272 0 min 0,000 mm 0,0 UV-I 32 W/m 10,8 C 12,1 C 0,0 km/h (0 Bft) 89,36 %
12.05.2017 06:30 12,2 C 16,1 C 92 % 1000,7 hPa 0,0 l/m 0,4 km/h (0 Bft) W 272 0 min 0,000 mm 0,0 UV-I 36 W/m 10,9 C 12,2 C 1,6 km/h (1 Bft) 97,56 %
12.05.2017 06:32 12,2 C 16,1 C 92 % 1000,6 hPa 0,0 l/m 0,0 km/h (0 Bft) W 272 0 min 0,000 mm 0,0 UV-I 39 W/m 10,9 C 12,2 C 1,6 km/h (1 Bft) 92,00 %
12.05.2017 06:34 12,2 C 16,1 C 92 % 1000,6 hPa 0,0 l/m 1,5 km/h (1 Bft) W 272 0 min 0,000 mm 0,0 UV-I 40 W/m 10,9 C 12,2 C 3,2 km/h (1 Bft) 95,74 %
12.05.2017 06:36 12,2 C 16,1 C 92 % 1000,6 hPa 0,0 l/m 2,7 km/h (1 Bft) N-NO 13 0 min 0,000 mm 0,0 UV-I 42 W/m 10,9 C 12,2 C 4,8 km/h (1 Bft) 97,37 %
12.05.2017 06:38 12,2 C 16,1 C 92 % 1000,6 hPa 0,0 l/m 2,5 km/h (1 Bft) S-SO 167 0 min 0,000 mm 0,0 UV-I 42 W/m 10,9 C 12,2 C 4,8 km/h (1 Bft) 97,87 %
12.05.2017 06:40 12,2 C 16,1 C 92 % 1000,6 hPa 0,0 l/m 3,9 km/h (1 Bft) S-SO 161 0 min 0,000 mm 0,0 UV-I 43 W/m 10,9 C 12,2 C 6,4 km/h (2 Bft) 98,11 %
12.05.2017 06:42 12,2 C 16,1 C 92 % 1000,6 hPa 0,0 l/m 5,2 km/h (1 Bft) S-SO 165 0 min 0,000 mm 0,0 UV-I 45 W/m 10,9 C 12,2 C 8,0 km/h (2 Bft) 87,18 %
12.05.2017 06:44 12,3 C 16,1 C 92 % 1000,7 hPa 0,0 l/m 5,3 km/h (1 Bft) S-SW 194 0 min 0,000 mm 0,0 UV-I 48 W/m 11,0 C 12,3 C 9,7 km/h (2 Bft) 96,15 %
12.05.2017 06:46 12,4 C 16,1 C 92 % 1000,7 hPa 0,0 l/m 7,4 km/h (2 Bft) S-SW 208 0 min 0,000 mm 0,0 UV-I 49 W/m 11,1 C 11,7 C 9,7 km/h (2 Bft) 96,23 %
12.05.2017 06:48 12,4 C 16,1 C 91 % 1000,8 hPa 0,0 l/m 9,2 km/h (2 Bft) S-SW 213 0 min 0,000 mm 0,0 UV-I 49 W/m 11,0 C 10,7 C 12,9 km/h (3 Bft) 100,00 %
12.05.2017 06:50 12,5 C 16,1 C 91 % 1000,9 hPa 0,0 l/m 8,6 km/h (2 Bft) W-SW 250 0 min 0,000 mm 0,0 UV-I 51 W/m 11,1 C 11,1 C 12,9 km/h (3 Bft) 98,11 %
12.05.2017 06:52 12,6 C 16,1 C 91 % 1000,9 hPa 0,0 l/m 7,2 km/h (2 Bft) SW 228 0 min 0,000 mm 0,0 UV-I 53 W/m 11,2 C 12,1 C 9,7 km/h (2 Bft) 95,74 %
12.05.2017 06:54 12,6 C 16,1 C 90 % 1000,9 hPa 0,0 l/m 8,2 km/h (2 Bft) SW 221 0 min 0,000 mm 0,0 UV-I 53 W/m 11,0 C 11,5 C 14,5 km/h (3 Bft) 94,74 %
12.05.2017 06:56 12,7 C 16,1 C 89 % 1001,0 hPa 0,0 l/m 10,4 km/h (2 Bft) SW 223 0 min 0,000 mm 0,0 UV-I 47 W/m 10,9 C 10,4 C 14,5 km/h (3 Bft) 94,64 %
12.05.2017 06:58 12,7 C 16,1 C 89 % 1001,0 hPa 0,0 l/m 10,4 km/h (2 Bft) SW 228 0 min 0,000 mm 0,0 UV-I 41 W/m 10,9 C 10,4 C 16,1 km/h (3 Bft) 96,15 %
12.05.2017 07:00 12,8 C 16,1 C 88 % 1001,0 hPa 0,0 l/m 8,2 km/h (2 Bft) SW 217 0 min 0,025 mm 0,0 UV-I 35 W/m 10,9 C 11,7 C 14,5 km/h (3 Bft) 97,06 %
12.05.2017 07:02 12,9 C 16,1 C 87 % 1001,0 hPa 0,0 l/m 8,2 km/h (2 Bft) W-SW 244 0 min 0,000 mm 0,0 UV-I 33 W/m 10,8 C 11,8 C 14,5 km/h (3 Bft) 92,68 %
12.05.2017 07:04 13,0 C 16,1 C 87 % 1001,0 hPa 0,0 l/m 6,3 km/h (2 Bft) SW 226 0 min 0,000 mm 0,0 UV-I 33 W/m 10,9 C 13,0 C 9,7 km/h (2 Bft) 98,00 %
12.05.2017 07:06 13,1 C 16,1 C 86 % 1001,0 hPa 0,0 l/m 6,5 km/h (2 Bft) W 261 0 min 0,000 mm 0,0 UV-I 35 W/m 10,8 C 13,1 C 9,7 km/h (2 Bft) 100,00 %
12.05.2017 07:08 13,2 C 16,1 C 85 % 1001,1 hPa 0,0 l/m 5,7 km/h (1 Bft) W 266 0 min 0,000 mm 0,0 UV-I 39 W/m 10,7 C 13,2 C 8,0 km/h (2 Bft) 93,18 %
12.05.2017 07:10 13,2 C 16,1 C 86 % 1001,2 hPa 0,0 l/m 2,1 km/h (1 Bft) W 265 0 min 0,000 mm 0,0 UV-I 42 W/m 10,9 C 13,2 C 6,4 km/h (2 Bft) 92,45 %
12.05.2017 07:12 13,1 C 16,1 C 87 % 1001,3 hPa 0,2 l/m 2,1 km/h (1 Bft) W 267 0 min 0,000 mm 0,0 UV-I 46 W/m 11,0 C 13,1 C 4,8 km/h (1 Bft) 95,74 %
12.05.2017 07:14 12,9 C 16,1 C 88 % 1001,3 hPa 0,0 l/m 1,8 km/h (1 Bft) W 267 0 min 0,000 mm 0,0 UV-I 50 W/m 11,0 C 12,9 C 4,8 km/h (1 Bft) 97,56 %
12.05.2017 07:16 12,8 C 16,1 C 89 % 1001,4 hPa 0,0 l/m 4,5 km/h (1 Bft) W 266 0 min 0,000 mm 0,0 UV-I 58 W/m 11,0 C 12,8 C 6,4 km/h (2 Bft) 97,87 %
12.05.2017 07:18 12,8 C 16,1 C 88 % 1001,4 hPa 0,0 l/m 4,7 km/h (1 Bft) W 261 0 min 0,000 mm 0,0 UV-I 65 W/m 10,9 C 12,8 C 6,4 km/h (2 Bft) 100,00 %
12.05.2017 07:20 13,0 C 16,1 C 87 % 1001,5 hPa 0,0 l/m 5,4 km/h (1 Bft) W 259 0 min 0,000 mm 0,0 UV-I 66 W/m 10,9 C 13,0 C 9,7 km/h (2 Bft) 100,00 %
12.05.2017 07:22 13,1 C 16,1 C 87 % 1001,5 hPa 0,0 l/m 7,3 km/h (2 Bft) W 261 0 min 0,000 mm 0,0 UV-I 61 W/m 11,0 C 12,5 C 11,3 km/h (2 Bft) 94,00 %
12.05.2017 07:24 13,2 C 16,1 C 86 % 1001,6 hPa 0,0 l/m 7,3 km/h (2 Bft) W-SW 255 0 min 0,000 mm 0,0 UV-I 56 W/m 10,9 C 12,6 C 9,7 km/h (2 Bft) 92,00 %
12.05.2017 07:26 13,3 C 16,1 C 86 % 1001,7 hPa 0,0 l/m 7,8 km/h (2 Bft) W-SW 249 0 min 0,000 mm 0,0 UV-I 53 W/m 11,0 C 12,4 C 12,9 km/h (3 Bft) 90,00 %
12.05.2017 07:28 13,3 C 16,1 C 85 % 1001,7 hPa 0,0 l/m 8,5 km/h (2 Bft) W-SW 242 0 min 0,000 mm 0,0 UV-I 50 W/m 10,8 C 12,0 C 14,5 km/h (3 Bft) 97,62 %
12.05.2017 07:30 13,4 C 16,1 C 85 % 1001,7 hPa 0,0 l/m 8,3 km/h (2 Bft) W-SW 244 0 min 0,000 mm 0,0 UV-I 49 W/m 10,9 C 12,2 C 14,5 km/h (3 Bft) 100,00 %
12.05.2017 07:32 13,4 C 16,1 C 86 % 1001,8 hPa 0,0 l/m 8,0 km/h (2 Bft) SW 228 0 min 0,000 mm 0,0 UV-I 47 W/m 11,1 C 12,4 C 12,9 km/h (3 Bft) 97,62 %
12.05.2017 07:34 13,4 C 16,1 C 86 % 1001,8 hPa 0,0 l/m 8,3 km/h (2 Bft) W-SW 244 0 min 0,000 mm 0,0 UV-I 47 W/m 11,1 C 12,2 C 11,3 km/h (2 Bft) 100,00 %
12.05.2017 07:36 13,3 C 16,1 C 86 % 1001,8 hPa 0,0 l/m 9,0 km/h (2 Bft) SW 231 0 min 0,000 mm 0,0 UV-I 47 W/m 11,0 C 11,8 C 14,5 km/h (3 Bft) 100,00 %
12.05.2017 07:38 13,3 C 16,1 C 86 % 1001,9 hPa 0,0 l/m 9,4 km/h (2 Bft) SW 229 0 min 0,000 mm 0,0 UV-I 47 W/m 11,0 C 11,5 C 14,5 km/h (3 Bft) 92,11 %
12.05.2017 07:40 13,3 C 16,1 C 85 % 1001,8 hPa 0,0 l/m 10,2 km/h (2 Bft) W-SW 250 0 min 0,000 mm 0,0 UV-I 46 W/m 10,8 C 11,1 C 16,1 km/h (3 Bft) 97,87 %
12.05.2017 07:42 13,3 C 16,1 C 85 % 1001,9 hPa 0,0 l/m 10,3 km/h (2 Bft) W-SW 242 0 min 0,000 mm 0,0 UV-I 46 W/m 10,8 C 11,1 C 16,1 km/h (3 Bft) 96,00 %
12.05.2017 07:44 13,3 C 16,1 C 86 % 1001,9 hPa 0,0 l/m 12,2 km/h (2 Bft) S-SW 211 0 min 0,000 mm 0,0 UV-I 46 W/m 11,0 C 10,2 C 17,7 km/h (3 Bft) 97,56 %
12.05.2017 07:46 13,3 C 16,1 C 86 % 1001,9 hPa 0,2 l/m 11,3 km/h (2 Bft) SW 226 0 min 0,000 mm 0,0 UV-I 47 W/m 11,0 C 10,6 C 16,1 km/h (3 Bft) 100,00 %
12.05.2017 07:48 13,3 C 16,1 C 86 % 1001,9 hPa 0,0 l/m 11,4 km/h (2 Bft) SW 221 0 min 0,000 mm 0,0 UV-I 50 W/m 11,0 C 10,6 C 14,5 km/h (3 Bft) 100,00 %
12.05.2017 07:50 13,3 C 16,1 C 86 % 1001,9 hPa 0,0 l/m 10,1 km/h (2 Bft) S-SW 203 0 min 0,000 mm 0,0 UV-I 53 W/m 11,0 C 11,2 C 16,1 km/h (3 Bft) 97,87 %
12.05.2017 07:52 13,3 C 16,1 C 86 % 1002,0 hPa 0,2 l/m 11,4 km/h (2 Bft) W-SW 244 0 min 0,000 mm 0,0 UV-I 56 W/m 11,0 C 10,6 C 17,7 km/h (3 Bft) 100,00 %
12.05.2017 07:54 13,3 C 16,1 C 86 % 1002,0 hPa 0,0 l/m 11,8 km/h (2 Bft) SW 214 0 min 0,000 mm 0,0 UV-I 60 W/m 11,0 C 10,4 C 17,7 km/h (3 Bft) 100,00 %
12.05.2017 07:56 13,3 C 16,1 C 86 % 1002,0 hPa 0,0 l/m 12,6 km/h (3 Bft) S-SW 204 0 min 0,000 mm 0,0 UV-I 62 W/m 11,0 C 10,1 C 17,7 km/h (3 Bft) 96,00 %
12.05.2017 07:58 13,3 C 16,1 C 86 % 1002,0 hPa 0,0 l/m 13,9 km/h (3 Bft) S-SW 213 0 min 0,000 mm 0,0 UV-I 64 W/m 11,0 C 9,5 C 20,9 km/h (4 Bft) 93,62 %
12.05.2017 08:00 13,3 C 16,1 C 85 % 1002,0 hPa 0,0 l/m 14,9 km/h (3 Bft) S-SW 205 0 min 0,051 mm 0,0 UV-I 64 W/m 10,8 C 9,2 C 22,5 km/h (4 Bft) 95,12 %
12.05.2017 08:02 13,3 C 16,1 C 85 % 1002,1 hPa 0,2 l/m 12,8 km/h (3 Bft) W-SW 246 0 min 0,000 mm 0,0 UV-I 63 W/m 10,8 C 10,0 C 20,9 km/h (4 Bft) 98,00 %
12.05.2017 08:04 13,4 C 16,1 C 85 % 1002,1 hPa 0,0 l/m 13,6 km/h (3 Bft) SW 217 0 min 0,000 mm 0,0 UV-I 62 W/m 10,9 C 9,8 C 19,3 km/h (3 Bft) 96,00 %
12.05.2017 08:06 13,4 C 16,1 C 85 % 1002,1 hPa 0,0 l/m 13,0 km/h (3 Bft) SW 236 0 min 0,000 mm 0,0 UV-I 62 W/m 10,9 C 10,0 C 20,9 km/h (4 Bft) 97,22 %
12.05.2017 08:08 13,4 C 16,1 C 85 % 1002,2 hPa 0,0 l/m 13,9 km/h (3 Bft) SW 229 0 min 0,000 mm 0,0 UV-I 60 W/m 10,9 C 9,7 C 20,9 km/h (4 Bft) 96,23 %
12.05.2017 08:10 13,4 C 16,1 C 85 % 1002,2 hPa 0,2 l/m 15,5 km/h (3 Bft) S-SW 208 0 min 0,000 mm 0,0 UV-I 61 W/m 10,9 C 9,1 C 27,4 km/h (4 Bft) 95,45 %
12.05.2017 08:12 13,4 C 16,1 C 85 % 1002,2 hPa 0,0 l/m 16,3 km/h (3 Bft) S 188 0 min 0,000 mm 0,0 UV-I 63 W/m 10,9 C 8,8 C 24,1 km/h (4 Bft) 97,87 %
12.05.2017 08:14 13,4 C 16,1 C 85 % 1002,3 hPa 0,0 l/m 17,5 km/h (3 Bft) SW 236 0 min 0,000 mm 0,0 UV-I 66 W/m 10,9 C 8,4 C 32,2 km/h (5 Bft) 97,73 %
12.05.2017 08:16 13,3 C 16,1 C 85 % 1002,3 hPa 0,0 l/m 18,5 km/h (3 Bft) W-SW 241 0 min 0,000 mm 0,0 UV-I 70 W/m 10,8 C 8,0 C 29,0 km/h (5 Bft) 96,23 %
12.05.2017 08:18 13,3 C 16,1 C 85 % 1002,3 hPa 0,0 l/m 16,4 km/h (3 Bft) S 186 0 min 0,000 mm 0,0 UV-I 74 W/m 10,8 C 8,6 C 27,4 km/h (4 Bft) 95,12 %
12.05.2017 08:20 13,3 C 16,1 C 86 % 1002,3 hPa 0,2 l/m 18,1 km/h (3 Bft) S-SW 208 0 min 0,000 mm 0,0 UV-I 81 W/m 11,0 C 8,1 C 25,7 km/h (4 Bft) 95,12 %
12.05.2017 08:22 13,2 C 16,1 C 86 % 1002,4 hPa 0,0 l/m 16,4 km/h (3 Bft) S 184 0 min 0,000 mm 0,0 UV-I 86 W/m 10,9 C 8,5 C 24,1 km/h (4 Bft) 98,46 %
12.05.2017 08:24 13,2 C 16,1 C 86 % 1002,4 hPa 0,0 l/m 20,2 km/h (4 Bft) S-SW 208 0 min 0,000 mm 0,0 UV-I 90 W/m 10,9 C 7,4 C 27,4 km/h (4 Bft) 94,29 %
12.05.2017 08:26 13,2 C 16,1 C 87 % 1002,4 hPa 0,0 l/m 14,4 km/h (3 Bft) SW 234 0 min 0,000 mm 0,0 UV-I 89 W/m 11,1 C 9,2 C 20,9 km/h (4 Bft) 97,73 %
12.05.2017 08:28 13,2 C 16,1 C 87 % 1002,4 hPa 0,0 l/m 13,5 km/h (3 Bft) W-SW 237 0 min 0,000 mm 0,0 UV-I 83 W/m 11,1 C 9,6 C 22,5 km/h (4 Bft) 96,23 %
12.05.2017 08:30 13,2 C 16,1 C 87 % 1002,5 hPa 0,2 l/m 17,3 km/h (3 Bft) S-SO 156 0 min 0,000 mm 0,0 UV-I 80 W/m 11,1 C 8,2 C 25,7 km/h (4 Bft) 92,45 %
12.05.2017 08:32 13,2 C 16,1 C 87 % 1002,5 hPa 0,0 l/m 16,4 km/h (3 Bft) SW 227 0 min 0,000 mm 0,0 UV-I 79 W/m 11,1 C 8,5 C 24,1 km/h (4 Bft) 97,56 %
12.05.2017 08:34 13,2 C 16,1 C 87 % 1002,5 hPa 0,0 l/m 12,9 km/h (3 Bft) SW 229 0 min 0,000 mm 0,0 UV-I 82 W/m 11,1 C 9,8 C 24,1 km/h (4 Bft) 100,00 %
12.05.2017 08:36 13,2 C 16,1 C 87 % 1002,5 hPa 0,0 l/m 13,6 km/h (3 Bft) S 184 0 min 0,000 mm 0,0 UV-I 86 W/m 11,1 C 9,5 C 19,3 km/h (3 Bft) 98,00 %
12.05.2017 08:38 13,2 C 16,1 C 87 % 1002,5 hPa 0,0 l/m 15,1 km/h (3 Bft) SW 215 0 min 0,000 mm 0,0 UV-I 90 W/m 11,1 C 9,0 C 27,4 km/h (4 Bft) 100,00 %
12.05.2017 08:40 13,2 C 16,1 C 87 % 1002,5 hPa 0,0 l/m 16,5 km/h (3 Bft) SW 229 0 min 0,000 mm 0,0 UV-I 93 W/m 11,1 C 8,5 C 27,4 km/h (4 Bft) 95,12 %
12.05.2017 08:42 13,2 C 16,1 C 87 % 1002,5 hPa 0,0 l/m 16,3 km/h (3 Bft) S 177 0 min 0,000 mm 0,0 UV-I 91 W/m 11,1 C 8,6 C 27,4 km/h (4 Bft) 96,23 %
12.05.2017 08:44 13,2 C 16,1 C 87 % 1002,6 hPa 0,0 l/m 19,8 km/h (3 Bft) S-SW 211 0 min 0,000 mm 0,0 UV-I 90 W/m 11,1 C 7,5 C 29,0 km/h (5 Bft) 100,00 %
12.05.2017 08:46 13,2 C 16,1 C 86 % 1002,8 hPa 0,0 l/m 19,6 km/h (3 Bft) W-SW 254 0 min 0,000 mm 0,0 UV-I 91 W/m 10,9 C 7,5 C 29,0 km/h (5 Bft) 98,18 %
12.05.2017 08:48 13,2 C 16,1 C 87 % 1002,9 hPa 0,0 l/m 18,2 km/h (3 Bft) W-SW 255 0 min 0,000 mm 0,0 UV-I 94 W/m 11,1 C 7,9 C 24,1 km/h (4 Bft) 98,00 %
12.05.2017 08:50 13,2 C 16,1 C 87 % 1003,0 hPa 0,2 l/m 15,6 km/h (3 Bft) W 267 0 min 0,000 mm 0,0 UV-I 102 W/m 11,1 C 8,8 C 24,1 km/h (4 Bft) 97,22 %
12.05.2017 08:52 13,2 C 16,1 C 88 % 1003,1 hPa 0,0 l/m 14,1 km/h (3 Bft) W-SW 256 0 min 0,000 mm 0,1 UV-I 113 W/m 11,3 C 9,3 C 25,7 km/h (4 Bft) 100,00 %
12.05.2017 08:54 13,1 C 16,1 C 88 % 1003,1 hPa 0,0 l/m 16,6 km/h (3 Bft) W-SW 237 0 min 0,000 mm 0,5 UV-I 124 W/m 11,2 C 8,3 C 24,1 km/h (4 Bft) 94,74 %
12.05.2017 08:56 13,1 C 16,1 C 89 % 1003,2 hPa 0,0 l/m 13,8 km/h (3 Bft) W-SW 238 0 min 0,000 mm 0,5 UV-I 134 W/m 11,3 C 9,3 C 20,9 km/h (4 Bft) 98,21 %
12.05.2017 08:58 13,1 C 16,1 C 88 % 1003,3 hPa 0,0 l/m 14,6 km/h (3 Bft) SW 221 0 min 0,000 mm 0,6 UV-I 141 W/m 11,2 C 9,0 C 20,9 km/h (4 Bft) 100,00 %
12.05.2017 09:00 13,1 C 16,1 C 88 % 1003,3 hPa 0,0 l/m 16,3 km/h (3 Bft) SW 234 0 min 0,076 mm 0,6 UV-I 143 W/m 11,2 C 8,4 C 29,0 km/h (5 Bft) 100,00 %
12.05.2017 09:02 13,2 C 16,1 C 88 % 1003,3 hPa 0,0 l/m 15,4 km/h (3 Bft) W-SW 237 0 min 0,000 mm 0,6 UV-I 147 W/m 11,3 C 8,9 C 20,9 km/h (4 Bft) 97,87 %
12.05.2017 09:04 13,2 C 16,1 C 88 % 1003,3 hPa 0,0 l/m 17,0 km/h (3 Bft) W-SW 238 0 min 0,000 mm 0,6 UV-I 151 W/m 11,3 C 8,3 C 27,4 km/h (4 Bft) 96,00 %
12.05.2017 09:06 13,2 C 16,1 C 88 % 1003,3 hPa 0,0 l/m 20,9 km/h (4 Bft) W 263 0 min 0,000 mm 0,6 UV-I 155 W/m 11,3 C 7,2 C 25,7 km/h (4 Bft) 95,74 %
12.05.2017 09:08 13,2 C 16,1 C 88 % 1003,4 hPa 0,0 l/m 18,1 km/h (3 Bft) SW 234 0 min 0,000 mm 0,6 UV-I 157 W/m 11,3 C 8,0 C 30,6 km/h (5 Bft) 95,74 %
12.05.2017 09:10 13,2 C 16,1 C 88 % 1003,5 hPa 0,0 l/m 15,9 km/h (3 Bft) SW 235 0 min 0,000 mm 0,6 UV-I 159 W/m 11,3 C 8,7 C 24,1 km/h (4 Bft) 97,87 %
12.05.2017 09:12 13,2 C 16,1 C 88 % 1003,5 hPa 0,0 l/m 21,6 km/h (4 Bft) W 259 0 min 0,000 mm 0,6 UV-I 160 W/m 11,3 C 7,0 C 30,6 km/h (5 Bft) 100,00 %
12.05.2017 09:14 13,1 C 16,1 C 88 % 1003,6 hPa 0,2 l/m 21,6 km/h (4 Bft) W-SW 258 0 min 0,000 mm 0,6 UV-I 160 W/m 11,2 C 6,9 C 32,2 km/h (5 Bft) 97,87 %
12.05.2017 09:16 13,1 C 16,1 C 89 % 1003,6 hPa 0,0 l/m 16,1 km/h (3 Bft) W-SW 242 0 min 0,000 mm 0,6 UV-I 162 W/m 11,3 C 8,5 C 24,1 km/h (4 Bft) 98,00 %
12.05.2017 09:18 13,1 C 16,1 C 89 % 1003,7 hPa 0,0 l/m 18,7 km/h (3 Bft) W-SW 257 0 min 0,000 mm 0,7 UV-I 166 W/m 11,3 C 7,7 C 25,7 km/h (4 Bft) 100,00 %
12.05.2017 09:20 13,1 C 16,1 C 89 % 1003,7 hPa 0,0 l/m 20,1 km/h (4 Bft) SW 234 0 min 0,000 mm 0,7 UV-I 173 W/m 11,3 C 7,3 C 29,0 km/h (5 Bft) 97,22 %
12.05.2017 09:23 13,1 C 16,1 C 89 % 1003,8 hPa 0,0 l/m 19,0 km/h (3 Bft) W 268 0 min 0,000 mm 0,8 UV-I 185 W/m 11,3 C 7,6 C 30,6 km/h (5 Bft) 97,56 %
12.05.2017 09:24 13,1 C 16,1 C 89 % 1003,8 hPa 0,0 l/m 18,7 km/h (3 Bft) W-SW 243 0 min 0,000 mm 0,8 UV-I 190 W/m 11,3 C 7,7 C 22,5 km/h (4 Bft) 91,67 %
12.05.2017 09:26 13,1 C 16,1 C 89 % 1003,8 hPa 0,0 l/m 15,1 km/h (3 Bft) W 267 0 min 0,000 mm 0,8 UV-I 198 W/m 11,3 C 8,9 C 24,1 km/h (4 Bft) 96,00 %
12.05.2017 09:28 13,2 C 16,1 C 90 % 1003,8 hPa 0,0 l/m 15,9 km/h (3 Bft) W 278 0 min 0,000 mm 0,9 UV-I 203 W/m 11,6 C 8,7 C 24,1 km/h (4 Bft) 95,74 %
12.05.2017 09:30 13,2 C 16,1 C 89 % 1003,8 hPa 0,0 l/m 19,3 km/h (3 Bft) W-SW 244 0 min 0,000 mm 0,9 UV-I 207 W/m 11,4 C 7,6 C 25,7 km/h (4 Bft) 90,00 %
12.05.2017 09:32 13,3 C 16,1 C 89 % 1003,9 hPa 0,0 l/m 16,7 km/h (3 Bft) W-SW 246 0 min 0,000 mm 0,9 UV-I 217 W/m 11,5 C 8,5 C 20,9 km/h (4 Bft) 97,87 %
12.05.2017 09:34 13,3 C 16,1 C 89 % 1003,9 hPa 0,0 l/m 17,2 km/h (3 Bft) W-NW 282 0 min 0,000 mm 1,0 UV-I 227 W/m 11,5 C 8,4 C 24,1 km/h (4 Bft) 97,87 %
12.05.2017 09:36 13,3 C 16,1 C 89 % 1004,0 hPa 0,0 l/m 20,0 km/h (4 Bft) SW 232 0 min 0,000 mm 1,0 UV-I 229 W/m 11,5 C 7,6 C 30,6 km/h (5 Bft) 98,00 %
12.05.2017 09:38 13,4 C 16,1 C 89 % 1004,0 hPa 0,0 l/m 15,8 km/h (3 Bft) W-SW 257 0 min 0,000 mm 0,9 UV-I 224 W/m 11,6 C 9,0 C 25,7 km/h (4 Bft) 97,87 %
12.05.2017 09:40 13,4 C 16,1 C 89 % 1004,0 hPa 0,0 l/m 16,7 km/h (3 Bft) W-SW 246 0 min 0,000 mm 0,9 UV-I 216 W/m 11,6 C 8,7 C 24,1 km/h (4 Bft) 95,74 %
12.05.2017 09:42 13,4 C 16,1 C 89 % 1004,0 hPa 0,0 l/m 16,4 km/h (3 Bft) W-SW 248 0 min 0,000 mm 0,9 UV-I 207 W/m 11,6 C 8,8 C 25,7 km/h (4 Bft) 97,22 %
12.05.2017 09:44 13,4 C 16,1 C 89 % 1004,0 hPa 0,0 l/m 13,0 km/h (3 Bft) W-SW 244 0 min 0,000 mm 0,8 UV-I 193 W/m 11,6 C 10,0 C 17,7 km/h (3 Bft) 93,62 %
12.05.2017 09:46 13,4 C 16,1 C 89 % 1004,0 hPa 0,0 l/m 15,7 km/h (3 Bft) W-SW 244 0 min 0,000 mm 0,8 UV-I 182 W/m 11,6 C 9,0 C 24,1 km/h (4 Bft) 97,92 %
12.05.2017 09:48 13,4 C 16,1 C 89 % 1004,1 hPa 0,0 l/m 13,9 km/h (3 Bft) W 261 0 min 0,000 mm 0,8 UV-I 175 W/m 11,6 C 9,7 C 22,5 km/h (4 Bft) 95,74 %
12.05.2017 09:50 13,4 C 16,1 C 89 % 1004,1 hPa 0,0 l/m 15,1 km/h (3 Bft) SW 215 0 min 0,000 mm 0,9 UV-I 174 W/m 11,6 C 9,2 C 22,5 km/h (4 Bft) 95,74 %
12.05.2017 09:52 13,4 C 16,1 C 89 % 1004,1 hPa 0,0 l/m 19,7 km/h (3 Bft) W-SW 237 0 min 0,000 mm 0,9 UV-I 176 W/m 11,6 C 7,8 C 30,6 km/h (5 Bft) 95,74 %
12.05.2017 09:54 13,5 C 16,1 C 89 % 1004,0 hPa 0,0 l/m 18,2 km/h (3 Bft) W 264 0 min 0,000 mm 0,9 UV-I 183 W/m 11,7 C 8,3 C 25,7 km/h (4 Bft) 93,62 %
12.05.2017 09:56 13,5 C 16,1 C 89 % 1004,1 hPa 0,0 l/m 15,9 km/h (3 Bft) SW 219 0 min 0,000 mm 1,0 UV-I 189 W/m 11,7 C 9,1 C 24,1 km/h (4 Bft) 96,00 %
12.05.2017 09:58 13,6 C 16,1 C 89 % 1004,1 hPa 0,0 l/m 20,1 km/h (4 Bft) SW 222 0 min 0,000 mm 1,1 UV-I 199 W/m 11,8 C 7,9 C 32,2 km/h (5 Bft) 89,36 %
12.05.2017 10:00 13,6 C 16,1 C 89 % 1004,2 hPa 0,2 l/m 16,2 km/h (3 Bft) SW 223 0 min 0,127 mm 1,1 UV-I 206 W/m 11,8 C 9,1 C 27,4 km/h (4 Bft) 92,00 %
12.05.2017 10:02 13,6 C 16,1 C 89 % 1004,2 hPa 0,0 l/m 16,2 km/h (3 Bft) S-SW 210 0 min 0,000 mm 1,2 UV-I 219 W/m 11,8 C 9,1 C 25,7 km/h (4 Bft) 89,36 %
12.05.2017 10:04 13,7 C 16,1 C 89 % 1004,2 hPa 0,0 l/m 16,2 km/h (3 Bft) SW 231 0 min 0,000 mm 1,2 UV-I 231 W/m 11,9 C 9,2 C 25,7 km/h (4 Bft) 95,74 %
12.05.2017 10:06 13,7 C 16,1 C 89 % 1004,2 hPa 0,0 l/m 16,9 km/h (3 Bft) W-SW 258 0 min 0,000 mm 1,3 UV-I 247 W/m 11,9 C 9,0 C 25,7 km/h (4 Bft) 93,75 %
12.05.2017 10:08 13,8 C 16,1 C 89 % 1004,2 hPa 0,0 l/m 20,2 km/h (4 Bft) S-SW 198 0 min 0,000 mm 1,3 UV-I 262 W/m 12,0 C 8,1 C 30,6 km/h (5 Bft) 91,49 %
12.05.2017 10:10 13,9 C 16,1 C 88 % 1004,2 hPa 0,0 l/m 20,0 km/h (4 Bft) SW 233 0 min 0,000 mm 1,3 UV-I 270 W/m 11,9 C 8,3 C 32,2 km/h (5 Bft) 91,49 %
12.05.2017 10:12 13,9 C 16,1 C 88 % 1004,2 hPa 0,0 l/m 18,6 km/h (3 Bft) W-SW 248 0 min 0,000 mm 1,3 UV-I 266 W/m 11,9 C 8,7 C 30,6 km/h (5 Bft) 93,62 %
12.05.2017 10:14 14,0 C 16,1 C 88 % 1004,2 hPa 0,0 l/m 23,1 km/h (4 Bft) W-SW 239 0 min 0,000 mm 1,3 UV-I 267 W/m 12,0 C 7,7 C 32,2 km/h (5 Bft) 90,48 %
12.05.2017 10:16 14,1 C 16,1 C 88 % 1004,3 hPa 0,0 l/m 20,6 km/h (4 Bft) W-SW 238 0 min 0,000 mm 1,4 UV-I 271 W/m 12,1 C 8,4 C 32,2 km/h (5 Bft) 94,00 %
12.05.2017 10:18 14,1 C 16,1 C 88 % 1004,3 hPa 0,0 l/m 16,7 km/h (3 Bft) W-SW 242 0 min 0,000 mm 1,4 UV-I 274 W/m 12,1 C 9,5 C 24,1 km/h (4 Bft) 95,74 %
12.05.2017 10:20 14,1 C 16,1 C 88 % 1004,3 hPa 0,0 l/m 17,8 km/h (3 Bft) S-SW 202 0 min 0,000 mm 1,5 UV-I 276 W/m 12,1 C 9,2 C 27,4 km/h (4 Bft) 93,62 %
12.05.2017 10:22 14,2 C 16,1 C 88 % 1004,3 hPa 0,0 l/m 17,2 km/h (3 Bft) W-SW 242 0 min 0,000 mm 1,5 UV-I 282 W/m 12,2 C 9,5 C 25,7 km/h (4 Bft) 95,74 %
12.05.2017 10:24 14,2 C 16,1 C 87 % 1004,3 hPa 0,0 l/m 17,9 km/h (3 Bft) W-SW 238 0 min 0,000 mm 1,6 UV-I 293 W/m 12,1 C 9,3 C 29,0 km/h (5 Bft) 91,49 %
12.05.2017 10:26 14,2 C 16,1 C 87 % 1004,4 hPa 0,0 l/m 15,6 km/h (3 Bft) W-SW 247 0 min 0,000 mm 1,7 UV-I 313 W/m 12,1 C 10,0 C 22,5 km/h (4 Bft) 95,74 %
12.05.2017 10:28 14,3 C 16,1 C 88 % 1004,4 hPa 0,0 l/m 16,2 km/h (3 Bft) S-SW 197 0 min 0,000 mm 1,7 UV-I 325 W/m 12,3 C 9,9 C 25,7 km/h (4 Bft) 91,43 %
12.05.2017 10:30 14,3 C 16,1 C 88 % 1004,4 hPa 0,0 l/m 18,5 km/h (3 Bft) W-SW 257 0 min 0,000 mm 1,7 UV-I 323 W/m 12,3 C 9,3 C 25,7 km/h (4 Bft) 94,00 %
12.05.2017 10:32 14,4 C 16,1 C 87 % 1004,4 hPa 0,0 l/m 18,1 km/h (3 Bft) W 277 0 min 0,000 mm 1,6 UV-I 315 W/m 12,3 C 9,5 C 30,6 km/h (5 Bft) 93,62 %
12.05.2017 10:34 14,4 C 16,1 C 87 % 1004,4 hPa 0,0 l/m 16,8 km/h (3 Bft) S-SW 212 0 min 0,000 mm 1,7 UV-I 315 W/m 12,3 C 9,9 C 27,4 km/h (4 Bft) 92,00 %
12.05.2017 10:36 14,5 C 16,1 C 86 % 1004,4 hPa 0,0 l/m 19,8 km/h (3 Bft) W-SW 253 0 min 0,000 mm 1,7 UV-I 317 W/m 12,2 C 9,2 C 27,4 km/h (4 Bft) 100,00 %
12.05.2017 10:38 14,5 C 16,1 C 86 % 1004,4 hPa 0,0 l/m 20,1 km/h (4 Bft) W-SW 246 0 min 0,000 mm 1,7 UV-I 322 W/m 12,2 C 9,1 C 30,6 km/h (5 Bft) 97,87 %
12.05.2017 10:40 14,6 C 16,1 C 87 % 1004,4 hPa 0,0 l/m 12,4 km/h (3 Bft) S 184 0 min 0,000 mm 1,8 UV-I 326 W/m 12,5 C 11,7 C 22,5 km/h (4 Bft) 100,00 %
12.05.2017 10:42 14,7 C 16,1 C 87 % 1004,4 hPa 0,0 l/m 14,2 km/h (3 Bft) S-SW 202 0 min 0,000 mm 1,8 UV-I 330 W/m 12,6 C 11,1 C 25,7 km/h (4 Bft) 97,44 %
12.05.2017 10:44 14,7 C 16,1 C 87 % 1004,4 hPa 0,0 l/m 16,2 km/h (3 Bft) SW 226 0 min 0,000 mm 1,9 UV-I 341 W/m 12,6 C 10,4 C 22,5 km/h (4 Bft) 100,00 %
12.05.2017 10:46 14,7 C 16,1 C 87 % 1004,5 hPa 0,0 l/m 15,9 km/h (3 Bft) S-SW 207 0 min 0,000 mm 2,0 UV-I 358 W/m 12,6 C 10,5 C 22,5 km/h (4 Bft) 96,00 %
12.05.2017 10:48 14,8 C 16,1 C 86 % 1004,5 hPa 0,0 l/m 17,0 km/h (3 Bft) SW 230 0 min 0,000 mm 2,2 UV-I 380 W/m 12,5 C 10,3 C 27,4 km/h (4 Bft) 97,87 %
12.05.2017 10:50 14,8 C 16,1 C 86 % 1004,5 hPa 0,0 l/m 18,1 km/h (3 Bft) W-SW 250 0 min 0,000 mm 2,4 UV-I 416 W/m 12,5 C 10,0 C 25,7 km/h (4 Bft) 97,87 %
12.05.2017 10:52 14,9 C 16,1 C 86 % 1004,5 hPa 0,0 l/m 19,6 km/h (3 Bft) SW 236 2 min 0,000 mm 2,8 UV-I 515 W/m 12,6 C 9,7 C 33,8 km/h (5 Bft) 97,37 %
12.05.2017 10:54 15,1 C 16,1 C 87 % 1004,5 hPa 0,0 l/m 15,4 km/h (3 Bft) W-SW 238 2 min 0,000 mm 2,6 UV-I 520 W/m 13,0 C 11,2 C 22,5 km/h (4 Bft) 97,92 %
12.05.2017 10:56 15,2 C 16,1 C 86 % 1004,5 hPa 0,0 l/m 14,1 km/h (3 Bft) S-SW 196 2 min 0,000 mm 2,6 UV-I 505 W/m 12,9 C 11,7 C 20,9 km/h (4 Bft) 95,74 %
12.05.2017 10:58 15,3 C 16,1 C 85 % 1004,6 hPa 0,0 l/m 15,9 km/h (3 Bft) W-SW 238 2 min 0,000 mm 2,6 UV-I 525 W/m 12,8 C 11,3 C 29,0 km/h (5 Bft) 98,00 %
12.05.2017 11:00 15,3 C 16,1 C 86 % 1004,6 hPa 0,0 l/m 12,2 km/h (2 Bft) SW 225 2 min 0,204 mm 2,5 UV-I 466 W/m 13,0 C 12,5 C 27,4 km/h (4 Bft) 100,00 %
12.05.2017 11:02 15,3 C 16,1 C 84 % 1004,5 hPa 0,0 l/m 19,7 km/h (3 Bft) SW 227 2 min 0,000 mm 2,4 UV-I 436 W/m 12,6 C 10,2 C 30,6 km/h (5 Bft) 97,87 %
12.05.2017 11:04 15,2 C 16,1 C 84 % 1004,6 hPa 0,0 l/m 19,3 km/h (3 Bft) W-SW 243 0 min 0,000 mm 2,4 UV-I 407 W/m 12,5 C 10,2 C 27,4 km/h (4 Bft) 97,87 %
12.05.2017 11:06 15,2 C 16,1 C 84 % 1004,5 hPa 0,0 l/m 24,4 km/h (4 Bft) SW 227 0 min 0,000 mm 2,5 UV-I 424 W/m 12,5 C 9,0 C 32,2 km/h (5 Bft) 100,00 %
12.05.2017 11:08 15,1 C 16,7 C 85 % 1004,6 hPa 0,0 l/m 18,6 km/h (3 Bft) W-SW 249 2 min 0,000 mm 2,8 UV-I 503 W/m 12,6 C 10,2 C 30,6 km/h (5 Bft) 95,74 %
12.05.2017 11:10 15,2 C 16,7 C 83 % 1004,6 hPa 0,0 l/m 21,7 km/h (4 Bft) W-SW 251 2 min 0,000 mm 2,8 UV-I 494 W/m 12,3 C 9,6 C 33,8 km/h (5 Bft) 100,00 %
12.05.2017 11:12 15,2 C 16,7 C 84 % 1004,6 hPa 0,0 l/m 19,6 km/h (3 Bft) SW 236 2 min 0,000 mm 2,6 UV-I 452 W/m 12,5 C 10,1 C 29,0 km/h (5 Bft) 97,87 %
12.05.2017 11:14 15,2 C 16,7 C 84 % 1004,8 hPa 0,0 l/m 16,5 km/h (3 Bft) SW 229 0 min 0,000 mm 2,5 UV-I 424 W/m 12,5 C 11,0 C 25,7 km/h (4 Bft) 100,00 %
12.05.2017 11:16 15,2 C 16,7 C 84 % 1004,8 hPa 0,0 l/m 16,8 km/h (3 Bft) W-SW 238 0 min 0,000 mm 2,4 UV-I 396 W/m 12,5 C 10,9 C 24,1 km/h (4 Bft) 100,00 %
12.05.2017 11:18 15,2 C 16,7 C 83 % 1004,8 hPa 0,0 l/m 19,2 km/h (3 Bft) W-SW 244 0 min 0,000 mm 2,2 UV-I 370 W/m 12,3 C 10,2 C 29,0 km/h (5 Bft) 100,00 %
12.05.2017 11:20 15,2 C 16,7 C 84 % 1004,7 hPa 0,0 l/m 17,6 km/h (3 Bft) SW 235 0 min 0,000 mm 2,2 UV-I 353 W/m 12,5 C 10,6 C 24,1 km/h (4 Bft) 100,00 %
12.05.2017 11:22 15,3 C 16,7 C 83 % 1004,8 hPa 0,0 l/m 17,3 km/h (3 Bft) S-SW 209 0 min 0,000 mm 2,2 UV-I 360 W/m 12,4 C 10,9 C 27,4 km/h (4 Bft) 100,00 %
12.05.2017 11:24 15,3 C 16,7 C 84 % 1004,8 hPa 0,0 l/m 12,7 km/h (3 Bft) W-SW 247 0 min 0,000 mm 2,5 UV-I 416 W/m 12,6 C 12,4 C 19,3 km/h (3 Bft) 94,00 %
12.05.2017 11:26 15,4 C 16,7 C 84 % 1004,8 hPa 0,0 l/m 14,8 km/h (3 Bft) SW 228 2 min 0,000 mm 2,6 UV-I 468 W/m 12,7 C 11,7 C 20,9 km/h (4 Bft) 100,00 %
12.05.2017 11:28 15,6 C 16,7 C 84 % 1004,9 hPa 0,0 l/m 15,1 km/h (3 Bft) SW 224 2 min 0,000 mm 2,7 UV-I 490 W/m 12,9 C 11,9 C 22,5 km/h (4 Bft) 98,46 %
12.05.2017 11:30 15,6 C 16,7 C 83 % 1004,9 hPa 0,0 l/m 17,5 km/h (3 Bft) SW 231 2 min 0,000 mm 2,8 UV-I 491 W/m 12,7 C 11,2 C 27,4 km/h (4 Bft) 94,74 %
12.05.2017 11:32 15,7 C 16,7 C 83 % 1004,9 hPa 0,0 l/m 15,7 km/h (3 Bft) W-SW 244 2 min 0,000 mm 2,8 UV-I 480 W/m 12,8 C 11,8 C 22,5 km/h (4 Bft) 100,00 %
12.05.2017 11:34 15,7 C 16,7 C 82 % 1004,8 hPa 0,0 l/m 16,3 km/h (3 Bft) SW 232 0 min 0,000 mm 2,5 UV-I 409 W/m 12,6 C 11,6 C 24,1 km/h (4 Bft) 95,74 %
12.05.2017 11:36 15,7 C 16,7 C 83 % 1004,9 hPa 0,0 l/m 14,4 km/h (3 Bft) S-SW 210 0 min 0,000 mm 2,4 UV-I 396 W/m 12,8 C 12,2 C 22,5 km/h (4 Bft) 96,00 %
12.05.2017 11:38 15,7 C 16,7 C 82 % 1004,9 hPa 0,0 l/m 13,8 km/h (3 Bft) S-SW 201 0 min 0,000 mm 2,6 UV-I 438 W/m 12,6 C 12,4 C 27,4 km/h (4 Bft) 100,00 %
12.05.2017 11:40 15,7 C 16,7 C 82 % 1004,9 hPa 0,0 l/m 16,1 km/h (3 Bft) SW 217 2 min 0,000 mm 2,9 UV-I 561 W/m 12,6 C 11,7 C 24,1 km/h (4 Bft) 96,00 %
12.05.2017 11:42 15,8 C 16,7 C 82 % 1004,9 hPa 0,0 l/m 13,5 km/h (3 Bft) S 190 2 min 0,000 mm 2,9 UV-I 499 W/m 12,7 C 12,7 C 19,3 km/h (3 Bft) 100,00 %
12.05.2017 11:44 15,9 C 16,7 C 81 % 1004,9 hPa 0,0 l/m 14,7 km/h (3 Bft) W-SW 240 2 min 0,000 mm 2,9 UV-I 483 W/m 12,6 C 12,4 C 24,1 km/h (4 Bft) 95,74 %
12.05.2017 11:46 15,9 C 16,7 C 81 % 1004,9 hPa 0,0 l/m 13,9 km/h (3 Bft) SW 224 2 min 0,000 mm 2,9 UV-I 491 W/m 12,6 C 12,6 C 22,5 km/h (4 Bft) 100,00 %
12.05.2017 11:48 15,9 C 16,7 C 81 % 1004,9 hPa 0,0 l/m 16,6 km/h (3 Bft) W 267 2 min 0,000 mm 3,0 UV-I 493 W/m 12,6 C 11,8 C 24,1 km/h (4 Bft) 97,87 %
12.05.2017 11:50 16,0 C 16,7 C 81 % 1004,9 hPa 0,0 l/m 18,9 km/h (3 Bft) W-SW 238 2 min 0,000 mm 3,1 UV-I 535 W/m 12,7 C 11,3 C 25,7 km/h (4 Bft) 95,74 %
12.05.2017 11:52 16,1 C 16,7 C 81 % 1004,8 hPa 0,0 l/m 16,9 km/h (3 Bft) W-SW 238 2 min 0,000 mm 4,1 UV-I 749 W/m 12,8 C 12,0 C 24,1 km/h (4 Bft) 100,00 %
12.05.2017 11:54 16,2 C 16,7 C 80 % 1004,8 hPa 0,0 l/m 18,3 km/h (3 Bft) SW 234 2 min 0,000 mm 3,9 UV-I 778 W/m 12,7 C 11,7 C 29,0 km/h (5 Bft) 97,87 %
12.05.2017 11:56 16,3 C 16,7 C 80 % 1004,8 hPa 0,0 l/m 17,9 km/h (3 Bft) S-SW 207 2 min 0,000 mm 4,2 UV-I 756 W/m 12,8 C 11,9 C 27,4 km/h (4 Bft) 100,00 %
12.05.2017 11:58 16,5 C 16,7 C 81 % 1004,8 hPa 0,0 l/m 11,6 km/h (2 Bft) SW 230 2 min 0,000 mm 4,1 UV-I 796 W/m 13,2 C 14,1 C 20,9 km/h (4 Bft) 98,00 %
12.05.2017 12:00 16,7 C 16,7 C 79 % 1004,8 hPa 0,0 l/m 13,0 km/h (3 Bft) W-SW 248 2 min 0,000 mm 4,1 UV-I 748 W/m 13,0 C 13,9 C 19,3 km/h (3 Bft) 95,83 %
12.05.2017 12:02 16,7 C 16,7 C 78 % 1004,7 hPa 0,0 l/m 18,2 km/h (3 Bft) W-SW 242 2 min 0,304 mm 4,4 UV-I 739 W/m 12,8 C 12,4 C 25,7 km/h (4 Bft) 97,87 %
12.05.2017 12:04 16,7 C 16,7 C 77 % 1004,7 hPa 0,0 l/m 15,6 km/h (3 Bft) SW 230 2 min 0,000 mm 4,6 UV-I 854 W/m 12,6 C 13,1 C 20,9 km/h (4 Bft) 95,74 %
12.05.2017 12:06 16,7 C 16,7 C 77 % 1004,7 hPa 0,0 l/m 16,2 km/h (3 Bft) SW 218 2 min 0,000 mm 4,8 UV-I 858 W/m 12,6 C 12,9 C 24,1 km/h (4 Bft) 98,00 %
12.05.2017 12:08 16,8 C 16,7 C 78 % 1004,7 hPa 0,0 l/m 15,2 km/h (3 Bft) W 265 2 min 0,000 mm 5,0 UV-I 861 W/m 12,9 C 13,3 C 22,5 km/h (4 Bft) 95,74 %
12.05.2017 12:10 16,9 C 16,7 C 77 % 1004,7 hPa 0,0 l/m 10,6 km/h (2 Bft) W-SW 254 2 min 0,000 mm 4,3 UV-I 758 W/m 12,8 C 15,0 C 16,1 km/h (3 Bft) 97,87 %
12.05.2017 12:12 16,9 C 16,7 C 76 % 1004,7 hPa 0,0 l/m 11,8 km/h (2 Bft) W-SW 251 2 min 0,000 mm 4,3 UV-I 689 W/m 12,6 C 14,5 C 20,9 km/h (4 Bft) 94,74 %
12.05.2017 12:14 17,0 C 16,7 C 78 % 1004,7 hPa 0,0 l/m 12,8 km/h (3 Bft) SW 231 2 min 0,000 mm 4,2 UV-I 675 W/m 13,1 C 14,3 C 22,5 km/h (4 Bft) 96,00 %
12.05.2017 12:16 17,0 C 16,7 C 76 % 1004,7 hPa 0,0 l/m 16,4 km/h (3 Bft) SW 227 2 min 0,000 mm 5,1 UV-I 773 W/m 12,7 C 13,2 C 24,1 km/h (4 Bft) 97,87 %
12.05.2017 12:18 17,1 C 16,7 C 76 % 1004,7 hPa 0,0 l/m 13,6 km/h (3 Bft) W-SW 243 2 min 0,000 mm 4,4 UV-I 846 W/m 12,8 C 14,2 C 20,9 km/h (4 Bft) 93,62 %
12.05.2017 12:20 17,1 C 16,7 C 77 % 1004,7 hPa 0,0 l/m 12,0 km/h (2 Bft) W-SW 255 2 min 0,000 mm 4,7 UV-I 846 W/m 13,0 C 14,7 C 17,7 km/h (3 Bft) 96,00 %
12.05.2017 12:22 17,2 C 16,7 C 75 % 1004,8 hPa 0,0 l/m 14,8 km/h (3 Bft) W-SW 243 2 min 0,000 mm 4,5 UV-I 818 W/m 12,7 C 13,9 C 24,1 km/h (4 Bft) 92,11 %
12.05.2017 12:24 17,2 C 16,7 C 74 % 1004,8 hPa 0,0 l/m 15,3 km/h (3 Bft) SW 231 2 min 0,000 mm 3,8 UV-I 623 W/m 12,5 C 13,8 C 24,1 km/h (4 Bft) 98,00 %
12.05.2017 12:26 17,1 C 16,7 C 74 % 1004,8 hPa 0,0 l/m 12,1 km/h (2 Bft) SW 236 2 min 0,000 mm 3,7 UV-I 584 W/m 12,4 C 14,7 C 17,7 km/h (3 Bft) 95,74 %
12.05.2017 12:28 17,1 C 16,7 C 75 % 1004,8 hPa 0,0 l/m 12,2 km/h (2 Bft) SW 231 2 min 0,000 mm 3,4 UV-I 533 W/m 12,6 C 14,6 C 17,7 km/h (3 Bft) 95,74 %
12.05.2017 12:30 17,1 C 16,7 C 75 % 1004,8 hPa 0,0 l/m 7,6 km/h (2 Bft) W-SW 249 2 min 0,000 mm 3,3 UV-I 504 W/m 12,6 C 16,5 C 11,3 km/h (2 Bft) 97,87 %
12.05.2017 12:32 17,1 C 16,7 C 75 % 1004,8 hPa 0,0 l/m 11,1 km/h (2 Bft) SW 230 2 min 0,000 mm 3,2 UV-I 490 W/m 12,6 C 15,0 C 19,3 km/h (3 Bft) 93,62 %
12.05.2017 12:34 17,1 C 16,7 C 75 % 1004,8 hPa 0,0 l/m 10,0 km/h (2 Bft) SW 218 2 min 0,000 mm 3,1 UV-I 486 W/m 12,6 C 15,4 C 19,3 km/h (3 Bft) 100,00 %
12.05.2017 12:36 17,0 C 16,7 C 74 % 1004,8 hPa 0,0 l/m 11,8 km/h (2 Bft) S-SW 193 2 min 0,000 mm 3,0 UV-I 471 W/m 12,3 C 14,6 C 19,3 km/h (3 Bft) 97,87 %
12.05.2017 12:38 16,9 C 16,7 C 74 % 1004,8 hPa 0,0 l/m 10,8 km/h (2 Bft) W 271 0 min 0,000 mm 2,9 UV-I 461 W/m 12,2 C 14,9 C 16,1 km/h (3 Bft) 93,62 %
12.05.2017 12:40 17,0 C 16,7 C 75 % 1004,8 hPa 0,0 l/m 12,1 km/h (2 Bft) W-SW 246 0 min 0,000 mm 2,9 UV-I 466 W/m 12,5 C 14,5 C 17,7 km/h (3 Bft) 100,00 %
12.05.2017 12:42 16,9 C 16,7 C 74 % 1004,8 hPa 0,0 l/m 10,4 km/h (2 Bft) W-SW 246 2 min 0,000 mm 3,1 UV-I 497 W/m 12,2 C 15,1 C 16,1 km/h (3 Bft) 97,50 %
12.05.2017 12:44 16,9 C 16,7 C 74 % 1004,7 hPa 0,0 l/m 8,1 km/h (2 Bft) W-NW 293 2 min 0,000 mm 3,3 UV-I 534 W/m 12,2 C 16,0 C 12,9 km/h (3 Bft) 100,00 %
12.05.2017 12:46 17,0 C 16,7 C 77 % 1004,6 hPa 0,0 l/m 4,4 km/h (1 Bft) S 189 2 min 0,000 mm 3,6 UV-I 568 W/m 12,9 C 17,0 C 6,4 km/h (2 Bft) 100,00 %
12.05.2017 12:48 17,1 C 16,7 C 78 % 1004,6 hPa 0,0 l/m 5,5 km/h (1 Bft) S-SW 196 2 min 0,000 mm 3,8 UV-I 600 W/m 13,2 C 17,1 C 8,0 km/h (2 Bft) 100,00 %
12.05.2017 12:50 17,3 C 16,7 C 76 % 1004,6 hPa 0,0 l/m 9,2 km/h (2 Bft) S 176 2 min 0,000 mm 4,1 UV-I 652 W/m 13,0 C 16,0 C 14,5 km/h (3 Bft) 97,87 %
12.05.2017 12:52 17,3 C 16,7 C 74 % 1004,6 hPa 0,0 l/m 9,2 km/h (2 Bft) S-SW 212 2 min 0,000 mm 4,2 UV-I 716 W/m 12,6 C 16,0 C 17,7 km/h (3 Bft) 97,87 %
12.05.2017 12:54 17,5 C 16,7 C 76 % 1004,5 hPa 0,0 l/m 5,6 km/h (1 Bft) W-SW 252 2 min 0,000 mm 5,0 UV-I 650 W/m 13,2 C 17,5 C 9,7 km/h (2 Bft) 95,74 %
12.05.2017 12:56 17,6 C 16,7 C 73 % 1004,5 hPa 0,0 l/m 12,3 km/h (3 Bft) W-SW 240 2 min 0,000 mm 4,2 UV-I 643 W/m 12,7 C 15,2 C 20,9 km/h (4 Bft) 100,00 %
12.05.2017 12:58 17,6 C 16,7 C 71 % 1004,6 hPa 0,0 l/m 10,5 km/h (2 Bft) W-SW 240 2 min 0,000 mm 4,5 UV-I 617 W/m 12,3 C 15,8 C 16,1 km/h (3 Bft) 98,11 %
12.05.2017 13:00 17,5 C 16,7 C 69 % 1004,5 hPa 0,0 l/m 10,7 km/h (2 Bft) W-SW 238 2 min 0,407 mm 4,7 UV-I 543 W/m 11,7 C 15,6 C 16,1 km/h (3 Bft) 100,00 %
12.05.2017 13:02 17,7 C 16,7 C 72 % 1004,5 hPa 0,0 l/m 8,4 km/h (2 Bft) W 271 2 min 0,000 mm 5,4 UV-I 531 W/m 12,6 C 16,8 C 17,7 km/h (3 Bft) 95,74 %
12.05.2017 13:04 17,7 C 16,7 C 69 % 1004,5 hPa 0,0 l/m 10,8 km/h (2 Bft) SW 233 2 min 0,000 mm 4,0 UV-I 550 W/m 11,9 C 15,8 C 17,7 km/h (3 Bft) 100,00 %
12.05.2017 13:06 17,6 C 16,7 C 68 % 1004,4 hPa 0,0 l/m 9,3 km/h (2 Bft) SW 227 2 min 0,000 mm 3,9 UV-I 602 W/m 11,6 C 16,3 C 14,5 km/h (3 Bft) 96,00 %
12.05.2017 13:08 17,7 C 16,7 C 69 % 1004,4 hPa 0,0 l/m 6,8 km/h (2 Bft) W-SW 255 2 min 0,000 mm 3,4 UV-I 483 W/m 11,9 C 17,5 C 12,9 km/h (3 Bft) 97,87 %
12.05.2017 13:10 17,6 C 16,7 C 67 % 1004,4 hPa 0,0 l/m 5,9 km/h (2 Bft) S-SW 204 2 min 0,000 mm 4,5 UV-I 545 W/m 11,4 C 17,6 C 14,5 km/h (3 Bft) 97,87 %
12.05.2017 13:12 17,8 C 16,7 C 70 % 1004,4 hPa 0,0 l/m 9,8 km/h (2 Bft) W 276 2 min 0,000 mm 5,9 UV-I 867 W/m 12,3 C 16,3 C 16,1 km/h (3 Bft) 100,00 %
12.05.2017 13:14 17,9 C 16,7 C 66 % 1004,4 hPa 0,0 l/m 11,3 km/h (2 Bft) SW 233 2 min 0,000 mm 6,3 UV-I 1130 W/m 11,5 C 15,8 C 17,7 km/h (3 Bft) 97,87 %
12.05.2017 13:16 18,2 C 16,7 C 67 % 1004,4 hPa 0,0 l/m 8,9 km/h (2 Bft) SW 230 2 min 0,000 mm 6,3 UV-I 1131 W/m 12,0 C 17,1 C 12,9 km/h (3 Bft) 97,22 %
12.05.2017 13:18 18,3 C 17,2 C 67 % 1004,3 hPa 0,0 l/m 6,4 km/h (2 Bft) W-SW 237 2 min 0,000 mm 6,3 UV-I 1128 W/m 12,1 C 18,3 C 12,9 km/h (3 Bft) 100,00 %
12.05.2017 13:20 18,4 C 17,2 C 66 % 1004,4 hPa 0,0 l/m 4,2 km/h (1 Bft) SW 223 2 min 0,000 mm 6,3 UV-I 1120 W/m 11,9 C 18,4 C 9,7 km/h (2 Bft) 100,00 %
12.05.2017 13:22 18,7 C 17,2 C 68 % 1004,3 hPa 0,0 l/m 4,5 km/h (1 Bft) S-SW 199 2 min 0,000 mm 6,1 UV-I 1090 W/m 12,7 C 18,7 C 9,7 km/h (2 Bft) 100,00 %
12.05.2017 13:24 18,8 C 17,2 C 66 % 1004,3 hPa 0,0 l/m 6,3 km/h (2 Bft) W-SW 240 2 min 0,000 mm 5,8 UV-I 953 W/m 12,3 C 18,8 C 14,5 km/h (3 Bft) 97,87 %
12.05.2017 13:26 18,9 C 17,2 C 67 % 1004,3 hPa 0,0 l/m 7,9 km/h (2 Bft) W 268 2 min 0,000 mm 5,7 UV-I 991 W/m 12,6 C 18,2 C 14,5 km/h (3 Bft) 97,87 %
12.05.2017 13:28 18,9 C 17,2 C 64 % 1004,3 hPa 0,0 l/m 12,7 km/h (3 Bft) W-SW 240 2 min 0,000 mm 5,0 UV-I 718 W/m 11,9 C 16,6 C 20,9 km/h (4 Bft) 97,87 %
12.05.2017 13:30 18,8 C 17,2 C 64 % 1004,3 hPa 0,0 l/m 8,6 km/h (2 Bft) W-SW 255 2 min 0,000 mm 5,7 UV-I 617 W/m 11,8 C 17,8 C 14,5 km/h (3 Bft) 97,87 %
12.05.2017 13:32 18,8 C 17,2 C 63 % 1004,3 hPa 0,0 l/m 11,3 km/h (2 Bft) W-SW 240 2 min 0,000 mm 5,7 UV-I 801 W/m 11,6 C 16,9 C 16,1 km/h (3 Bft) 97,87 %
12.05.2017 13:34 18,8 C 17,2 C 68 % 1004,3 hPa 0,0 l/m 7,8 km/h (2 Bft) S 190 2 min 0,000 mm 4,6 UV-I 944 W/m 12,8 C 18,2 C 12,9 km/h (3 Bft) 97,87 %
12.05.2017 13:36 18,9 C 17,2 C 65 % 1004,3 hPa 0,0 l/m 13,7 km/h (3 Bft) S-SW 197 2 min 0,000 mm 5,8 UV-I 1020 W/m 12,2 C 16,3 C 20,9 km/h (4 Bft) 93,62 %
12.05.2017 13:38 18,9 C 17,2 C 66 % 1004,2 hPa 0,0 l/m 12,5 km/h (3 Bft) SW 219 2 min 0,000 mm 5,1 UV-I 804 W/m 12,4 C 16,6 C 17,7 km/h (3 Bft) 100,00 %
12.05.2017 13:40 18,9 C 17,2 C 66 % 1004,3 hPa 0,0 l/m 5,3 km/h (1 Bft) W 271 2 min 0,000 mm 4,2 UV-I 693 W/m 12,4 C 18,9 C 11,3 km/h (2 Bft) 100,00 %
12.05.2017 13:42 18,9 C 17,2 C 66 % 1004,3 hPa 0,0 l/m 6,2 km/h (2 Bft) SW 232 2 min 0,000 mm 5,1 UV-I 740 W/m 12,4 C 18,9 C 11,3 km/h (2 Bft) 97,87 %
12.05.2017 13:44 19,2 C 17,2 C 69 % 1004,3 hPa 0,0 l/m 7,5 km/h (2 Bft) W-SW 238 2 min 0,000 mm 5,3 UV-I 780 W/m 13,4 C 18,7 C 16,1 km/h (3 Bft) 95,74 %
12.05.2017 13:46 19,3 C 17,2 C 66 % 1004,2 hPa 0,0 l/m 6,1 km/h (2 Bft) W-SW 251 2 min 0,000 mm 5,3 UV-I 680 W/m 12,8 C 19,3 C 11,3 km/h (2 Bft) 90,00 %
12.05.2017 13:48 19,4 C 17,2 C 65 % 1004,2 hPa 0,0 l/m 7,0 km/h (2 Bft) SW 234 2 min 0,000 mm 5,7 UV-I 840 W/m 12,6 C 19,1 C 14,5 km/h (3 Bft) 95,74 %
12.05.2017 13:50 19,6 C 17,2 C 64 % 1004,2 hPa 0,0 l/m 9,8 km/h (2 Bft) S-SW 192 2 min 0,000 mm 5,7 UV-I 979 W/m 12,6 C 18,3 C 16,1 km/h (3 Bft) 94,00 %
12.05.2017 13:52 19,6 C 17,2 C 65 % 1004,2 hPa 0,0 l/m 11,4 km/h (2 Bft) W-SW 237 2 min 0,000 mm 5,6 UV-I 956 W/m 12,8 C 17,7 C 17,7 km/h (3 Bft) 97,87 %
12.05.2017 13:54 19,4 C 17,2 C 62 % 1004,2 hPa 0,0 l/m 9,9 km/h (2 Bft) SW 217 2 min 0,000 mm 5,6 UV-I 873 W/m 11,9 C 18,0 C 17,7 km/h (3 Bft) 94,00 %
12.05.2017 13:56 19,3 C 17,2 C 62 % 1004,2 hPa 0,0 l/m 11,2 km/h (2 Bft) SO 136 2 min 0,000 mm 5,3 UV-I 897 W/m 11,8 C 17,5 C 20,9 km/h (4 Bft) 88,89 %
12.05.2017 13:58 19,3 C 17,2 C 63 % 1004,2 hPa 0,0 l/m 11,3 km/h (2 Bft) S-SW 207 2 min 0,000 mm 5,1 UV-I 920 W/m 12,1 C 17,4 C 17,7 km/h (3 Bft) 94,00 %
12.05.2017 14:00 19,4 C 17,2 C 64 % 1004,1 hPa 0,0 l/m 13,6 km/h (3 Bft) W-SW 240 2 min 0,533 mm 5,4 UV-I 901 W/m 12,4 C 16,9 C 20,9 km/h (4 Bft) 95,83 %
12.05.2017 14:02 19,6 C 17,2 C 65 % 1004,1 hPa 0,0 l/m 12,0 km/h (2 Bft) SW 234 2 min 0,000 mm 5,3 UV-I 887 W/m 12,8 C 17,6 C 17,7 km/h (3 Bft) 92,00 %
12.05.2017 14:04 19,6 C 17,2 C 64 % 1004,1 hPa 0,0 l/m 8,7 km/h (2 Bft) SW 223 2 min 0,000 mm 5,3 UV-I 892 W/m 12,6 C 18,7 C 20,9 km/h (4 Bft) 93,62 %
12.05.2017 14:06 19,6 C 17,2 C 62 % 1004,1 hPa 0,0 l/m 8,0 km/h (2 Bft) S-SW 203 2 min 0,000 mm 5,3 UV-I 903 W/m 12,1 C 18,9 C 16,1 km/h (3 Bft) 95,74 %
12.05.2017 14:08 19,4 C 17,2 C 63 % 1004,1 hPa 0,0 l/m 6,6 km/h (2 Bft) W-SW 238 2 min 0,000 mm 5,2 UV-I 895 W/m 12,2 C 19,3 C 16,1 km/h (3 Bft) 87,23 %
12.05.2017 14:10 19,5 C 17,2 C 64 % 1004,0 hPa 0,0 l/m 9,3 km/h (2 Bft) W-SW 253 2 min 0,000 mm 4,8 UV-I 858 W/m 12,5 C 18,3 C 16,1 km/h (3 Bft) 95,83 %
12.05.2017 14:12 19,4 C 17,2 C 64 % 1004,1 hPa 0,0 l/m 10,2 km/h (2 Bft) W 259 2 min 0,000 mm 4,6 UV-I 763 W/m 12,4 C 17,9 C 17,7 km/h (3 Bft) 92,11 %
12.05.2017 14:14 19,4 C 17,2 C 61 % 1004,0 hPa 0,0 l/m 11,5 km/h (2 Bft) W-SW 252 2 min 0,000 mm 3,7 UV-I 759 W/m 11,7 C 17,5 C 17,7 km/h (3 Bft) 95,74 %
12.05.2017 14:16 19,3 C 17,2 C 66 % 1004,0 hPa 0,0 l/m 8,9 km/h (2 Bft) SW 234 2 min 0,000 mm 3,9 UV-I 759 W/m 12,8 C 18,3 C 11,3 km/h (2 Bft) 95,74 %
12.05.2017 14:18 19,3 C 17,2 C 63 % 1004,0 hPa 0,0 l/m 9,6 km/h (2 Bft) W-SW 252 2 min 0,000 mm 3,9 UV-I 526 W/m 12,1 C 18,0 C 14,5 km/h (3 Bft) 91,53 %
12.05.2017 14:20 19,5 C 17,2 C 61 % 1003,9 hPa 0,0 l/m 11,9 km/h (2 Bft) SW 232 2 min 0,000 mm 5,0 UV-I 512 W/m 11,8 C 17,5 C 19,3 km/h (3 Bft) 91,43 %
12.05.2017 14:22 19,7 C 17,2 C 60 % 1003,9 hPa 0,0 l/m 11,6 km/h (2 Bft) NW 312 2 min 0,000 mm 5,2 UV-I 829 W/m 11,7 C 17,8 C 19,3 km/h (3 Bft) 98,00 %
12.05.2017 14:24 19,6 C 17,2 C 60 % 1003,8 hPa 0,0 l/m 6,7 km/h (2 Bft) S-SW 205 2 min 0,000 mm 5,1 UV-I 864 W/m 11,6 C 19,5 C 12,9 km/h (3 Bft) 89,36 %
12.05.2017 14:26 19,8 C 17,2 C 60 % 1003,8 hPa 0,0 l/m 12,4 km/h (3 Bft) W-SW 245 2 min 0,000 mm 4,9 UV-I 844 W/m 11,8 C 17,7 C 20,9 km/h (4 Bft) 97,87 %
12.05.2017 14:28 19,9 C 17,2 C 56 % 1003,8 hPa 0,0 l/m 12,1 km/h (2 Bft) W 259 2 min 0,000 mm 4,9 UV-I 842 W/m 10,9 C 17,9 C 20,9 km/h (4 Bft) 88,00 %
12.05.2017 14:30 19,9 C 17,2 C 56 % 1003,8 hPa 0,0 l/m 14,9 km/h (3 Bft) SW 223 2 min 0,000 mm 4,9 UV-I 841 W/m 10,9 C 17,2 C 17,7 km/h (3 Bft) 93,62 %
12.05.2017 14:32 19,8 C 17,2 C 55 % 1003,8 hPa 0,0 l/m 9,4 km/h (2 Bft) W-SW 258 2 min 0,000 mm 4,9 UV-I 837 W/m 10,5 C 18,6 C 16,1 km/h (3 Bft) 98,00 %
12.05.2017 14:34 19,8 C 17,2 C 57 % 1003,8 hPa 0,0 l/m 7,9 km/h (2 Bft) W 259 2 min 0,000 mm 4,8 UV-I 834 W/m 11,0 C 19,2 C 11,3 km/h (2 Bft) 91,89 %
12.05.2017 14:36 19,8 C 17,2 C 57 % 1003,8 hPa 0,0 l/m 12,2 km/h (2 Bft) W-SW 251 2 min 0,000 mm 4,8 UV-I 831 W/m 11,0 C 17,7 C 19,3 km/h (3 Bft) 91,49 %
12.05.2017 14:38 19,8 C 17,8 C 56 % 1003,8 hPa 0,0 l/m 10,2 km/h (2 Bft) S 181 2 min 0,000 mm 4,7 UV-I 826 W/m 10,8 C 18,4 C 16,1 km/h (3 Bft) 91,43 %
12.05.2017 14:40 20,1 C 17,8 C 58 % 1003,9 hPa 0,0 l/m 9,9 km/h (2 Bft) SW 233 2 min 0,000 mm 4,7 UV-I 825 W/m 11,6 C 18,8 C 16,1 km/h (3 Bft) 98,46 %
12.05.2017 14:42 20,1 C 17,8 C 58 % 1003,8 hPa 0,0 l/m 6,9 km/h (2 Bft) W 268 2 min 0,000 mm 4,7 UV-I 822 W/m 11,6 C 19,9 C 11,3 km/h (2 Bft) 95,74 %
12.05.2017 14:44 20,2 C 17,8 C 56 % 1003,9 hPa 0,0 l/m 15,9 km/h (3 Bft) W-SW 240 2 min 0,000 mm 4,7 UV-I 817 W/m 11,1 C 17,3 C 22,5 km/h (4 Bft) 95,74 %
12.05.2017 14:46 20,2 C 17,8 C 55 % 1003,9 hPa 0,0 l/m 10,8 km/h (2 Bft) W-SW 240 2 min 0,000 mm 4,6 UV-I 810 W/m 10,9 C 18,6 C 19,3 km/h (3 Bft) 95,74 %
12.05.2017 14:48 20,2 C 17,8 C 55 % 1003,9 hPa 0,0 l/m 9,6 km/h (2 Bft) SW 236 2 min 0,000 mm 4,5 UV-I 804 W/m 10,9 C 19,0 C 17,7 km/h (3 Bft) 98,00 %
12.05.2017 14:50 20,2 C 17,8 C 52 % 1003,8 hPa 0,0 l/m 14,0 km/h (3 Bft) W-SW 252 2 min 0,000 mm 4,5 UV-I 803 W/m 10,0 C 17,7 C 20,9 km/h (4 Bft) 97,87 %
12.05.2017 14:52 20,1 C 17,8 C 54 % 1003,8 hPa 0,0 l/m 8,9 km/h (2 Bft) W-SW 244 2 min 0,000 mm 4,5 UV-I 800 W/m 10,5 C 19,1 C 14,5 km/h (3 Bft) 94,74 %
12.05.2017 14:54 20,2 C 17,8 C 55 % 1003,8 hPa 0,0 l/m 13,1 km/h (3 Bft) W-SW 249 2 min 0,000 mm 4,5 UV-I 798 W/m 10,9 C 18,0 C 20,9 km/h (4 Bft) 97,87 %
12.05.2017 14:56 20,2 C 17,8 C 57 % 1003,7 hPa 0,0 l/m 7,9 km/h (2 Bft) W-SW 240 2 min 0,000 mm 4,4 UV-I 794 W/m 11,4 C 19,6 C 14,5 km/h (3 Bft) 98,00 %
12.05.2017 14:58 20,3 C 17,8 C 55 % 1003,8 hPa 0,0 l/m 10,1 km/h (2 Bft) W-SW 239 2 min 0,000 mm 4,4 UV-I 790 W/m 11,0 C 18,9 C 14,5 km/h (3 Bft) 93,62 %
12.05.2017 15:00 20,3 C 17,8 C 55 % 1003,7 hPa 0,0 l/m 7,1 km/h (2 Bft) SW 215 2 min 0,534 mm 4,4 UV-I 788 W/m 11,0 C 20,0 C 12,9 km/h (3 Bft) 95,74 %
12.05.2017 15:02 20,1 C 17,8 C 56 % 1003,7 hPa 0,0 l/m 3,0 km/h (1 Bft) S-SO 167 2 min 0,000 mm 4,3 UV-I 784 W/m 11,0 C 20,1 C 6,4 km/h (2 Bft) 95,83 %
12.05.2017 15:04 20,1 C 17,8 C 57 % 1003,8 hPa 0,0 l/m 3,6 km/h (1 Bft) S-SO 148 2 min 0,000 mm 4,2 UV-I 780 W/m 11,3 C 20,1 C 8,0 km/h (2 Bft) 95,74 %
12.05.2017 15:06 20,2 C 17,8 C 57 % 1003,7 hPa 0,0 l/m 4,3 km/h (1 Bft) W 265 2 min 0,000 mm 4,2 UV-I 776 W/m 11,4 C 20,2 C 9,7 km/h (2 Bft) 96,00 %
12.05.2017 15:08 20,3 C 17,8 C 59 % 1003,6 hPa 0,0 l/m 9,2 km/h (2 Bft) W-SW 252 2 min 0,000 mm 4,2 UV-I 772 W/m 12,0 C 19,2 C 16,1 km/h (3 Bft) 97,37 %
12.05.2017 15:10 20,4 C 17,8 C 59 % 1003,6 hPa 0,0 l/m 8,2 km/h (2 Bft) W-NW 284 2 min 0,000 mm 4,1 UV-I 768 W/m 12,1 C 19,7 C 14,5 km/h (3 Bft) 96,00 %
12.05.2017 15:12 20,6 C 17,8 C 56 % 1003,6 hPa 0,0 l/m 6,8 km/h (2 Bft) W 265 2 min 0,000 mm 4,1 UV-I 766 W/m 11,5 C 20,4 C 14,5 km/h (3 Bft) 94,00 %
12.05.2017 15:14 20,8 C 17,8 C 61 % 1003,6 hPa 0,0 l/m 7,3 km/h (2 Bft) SW 234 2 min 0,000 mm 4,0 UV-I 763 W/m 13,0 C 20,5 C 16,1 km/h (3 Bft) 93,62 %
12.05.2017 15:16 20,6 C 17,8 C 53 % 1003,6 hPa 0,0 l/m 7,3 km/h (2 Bft) W-SW 242 2 min 0,000 mm 4,0 UV-I 758 W/m 10,7 C 20,2 C 12,9 km/h (3 Bft) 95,74 %
12.05.2017 15:18 20,6 C 17,8 C 60 % 1003,6 hPa 0,0 l/m 3,7 km/h (1 Bft) SW 232 2 min 0,000 mm 4,0 UV-I 754 W/m 12,6 C 20,6 C 9,7 km/h (2 Bft) 97,92 %
12.05.2017 15:20 20,6 C 17,8 C 58 % 1003,6 hPa 0,0 l/m 8,7 km/h (2 Bft) SW 227 2 min 0,000 mm 3,9 UV-I 749 W/m 12,0 C 19,7 C 14,5 km/h (3 Bft) 97,37 %
12.05.2017 15:22 20,5 C 17,8 C 58 % 1003,6 hPa 0,0 l/m 10,1 km/h (2 Bft) W-SW 237 2 min 0,000 mm 3,9 UV-I 744 W/m 11,9 C 19,2 C 12,9 km/h (3 Bft) 97,87 %
12.05.2017 15:24 20,6 C 17,8 C 57 % 1003,5 hPa 0,0 l/m 11,0 km/h (2 Bft) W-SW 246 2 min 0,000 mm 3,8 UV-I 741 W/m 11,8 C 19,0 C 20,9 km/h (4 Bft) 97,87 %
12.05.2017 15:26 20,4 C 17,8 C 56 % 1003,6 hPa 0,0 l/m 10,8 km/h (2 Bft) W-SW 253 2 min 0,000 mm 3,7 UV-I 735 W/m 11,3 C 18,8 C 14,5 km/h (3 Bft) 100,00 %
12.05.2017 15:28 20,2 C 17,8 C 55 % 1003,5 hPa 0,0 l/m 4,3 km/h (1 Bft) W-SW 256 2 min 0,000 mm 3,7 UV-I 731 W/m 10,9 C 20,2 C 12,9 km/h (3 Bft) 95,74 %
12.05.2017 15:30 20,1 C 17,8 C 61 % 1003,5 hPa 0,0 l/m 3,0 km/h (1 Bft) W 259 2 min 0,000 mm 3,7 UV-I 726 W/m 12,3 C 20,1 C 4,8 km/h (1 Bft) 100,00 %
12.05.2017 15:32 20,3 C 17,8 C 59 % 1003,5 hPa 0,0 l/m 8,0 km/h (2 Bft) S 188 2 min 0,000 mm 3,6 UV-I 723 W/m 12,0 C 19,7 C 14,5 km/h (3 Bft) 97,87 %
12.05.2017 15:34 20,4 C 17,8 C 61 % 1003,5 hPa 0,0 l/m 9,3 km/h (2 Bft) S-SW 211 2 min 0,000 mm 3,6 UV-I 721 W/m 12,6 C 19,3 C 14,5 km/h (3 Bft) 97,87 %
12.05.2017 15:36 20,5 C 17,8 C 59 % 1003,5 hPa 0,0 l/m 11,0 km/h (2 Bft) SW 232 2 min 0,000 mm 3,5 UV-I 716 W/m 12,2 C 18,9 C 14,5 km/h (3 Bft) 97,37 %
12.05.2017 15:38 20,7 C 17,8 C 57 % 1003,4 hPa 0,0 l/m 5,3 km/h (1 Bft) W-NW 290 2 min 0,000 mm 3,5 UV-I 712 W/m 11,9 C 20,7 C 11,3 km/h (2 Bft) 96,77 %
12.05.2017 15:40 20,6 C 17,8 C 58 % 1003,4 hPa 0,0 l/m 2,0 km/h (1 Bft) N-NW 331 2 min 0,000 mm 3,4 UV-I 706 W/m 12,0 C 20,6 C 6,4 km/h (2 Bft) 97,87 %
12.05.2017 15:42 20,5 C 17,8 C 60 % 1003,4 hPa 0,0 l/m 4,2 km/h (1 Bft) W-NW 298 2 min 0,000 mm 3,4 UV-I 708 W/m 12,5 C 20,5 C 8,0 km/h (2 Bft) 94,74 %
12.05.2017 15:44 20,4 C 17,8 C 55 % 1003,4 hPa 0,0 l/m 1,5 km/h (1 Bft) W-NW 303 2 min 0,000 mm 3,4 UV-I 708 W/m 11,1 C 20,4 C 4,8 km/h (1 Bft) 97,87 %
12.05.2017 15:46 20,4 C 17,8 C 58 % 1003,3 hPa 0,0 l/m 1,4 km/h (1 Bft) W-SW 250 2 min 0,000 mm 3,4 UV-I 702 W/m 11,9 C 20,4 C 6,4 km/h (2 Bft) 95,74 %
12.05.2017 15:48 20,6 C 17,8 C 55 % 1003,3 hPa 0,0 l/m 5,4 km/h (1 Bft) W-SW 238 2 min 0,000 mm 3,3 UV-I 695 W/m 11,2 C 20,6 C 8,0 km/h (2 Bft) 95,74 %
12.05.2017 15:50 20,9 C 17,8 C 55 % 1003,3 hPa 0,0 l/m 9,1 km/h (2 Bft) SW 223 2 min 0,000 mm 3,3 UV-I 691 W/m 11,5 C 19,9 C 17,7 km/h (3 Bft) 93,62 %
12.05.2017 15:52 21,0 C 17,8 C 57 % 1003,2 hPa 0,0 l/m 10,6 km/h (2 Bft) SW 234 2 min 0,000 mm 3,2 UV-I 686 W/m 12,1 C 19,6 C 16,1 km/h (3 Bft) 97,92 %
12.05.2017 15:54 21,0 C 17,8 C 53 % 1003,3 hPa 0,0 l/m 12,2 km/h (2 Bft) SW 236 2 min 0,000 mm 3,1 UV-I 677 W/m 11,0 C 19,1 C 16,1 km/h (3 Bft) 95,74 %
12.05.2017 15:56 20,9 C 17,8 C 53 % 1003,2 hPa 0,0 l/m 8,6 km/h (2 Bft) W 267 2 min 0,000 mm 3,1 UV-I 675 W/m 11,0 C 20,1 C 14,5 km/h (3 Bft) 95,83 %
12.05.2017 15:58 20,8 C 17,8 C 53 % 1003,1 hPa 0,0 l/m 9,4 km/h (2 Bft) SW 231 2 min 0,000 mm 3,1 UV-I 672 W/m 10,9 C 19,7 C 16,1 km/h (3 Bft) 97,87 %
12.05.2017 16:00 20,8 C 17,8 C 53 % 1003,2 hPa 0,0 l/m 10,0 km/h (2 Bft) W-SW 253 2 min 0,457 mm 3,0 UV-I 667 W/m 10,9 C 19,5 C 14,5 km/h (3 Bft) 95,74 %
12.05.2017 16:02 20,8 C 17,8 C 52 % 1003,1 hPa 0,0 l/m 6,5 km/h (2 Bft) W-SW 237 2 min 0,000 mm 3,0 UV-I 662 W/m 10,6 C 20,8 C 12,9 km/h (3 Bft) 94,00 %
12.05.2017 16:04 20,7 C 17,8 C 53 % 1003,1 hPa 0,0 l/m 5,1 km/h (1 Bft) SW 220 2 min 0,000 mm 3,0 UV-I 656 W/m 10,8 C 20,7 C 9,7 km/h (2 Bft) 95,74 %
12.05.2017 16:06 20,7 C 17,8 C 52 % 1003,1 hPa 0,0 l/m 6,0 km/h (2 Bft) W 260 2 min 0,000 mm 2,9 UV-I 649 W/m 10,5 C 20,7 C 8,0 km/h (2 Bft) 98,04 %
12.05.2017 16:08 20,7 C 17,8 C 55 % 1003,0 hPa 0,0 l/m 4,0 km/h (1 Bft) SW 229 2 min 0,000 mm 2,9 UV-I 645 W/m 11,3 C 20,7 C 6,4 km/h (2 Bft) 93,62 %
12.05.2017 16:10 20,9 C 17,8 C 54 % 1003,0 hPa 0,0 l/m 4,1 km/h (1 Bft) W-SW 244 2 min 0,000 mm 2,8 UV-I 641 W/m 11,2 C 20,9 C 8,0 km/h (2 Bft) 97,87 %
12.05.2017 16:12 21,1 C 18,3 C 54 % 1003,0 hPa 0,0 l/m 0,9 km/h (0 Bft) N 5 2 min 0,000 mm 2,8 UV-I 637 W/m 11,4 C 21,1 C 3,2 km/h (1 Bft) 93,62 %
12.05.2017 16:14 21,1 C 18,3 C 53 % 1003,0 hPa 0,0 l/m 2,9 km/h (1 Bft) W-NW 283 2 min 0,000 mm 2,8 UV-I 635 W/m 11,1 C 21,1 C 4,8 km/h (1 Bft) 97,14 %
12.05.2017 16:16 21,1 C 18,3 C 54 % 1003,0 hPa 0,0 l/m 4,8 km/h (1 Bft) W-SW 250 2 min 0,000 mm 2,7 UV-I 632 W/m 11,4 C 21,1 C 12,9 km/h (3 Bft) 95,83 %
12.05.2017 16:18 21,1 C 18,3 C 52 % 1003,0 hPa 0,0 l/m 9,5 km/h (2 Bft) W 275 2 min 0,000 mm 2,7 UV-I 625 W/m 10,9 C 20,0 C 12,9 km/h (3 Bft) 95,74 %
12.05.2017 16:20 21,2 C 18,3 C 53 % 1003,0 hPa 0,0 l/m 3,4 km/h (1 Bft) W 264 2 min 0,000 mm 2,6 UV-I 619 W/m 11,2 C 21,2 C 6,4 km/h (2 Bft) 92,00 %
12.05.2017 16:22 21,2 C 18,3 C 49 % 1003,0 hPa 0,0 l/m 4,5 km/h (1 Bft) W-SW 252 2 min 0,000 mm 2,6 UV-I 611 W/m 10,1 C 21,2 C 12,9 km/h (3 Bft) 94,34 %
12.05.2017 16:24 21,2 C 18,3 C 50 % 1003,0 hPa 0,0 l/m 6,4 km/h (2 Bft) W-SW 252 2 min 0,000 mm 2,5 UV-I 607 W/m 10,4 C 21,2 C 12,9 km/h (3 Bft) 97,87 %
12.05.2017 16:26 21,2 C 18,3 C 50 % 1003,0 hPa 0,0 l/m 7,7 km/h (2 Bft) W 280 2 min 0,000 mm 2,5 UV-I 603 W/m 10,4 C 20,7 C 9,7 km/h (2 Bft) 95,74 %
12.05.2017 16:28 21,1 C 18,3 C 48 % 1003,0 hPa 0,0 l/m 3,2 km/h (1 Bft) W 273 2 min 0,000 mm 2,4 UV-I 599 W/m 9,7 C 21,1 C 6,4 km/h (2 Bft) 100,00 %
12.05.2017 16:30 20,9 C 18,3 C 51 % 1003,0 hPa 0,0 l/m 4,1 km/h (1 Bft) SW 225 2 min 0,000 mm 2,4 UV-I 594 W/m 10,4 C 20,9 C 8,0 km/h (2 Bft) 95,74 %
12.05.2017 16:32 21,1 C 18,3 C 51 % 1002,9 hPa 0,0 l/m 5,3 km/h (1 Bft) S-SW 198 2 min 0,000 mm 2,4 UV-I 590 W/m 10,6 C 21,1 C 9,7 km/h (2 Bft) 97,22 %
12.05.2017 16:34 21,1 C 18,3 C 51 % 1002,9 hPa 0,0 l/m 4,9 km/h (1 Bft) S-SW 195 2 min 0,000 mm 2,3 UV-I 584 W/m 10,6 C 21,1 C 8,0 km/h (2 Bft) 98,00 %
12.05.2017 16:36 21,2 C 18,3 C 51 % 1002,9 hPa 0,0 l/m 3,3 km/h (1 Bft) S-SW 212 2 min 0,000 mm 2,3 UV-I 580 W/m 10,7 C 21,2 C 6,4 km/h (2 Bft) 97,87 %
12.05.2017 16:38 21,1 C 18,3 C 50 % 1002,9 hPa 0,0 l/m 0,9 km/h (0 Bft) S-SW 212 2 min 0,000 mm 2,2 UV-I 574 W/m 10,3 C 21,1 C 3,2 km/h (1 Bft) 96,00 %
12.05.2017 16:40 21,3 C 18,3 C 51 % 1002,9 hPa 0,0 l/m 3,6 km/h (1 Bft) NW 306 2 min 0,000 mm 2,2 UV-I 570 W/m 10,7 C 21,3 C 6,4 km/h (2 Bft) 97,87 %
12.05.2017 16:42 21,3 C 18,3 C 51 % 1002,9 hPa 0,0 l/m 2,4 km/h (1 Bft) NW 319 2 min 0,000 mm 2,2 UV-I 566 W/m 10,7 C 21,3 C 4,8 km/h (1 Bft) 100,00 %
12.05.2017 16:44 21,3 C 18,3 C 46 % 1002,9 hPa 0,0 l/m 1,6 km/h (1 Bft) NW 318 2 min 0,000 mm 2,2 UV-I 561 W/m 9,2 C 21,3 C 4,8 km/h (1 Bft) 95,74 %
12.05.2017 16:46 21,2 C 18,3 C 46 % 1002,9 hPa 0,0 l/m 0,6 km/h (0 Bft) NW 318 2 min 0,000 mm 2,1 UV-I 556 W/m 9,1 C 21,2 C 1,6 km/h (1 Bft) 95,74 %
12.05.2017 16:48 21,1 C 18,3 C 49 % 1002,9 hPa 0,0 l/m 1,9 km/h (1 Bft) NO 54 2 min 0,000 mm 2,1 UV-I 553 W/m 10,0 C 21,1 C 4,8 km/h (1 Bft) 100,00 %
12.05.2017 16:50 21,2 C 18,3 C 49 % 1002,9 hPa 0,0 l/m 2,1 km/h (1 Bft) NW 306 2 min 0,000 mm 2,0 UV-I 547 W/m 10,1 C 21,2 C 4,8 km/h (1 Bft) 97,87 %
12.05.2017 16:52 21,3 C 18,3 C 48 % 1002,9 hPa 0,0 l/m 2,5 km/h (1 Bft) W-NW 300 2 min 0,000 mm 2,0 UV-I 541 W/m 9,8 C 21,3 C 4,8 km/h (1 Bft) 97,87 %
12.05.2017 16:54 21,3 C 18,3 C 46 % 1002,9 hPa 0,0 l/m 2,5 km/h (1 Bft) N-NW 329 2 min 0,000 mm 2,0 UV-I 536 W/m 9,2 C 21,3 C 4,8 km/h (1 Bft) 95,74 %
12.05.2017 16:56 21,3 C 18,3 C 46 % 1002,9 hPa 0,0 l/m 2,2 km/h (1 Bft) NW 319 2 min 0,000 mm 1,9 UV-I 531 W/m 9,2 C 21,3 C 4,8 km/h (1 Bft) 100,00 %
12.05.2017 16:58 21,3 C 18,3 C 47 % 1002,9 hPa 0,0 l/m 1,2 km/h (1 Bft) NW 320 2 min 0,000 mm 1,9 UV-I 525 W/m 9,5 C 21,3 C 3,2 km/h (1 Bft) 100,00 %
12.05.2017 17:00 21,4 C 18,3 C 47 % 1002,8 hPa 0,0 l/m 1,1 km/h (1 Bft) NW 315 2 min 0,000 mm 1,9 UV-I 523 W/m 9,6 C 21,4 C 3,2 km/h (1 Bft) 97,87 %
12.05.2017 17:02 21,3 C 18,3 C 44 % 1002,8 hPa 0,0 l/m 1,1 km/h (1 Bft) NW 317 2 min 0,381 mm 1,8 UV-I 519 W/m 8,5 C 21,3 C 3,2 km/h (1 Bft) 98,00 %
12.05.2017 17:04 21,3 C 18,3 C 46 % 1002,8 hPa 0,0 l/m 2,8 km/h (1 Bft) O-NO 61 2 min 0,000 mm 1,8 UV-I 515 W/m 9,2 C 21,3 C 4,8 km/h (1 Bft) 95,74 %
12.05.2017 17:06 21,3 C 18,3 C 48 % 1002,7 hPa 0,0 l/m 3,6 km/h (1 Bft) SW 216 2 min 0,000 mm 1,7 UV-I 457 W/m 9,8 C 21,3 C 8,0 km/h (2 Bft) 97,87 %
12.05.2017 17:08 21,4 C 18,3 C 47 % 1002,7 hPa 0,0 l/m 6,1 km/h (2 Bft) SW 236 2 min 0,000 mm 1,7 UV-I 498 W/m 9,6 C 21,4 C 9,7 km/h (2 Bft) 96,00 %
12.05.2017 17:10 21,5 C 18,3 C 46 % 1002,7 hPa 0,0 l/m 5,5 km/h (1 Bft) SW 215 2 min 0,000 mm 1,7 UV-I 504 W/m 9,4 C 21,5 C 12,9 km/h (3 Bft) 100,00 %
12.05.2017 17:12 21,5 C 18,3 C 47 % 1002,7 hPa 0,0 l/m 4,5 km/h (1 Bft) W 262 2 min 0,000 mm 1,6 UV-I 486 W/m 9,7 C 21,5 C 8,0 km/h (2 Bft) 97,87 %
12.05.2017 17:14 21,4 C 18,3 C 46 % 1002,7 hPa 0,0 l/m 2,3 km/h (1 Bft) W-NW 289 2 min 0,000 mm 1,6 UV-I 467 W/m 9,3 C 21,4 C 6,4 km/h (2 Bft) 100,00 %
12.05.2017 17:16 21,4 C 18,3 C 50 % 1002,7 hPa 0,0 l/m 1,6 km/h (1 Bft) W-NW 301 2 min 0,000 mm 1,3 UV-I 348 W/m 10,5 C 21,4 C 3,2 km/h (1 Bft) 98,00 %
12.05.2017 17:18 21,2 C 18,3 C 49 % 1002,6 hPa 0,0 l/m 1,0 km/h (0 Bft) W-NW 301 2 min 0,000 mm 1,5 UV-I 397 W/m 10,1 C 21,2 C 4,8 km/h (1 Bft) 98,31 %
12.05.2017 17:20 21,2 C 18,3 C 50 % 1002,6 hPa 0,0 l/m 0,1 km/h (0 Bft) W-NW 301 2 min 0,000 mm 1,5 UV-I 438 W/m 10,4 C 21,2 C 1,6 km/h (1 Bft) 97,14 %
12.05.2017 17:22 21,2 C 18,3 C 49 % 1002,6 hPa 0,0 l/m 1,0 km/h (0 Bft) W-NW 301 2 min 0,000 mm 1,4 UV-I 439 W/m 10,1 C 21,2 C 3,2 km/h (1 Bft) 98,00 %
12.05.2017 17:24 21,2 C 18,3 C 46 % 1002,6 hPa 0,0 l/m 1,1 km/h (1 Bft) SW 217 2 min 0,000 mm 1,3 UV-I 390 W/m 9,1 C 21,2 C 6,4 km/h (2 Bft) 97,87 %
12.05.2017 17:26 21,2 C 18,3 C 46 % 1002,6 hPa 0,0 l/m 2,8 km/h (1 Bft) W 273 2 min 0,000 mm 1,3 UV-I 371 W/m 9,1 C 21,2 C 8,0 km/h (2 Bft) 97,87 %
12.05.2017 17:28 21,2 C 18,3 C 45 % 1002,6 hPa 0,0 l/m 5,1 km/h (1 Bft) W-SW 246 2 min 0,000 mm 1,3 UV-I 386 W/m 8,8 C 21,2 C 9,7 km/h (2 Bft) 97,92 %
12.05.2017 17:30 21,3 C 18,3 C 47 % 1002,6 hPa 0,0 l/m 7,1 km/h (2 Bft) W-SW 247 2 min 0,000 mm 1,3 UV-I 403 W/m 9,5 C 21,0 C 11,3 km/h (2 Bft) 96,00 %
12.05.2017 17:32 21,3 C 18,3 C 46 % 1002,5 hPa 0,0 l/m 6,3 km/h (2 Bft) SW 234 2 min 0,000 mm 1,3 UV-I 382 W/m 9,2 C 21,3 C 8,0 km/h (2 Bft) 94,74 %
12.05.2017 17:34 21,3 C 18,3 C 48 % 1002,5 hPa 0,0 l/m 5,7 km/h (1 Bft) S-SW 207 2 min 0,000 mm 1,2 UV-I 377 W/m 9,8 C 21,3 C 9,7 km/h (2 Bft) 91,49 %
12.05.2017 17:36 21,3 C 18,3 C 47 % 1002,5 hPa 0,0 l/m 5,4 km/h (1 Bft) S-SW 200 2 min 0,000 mm 1,2 UV-I 418 W/m 9,5 C 21,3 C 8,0 km/h (2 Bft) 98,00 %
12.05.2017 17:38 21,2 C 18,3 C 46 % 1002,5 hPa 0,0 l/m 3,3 km/h (1 Bft) S 188 2 min 0,000 mm 1,2 UV-I 396 W/m 9,1 C 21,2 C 6,4 km/h (2 Bft) 89,36 %
12.05.2017 17:40 21,0 C 18,3 C 47 % 1002,5 hPa 0,0 l/m 2,7 km/h (1 Bft) SO 146 2 min 0,000 mm 1,1 UV-I 341 W/m 9,3 C 21,0 C 4,8 km/h (1 Bft) 93,62 %
12.05.2017 17:42 21,0 C 18,3 C 47 % 1002,5 hPa 0,0 l/m 2,6 km/h (1 Bft) SW 215 2 min 0,000 mm 1,0 UV-I 345 W/m 9,3 C 21,0 C 4,8 km/h (1 Bft) 97,87 %
12.05.2017 17:44 21,1 C 18,3 C 47 % 1002,5 hPa 0,0 l/m 4,8 km/h (1 Bft) SW 236 2 min 0,000 mm 1,0 UV-I 294 W/m 9,3 C 21,1 C 6,4 km/h (2 Bft) 93,62 %
12.05.2017 17:46 21,1 C 18,3 C 47 % 1002,5 hPa 0,0 l/m 2,6 km/h (1 Bft) SW 236 2 min 0,000 mm 0,9 UV-I 264 W/m 9,3 C 21,1 C 4,8 km/h (1 Bft) 93,62 %
12.05.2017 17:48 21,0 C 18,3 C 46 % 1002,4 hPa 0,0 l/m 2,0 km/h (1 Bft) W 271 2 min 0,000 mm 0,9 UV-I 290 W/m 8,9 C 21,0 C 6,4 km/h (2 Bft) 96,00 %
12.05.2017 17:50 20,8 C 18,3 C 46 % 1002,5 hPa 0,0 l/m 2,7 km/h (1 Bft) W-SW 248 2 min 0,000 mm 0,9 UV-I 275 W/m 8,8 C 20,8 C 4,8 km/h (1 Bft) 97,87 %
12.05.2017 17:52 20,9 C 18,3 C 47 % 1002,5 hPa 0,0 l/m 4,8 km/h (1 Bft) SW 233 2 min 0,000 mm 0,9 UV-I 277 W/m 9,2 C 20,9 C 6,4 km/h (2 Bft) 95,74 %
12.05.2017 17:54 21,0 C 18,3 C 46 % 1002,5 hPa 0,0 l/m 2,6 km/h (1 Bft) SW 233 2 min 0,000 mm 0,9 UV-I 292 W/m 8,9 C 21,0 C 6,4 km/h (2 Bft) 97,92 %
12.05.2017 17:56 20,9 C 18,3 C 47 % 1002,5 hPa 0,0 l/m 2,1 km/h (1 Bft) SW 233 2 min 0,000 mm 0,8 UV-I 279 W/m 9,2 C 20,9 C 4,8 km/h (1 Bft) 97,87 %
12.05.2017 17:58 20,9 C 18,3 C 47 % 1002,5 hPa 0,0 l/m 0,9 km/h (0 Bft) SW 231 2 min 0,000 mm 0,8 UV-I 259 W/m 9,2 C 20,9 C 3,2 km/h (1 Bft) 97,87 %
12.05.2017 18:00 20,9 C 18,3 C 48 % 1002,6 hPa 0,0 l/m 2,7 km/h (1 Bft) S 175 2 min 0,254 mm 0,8 UV-I 267 W/m 9,5 C 20,9 C 8,0 km/h (2 Bft) 97,87 %
12.05.2017 18:02 20,9 C 18,3 C 49 % 1002,6 hPa 0,0 l/m 1,6 km/h (1 Bft) S 175 2 min 0,000 mm 0,8 UV-I 290 W/m 9,8 C 20,9 C 4,8 km/h (1 Bft) 94,74 %
12.05.2017 18:04 20,8 C 18,3 C 47 % 1002,6 hPa 0,0 l/m 2,1 km/h (1 Bft) S 175 2 min 0,000 mm 0,8 UV-I 306 W/m 9,1 C 20,8 C 4,8 km/h (1 Bft) 95,74 %
12.05.2017 18:06 20,8 C 18,3 C 50 % 1002,5 hPa 0,0 l/m 2,5 km/h (1 Bft) S 169 2 min 0,000 mm 0,8 UV-I 312 W/m 10,0 C 20,8 C 6,4 km/h (2 Bft) 100,00 %
12.05.2017 18:08 20,9 C 18,3 C 48 % 1002,6 hPa 0,0 l/m 1,5 km/h (1 Bft) S 169 2 min 0,000 mm 0,7 UV-I 300 W/m 9,5 C 20,9 C 3,2 km/h (1 Bft) 100,00 %
12.05.2017 18:10 20,8 C 18,3 C 49 % 1002,6 hPa 0,0 l/m 3,0 km/h (1 Bft) S 169 2 min 0,000 mm 0,7 UV-I 315 W/m 9,7 C 20,8 C 6,4 km/h (2 Bft) 100,00 %
12.05.2017 18:12 20,9 C 18,3 C 51 % 1002,6 hPa 0,0 l/m 2,6 km/h (1 Bft) S 169 2 min 0,000 mm 0,7 UV-I 306 W/m 10,4 C 20,9 C 6,4 km/h (2 Bft) 100,00 %
12.05.2017 18:16 20,9 C 18,3 C 50 % 1002,5 hPa 0,0 l/m 1,4 km/h (1 Bft) W-SW 251 4 min 0,000 mm 0,7 UV-I 309 W/m 10,1 C 20,9 C 4,8 km/h (1 Bft) 93,33 %
12.05.2017 18:18 21,0 C 18,3 C 47 % 1002,5 hPa 0,0 l/m 4,1 km/h (1 Bft) W-SW 252 2 min 0,000 mm 0,7 UV-I 295 W/m 9,3 C 21,0 C 6,4 km/h (2 Bft) 100,00 %
12.05.2017 18:20 21,1 C 18,3 C 47 % 1002,5 hPa 0,0 l/m 4,9 km/h (1 Bft) W-SW 258 2 min 0,000 mm 0,6 UV-I 282 W/m 9,3 C 21,1 C 8,0 km/h (2 Bft) 100,00 %
12.05.2017 18:22 21,2 C 18,3 C 47 % 1002,5 hPa 0,0 l/m 4,9 km/h (1 Bft) W-SW 254 2 min 0,000 mm 0,6 UV-I 293 W/m 9,4 C 21,2 C 6,4 km/h (2 Bft) 98,00 %
12.05.2017 18:24 21,3 C 18,3 C 44 % 1002,5 hPa 0,0 l/m 7,0 km/h (2 Bft) W-SW 246 2 min 0,000 mm 0,6 UV-I 287 W/m 8,5 C 21,1 C 8,0 km/h (2 Bft) 100,00 %
12.05.2017 18:26 21,2 C 18,3 C 44 % 1002,4 hPa 0,0 l/m 3,4 km/h (1 Bft) W-SW 246 2 min 0,000 mm 0,6 UV-I 280 W/m 8,5 C 21,2 C 6,4 km/h (2 Bft) 97,56 %
12.05.2017 18:28 21,2 C 18,3 C 46 % 1002,5 hPa 0,0 l/m 0,4 km/h (0 Bft) W-SW 246 2 min 0,000 mm 0,5 UV-I 270 W/m 9,1 C 21,2 C 1,6 km/h (1 Bft) 96,61 %
12.05.2017 18:30 21,1 C 18,3 C 47 % 1002,5 hPa 0,0 l/m 0,2 km/h (0 Bft) W-SW 245 2 min 0,000 mm 0,5 UV-I 257 W/m 9,3 C 21,1 C 1,6 km/h (1 Bft) 93,62 %
12.05.2017 18:32 21,1 C 18,3 C 45 % 1002,5 hPa 0,0 l/m 0,2 km/h (0 Bft) W-SW 246 2 min 0,000 mm 0,5 UV-I 263 W/m 8,7 C 21,1 C 1,6 km/h (1 Bft) 100,00 %
12.05.2017 18:34 21,1 C 18,3 C 48 % 1002,5 hPa 0,0 l/m 1,6 km/h (1 Bft) W-SW 246 2 min 0,000 mm 0,5 UV-I 261 W/m 9,7 C 21,1 C 3,2 km/h (1 Bft) 98,11 %
12.05.2017 18:36 21,2 C 18,3 C 47 % 1002,5 hPa 0,0 l/m 2,6 km/h (1 Bft) W-SW 246 2 min 0,000 mm 0,3 UV-I 197 W/m 9,4 C 21,2 C 3,2 km/h (1 Bft) 100,00 %
12.05.2017 18:38 21,1 C 18,3 C 48 % 1002,5 hPa 0,0 l/m 1,5 km/h (1 Bft) W-SW 247 0 min 0,000 mm 0,0 UV-I 92 W/m 9,7 C 21,1 C 3,2 km/h (1 Bft) 100,00 %
12.05.2017 18:40 20,8 C 18,3 C 52 % 1002,5 hPa 0,0 l/m 0,2 km/h (0 Bft) W-SW 247 2 min 0,000 mm 0,0 UV-I 176 W/m 10,6 C 20,8 C 1,6 km/h (1 Bft) 100,00 %
12.05.2017 18:42 20,9 C 18,3 C 45 % 1002,4 hPa 0,0 l/m 0,3 km/h (0 Bft) W-SW 247 2 min 0,000 mm 0,0 UV-I 236 W/m 8,5 C 20,9 C 1,6 km/h (1 Bft) 98,00 %
12.05.2017 18:44 21,1 C 18,3 C 47 % 1002,4 hPa 0,0 l/m 0,1 km/h (0 Bft) W-SW 247 2 min 0,000 mm 0,0 UV-I 199 W/m 9,3 C 21,1 C 1,6 km/h (1 Bft) 94,74 %
12.05.2017 18:46 21,1 C 18,3 C 46 % 1002,4 hPa 0,0 l/m 2,2 km/h (1 Bft) W-NW 282 2 min 0,000 mm 0,0 UV-I 224 W/m 9,0 C 21,1 C 6,4 km/h (2 Bft) 100,00 %
12.05.2017 18:48 21,1 C 18,3 C 47 % 1002,4 hPa 0,0 l/m 1,9 km/h (1 Bft) W 263 0 min 0,000 mm 0,0 UV-I 120 W/m 9,3 C 21,1 C 6,4 km/h (2 Bft) 92,31 %
12.05.2017 18:50 20,9 C 18,3 C 47 % 1002,5 hPa 0,0 l/m 4,6 km/h (1 Bft) W 267 0 min 0,000 mm 0,0 UV-I 85 W/m 9,2 C 20,9 C 6,4 km/h (2 Bft) 100,00 %
12.05.2017 18:52 20,7 C 18,3 C 47 % 1002,5 hPa 0,0 l/m 2,3 km/h (1 Bft) W 267 0 min 0,000 mm 0,0 UV-I 86 W/m 9,0 C 20,7 C 4,8 km/h (1 Bft) 100,00 %
12.05.2017 18:54 20,6 C 18,3 C 47 % 1002,6 hPa 0,0 l/m 0,8 km/h (0 Bft) W 267 0 min 0,000 mm 0,0 UV-I 92 W/m 8,9 C 20,6 C 1,6 km/h (1 Bft) 96,23 %
12.05.2017 18:56 20,4 C 18,3 C 52 % 1002,6 hPa 0,0 l/m 0,2 km/h (0 Bft) W 267 0 min 0,000 mm 0,0 UV-I 116 W/m 10,2 C 20,4 C 1,6 km/h (1 Bft) 98,00 %
12.05.2017 18:58 20,3 C 18,3 C 50 % 1002,5 hPa 0,0 l/m 0,0 km/h (0 Bft) W 267 0 min 0,000 mm 0,0 UV-I 103 W/m 9,5 C 20,3 C 0,0 km/h (0 Bft) 97,56 %
12.05.2017 19:00 20,2 C 18,3 C 52 % 1002,5 hPa 0,0 l/m 0,0 km/h (0 Bft) W 267 0 min 0,000 mm 0,0 UV-I 109 W/m 10,0 C 20,2 C 0,0 km/h (0 Bft) 94,23 %
12.05.2017 19:02 20,2 C 18,3 C 50 % 1002,6 hPa 0,0 l/m 0,0 km/h (0 Bft) W 267 0 min 0,152 mm 0,0 UV-I 119 W/m 9,4 C 20,2 C 1,6 km/h (1 Bft) 100,00 %
12.05.2017 19:04 20,1 C 18,3 C 57 % 1002,6 hPa 0,0 l/m 0,0 km/h (0 Bft) W 267 2 min 0,000 mm 0,0 UV-I 147 W/m 11,3 C 20,1 C 0,0 km/h (0 Bft) 96,43 %
12.05.2017 19:06 20,0 C 18,3 C 56 % 1002,6 hPa 0,0 l/m 0,0 km/h (0 Bft) W 267 2 min 0,000 mm 0,0 UV-I 172 W/m 11,0 C 20,0 C 1,6 km/h (1 Bft) 95,74 %
12.05.2017 19:08 19,9 C 18,3 C 55 % 1002,6 hPa 0,0 l/m 0,1 km/h (0 Bft) W 267 2 min 0,000 mm 0,0 UV-I 175 W/m 10,6 C 19,9 C 1,6 km/h (1 Bft) 98,00 %
12.05.2017 19:10 20,2 C 18,3 C 53 % 1002,6 hPa 0,0 l/m 0,0 km/h (0 Bft) W 267 2 min 0,000 mm 0,0 UV-I 221 W/m 10,3 C 20,2 C 0,0 km/h (0 Bft) 95,74 %
12.05.2017 19:12 20,4 C 18,3 C 55 % 1002,5 hPa 0,0 l/m 2,0 km/h (1 Bft) W 267 2 min 0,000 mm 0,0 UV-I 219 W/m 11,1 C 20,4 C 3,2 km/h (1 Bft) 94,74 %
12.05.2017 19:14 20,5 C 18,3 C 53 % 1002,5 hPa 0,0 l/m 1,6 km/h (1 Bft) W 267 2 min 0,000 mm 0,0 UV-I 210 W/m 10,6 C 20,5 C 3,2 km/h (1 Bft) 97,87 %
12.05.2017 19:16 20,6 C 18,3 C 52 % 1002,5 hPa 0,0 l/m 2,0 km/h (1 Bft) W 267 2 min 0,000 mm 0,0 UV-I 199 W/m 10,4 C 20,6 C 3,2 km/h (1 Bft) 97,92 %
12.05.2017 19:18 20,6 C 18,3 C 52 % 1002,6 hPa 0,0 l/m 1,8 km/h (1 Bft) W 267 2 min 0,000 mm 0,0 UV-I 196 W/m 10,4 C 20,6 C 3,2 km/h (1 Bft) 93,62 %
12.05.2017 19:20 20,6 C 18,3 C 53 % 1002,6 hPa 0,0 l/m 1,6 km/h (1 Bft) W 267 2 min 0,000 mm 0,0 UV-I 139 W/m 10,7 C 20,6 C 3,2 km/h (1 Bft) 94,34 %
12.05.2017 19:22 20,4 C 18,3 C 53 % 1002,6 hPa 0,0 l/m 2,5 km/h (1 Bft) W 268 2 min 0,000 mm 0,0 UV-I 103 W/m 10,5 C 20,4 C 4,8 km/h (1 Bft) 97,37 %
12.05.2017 19:24 20,3 C 18,3 C 54 % 1002,7 hPa 0,0 l/m 2,8 km/h (1 Bft) N-NW 345 2 min 0,000 mm 0,0 UV-I 100 W/m 10,7 C 20,3 C 4,8 km/h (1 Bft) 94,34 %
12.05.2017 19:26 20,2 C 18,3 C 53 % 1002,8 hPa 0,0 l/m 1,5 km/h (1 Bft) N-NW 345 2 min 0,000 mm 0,0 UV-I 98 W/m 10,3 C 20,2 C 3,2 km/h (1 Bft) 96,00 %
12.05.2017 19:28 20,2 C 18,3 C 54 % 1002,9 hPa 0,0 l/m 0,5 km/h (0 Bft) N-NW 345 2 min 0,000 mm 0,0 UV-I 105 W/m 10,6 C 20,2 C 1,6 km/h (1 Bft) 91,49 %
12.05.2017 19:30 20,1 C 18,3 C 59 % 1002,9 hPa 0,0 l/m 1,2 km/h (1 Bft) N-NW 345 2 min 0,000 mm 0,0 UV-I 135 W/m 11,8 C 20,1 C 3,2 km/h (1 Bft) 95,65 %
12.05.2017 19:32 20,1 C 18,3 C 54 % 1002,9 hPa 0,0 l/m 2,3 km/h (1 Bft) N-NW 345 2 min 0,000 mm 0,0 UV-I 128 W/m 10,5 C 20,1 C 3,2 km/h (1 Bft) 92,31 %
12.05.2017 19:34 20,0 C 18,3 C 55 % 1002,9 hPa 0,0 l/m 1,8 km/h (1 Bft) N-NW 346 2 min 0,000 mm 0,0 UV-I 94 W/m 10,7 C 20,0 C 3,2 km/h (1 Bft) 98,00 %
12.05.2017 19:36 19,9 C 18,3 C 53 % 1002,9 hPa 0,0 l/m 1,3 km/h (1 Bft) N-NW 346 2 min 0,000 mm 0,0 UV-I 86 W/m 10,0 C 19,9 C 1,6 km/h (1 Bft) 92,00 %
12.05.2017 19:38 19,9 C 18,3 C 55 % 1002,9 hPa 0,0 l/m 1,4 km/h (1 Bft) N-NW 346 2 min 0,000 mm 0,0 UV-I 79 W/m 10,6 C 19,9 C 3,2 km/h (1 Bft) 95,35 %
12.05.2017 19:40 19,8 C 18,3 C 58 % 1002,9 hPa 0,0 l/m 2,0 km/h (1 Bft) N-NW 346 2 min 0,000 mm 0,0 UV-I 71 W/m 11,3 C 19,8 C 3,2 km/h (1 Bft) 96,00 %
12.05.2017 19:42 19,6 C 18,3 C 57 % 1002,9 hPa 0,0 l/m 1,1 km/h (1 Bft) N-NW 346 0 min 0,000 mm 0,0 UV-I 63 W/m 10,8 C 19,6 C 3,2 km/h (1 Bft) 92,00 %
12.05.2017 19:44 19,4 C 18,3 C 57 % 1003,0 hPa 0,0 l/m 2,0 km/h (1 Bft) N-NW 346 0 min 0,000 mm 0,0 UV-I 53 W/m 10,7 C 19,4 C 3,2 km/h (1 Bft) 97,73 %
12.05.2017 19:46 19,3 C 18,3 C 60 % 1003,0 hPa 0,0 l/m 1,5 km/h (1 Bft) N-NW 346 0 min 0,000 mm 0,0 UV-I 43 W/m 11,3 C 19,3 C 3,2 km/h (1 Bft) 93,62 %
12.05.2017 19:48 19,1 C 18,3 C 61 % 1003,0 hPa 0,0 l/m 2,0 km/h (1 Bft) N-NW 346 0 min 0,000 mm 0,0 UV-I 36 W/m 11,4 C 19,1 C 3,2 km/h (1 Bft) 92,68 %
12.05.2017 19:50 18,9 C 18,3 C 61 % 1003,1 hPa 0,0 l/m 3,0 km/h (1 Bft) N 355 0 min 0,000 mm 0,0 UV-I 36 W/m 11,2 C 18,9 C 4,8 km/h (1 Bft) 90,00 %
12.05.2017 19:52 18,8 C 18,3 C 63 % 1003,1 hPa 0,0 l/m 2,3 km/h (1 Bft) N 355 0 min 0,000 mm 0,0 UV-I 31 W/m 11,6 C 18,8 C 3,2 km/h (1 Bft) 90,57 %
12.05.2017 19:54 18,8 C 18,3 C 62 % 1003,1 hPa 0,0 l/m 1,5 km/h (1 Bft) N 355 0 min 0,000 mm 0,0 UV-I 28 W/m 11,4 C 18,8 C 3,2 km/h (1 Bft) 86,84 %
12.05.2017 19:56 18,7 C 18,3 C 63 % 1003,2 hPa 0,0 l/m 2,1 km/h (1 Bft) N 355 0 min 0,000 mm 0,0 UV-I 40 W/m 11,5 C 18,7 C 3,2 km/h (1 Bft) 93,62 %
12.05.2017 19:58 18,7 C 18,3 C 63 % 1003,3 hPa 0,0 l/m 2,3 km/h (1 Bft) N 355 2 min 0,000 mm 0,0 UV-I 48 W/m 11,5 C 18,7 C 3,2 km/h (1 Bft) 92,00 %
12.05.2017 20:00 18,6 C 18,3 C 64 % 1003,3 hPa 0,0 l/m 2,4 km/h (1 Bft) N 355 2 min 0,076 mm 0,0 UV-I 41 W/m 11,7 C 18,6 C 3,2 km/h (1 Bft) 90,57 %
12.05.2017 20:02 18,6 C 18,3 C 62 % 1003,3 hPa 0,0 l/m 2,4 km/h (1 Bft) N 360 2 min 0,000 mm 0,0 UV-I 42 W/m 11,2 C 18,6 C 3,2 km/h (1 Bft) 88,57 %
12.05.2017 20:04 18,7 C 18,3 C 60 % 1003,3 hPa 0,0 l/m 2,3 km/h (1 Bft) N 360 2 min 0,000 mm 0,0 UV-I 41 W/m 10,8 C 18,7 C 3,2 km/h (1 Bft) 94,64 %
12.05.2017 20:06 18,8 C 18,3 C 60 % 1003,3 hPa 0,0 l/m 2,1 km/h (1 Bft) N 360 2 min 0,000 mm 0,0 UV-I 36 W/m 10,9 C 18,8 C 3,2 km/h (1 Bft) 97,44 %
12.05.2017 20:08 18,9 C 18,3 C 57 % 1003,2 hPa 0,0 l/m 2,0 km/h (1 Bft) N 360 2 min 0,000 mm 0,0 UV-I 36 W/m 10,2 C 18,9 C 3,2 km/h (1 Bft) 93,62 %
12.05.2017 20:10 19,1 C 18,3 C 58 % 1003,2 hPa 0,0 l/m 1,5 km/h (1 Bft) N 360 2 min 0,000 mm 0,0 UV-I 30 W/m 10,6 C 19,1 C 3,2 km/h (1 Bft) 96,00 %
12.05.2017 20:12 19,2 C 18,3 C 55 % 1003,2 hPa 0,0 l/m 0,6 km/h (0 Bft) N 360 2 min 0,000 mm 0,0 UV-I 27 W/m 9,9 C 19,2 C 3,2 km/h (1 Bft) 93,62 %
12.05.2017 20:14 19,3 C 18,3 C 55 % 1003,1 hPa 0,0 l/m 1,1 km/h (1 Bft) N 360 2 min 0,000 mm 0,0 UV-I 26 W/m 10,0 C 19,3 C 1,6 km/h (1 Bft) 97,87 %
12.05.2017 20:16 19,3 C 18,3 C 55 % 1003,1 hPa 0,0 l/m 1,6 km/h (1 Bft) N 360 2 min 0,000 mm 0,0 UV-I 24 W/m 10,0 C 19,3 C 3,2 km/h (1 Bft) 96,23 %
12.05.2017 20:18 19,2 C 18,3 C 55 % 1003,1 hPa 0,0 l/m 1,7 km/h (1 Bft) N 360 2 min 0,000 mm 0,0 UV-I 22 W/m 9,9 C 19,2 C 3,2 km/h (1 Bft) 91,49 %
12.05.2017 20:20 19,2 C 18,3 C 55 % 1003,2 hPa 0,0 l/m 0,7 km/h (0 Bft) N 360 2 min 0,000 mm 0,0 UV-I 19 W/m 9,9 C 19,2 C 1,6 km/h (1 Bft) 97,56 %
12.05.2017 20:23 19,1 C 18,3 C 56 % 1003,4 hPa 0,0 l/m 0,0 km/h (0 Bft) N 360 0 min 0,000 mm 0,0 UV-I 19 W/m 10,1 C 19,1 C 1,6 km/h (1 Bft) 97,37 %
12.05.2017 20:24 18,9 C 18,3 C 61 % 1003,4 hPa 0,0 l/m 0,0 km/h (0 Bft) N 360 0 min 0,000 mm 0,0 UV-I 18 W/m 11,2 C 18,9 C 0,0 km/h (0 Bft) 100,00 %
12.05.2017 20:26 18,6 C 18,3 C 62 % 1003,5 hPa 0,0 l/m 0,0 km/h (0 Bft) N 360 0 min 0,000 mm 0,0 UV-I 15 W/m 11,2 C 18,6 C 0,0 km/h (0 Bft) 91,49 %
12.05.2017 20:28 18,3 C 18,3 C 66 % 1003,5 hPa 0,0 l/m 0,9 km/h (0 Bft) N 360 0 min 0,000 mm 0,0 UV-I 11 W/m 11,8 C 18,3 C 1,6 km/h (1 Bft) 96,00 %
12.05.2017 20:30 18,1 C 18,3 C 66 % 1003,6 hPa 0,0 l/m 0,3 km/h (0 Bft) N 360 0 min 0,000 mm 0,0 UV-I 10 W/m 11,6 C 18,1 C 1,6 km/h (1 Bft) 97,87 %
12.05.2017 20:32 18,0 C 18,3 C 66 % 1003,5 hPa 0,0 l/m 0,6 km/h (0 Bft) N 360 0 min 0,000 mm 0,0 UV-I 7 W/m 11,6 C 18,0 C 1,6 km/h (1 Bft) 92,68 %
12.05.2017 20:34 17,8 C 18,3 C 67 % 1003,5 hPa 0,0 l/m 0,5 km/h (0 Bft) N 360 0 min 0,000 mm 0,0 UV-I 7 W/m 11,6 C 17,8 C 1,6 km/h (1 Bft) 96,36 %
12.05.2017 20:36 17,7 C 18,3 C 67 % 1003,5 hPa 0,0 l/m 0,0 km/h (0 Bft) N 360 0 min 0,000 mm 0,0 UV-I 5 W/m 11,5 C 17,7 C 0,0 km/h (0 Bft) 98,00 %
12.05.2017 20:38 17,6 C 18,3 C 69 % 1003,5 hPa 0,0 l/m 0,0 km/h (0 Bft) N 360 0 min 0,000 mm 0,0 UV-I 5 W/m 11,8 C 17,6 C 0,0 km/h (0 Bft) 94,74 %
12.05.2017 20:40 17,4 C 18,3 C 72 % 1003,5 hPa 0,0 l/m 0,6 km/h (0 Bft) N 360 0 min 0,000 mm 0,0 UV-I 5 W/m 12,3 C 17,4 C 1,6 km/h (1 Bft) 93,62 %
12.05.2017 20:42 17,3 C 18,3 C 73 % 1003,5 hPa 0,0 l/m 0,0 km/h (0 Bft) N 360 0 min 0,000 mm 0,0 UV-I 5 W/m 12,4 C 17,3 C 0,0 km/h (0 Bft) 100,00 %
12.05.2017 20:44 17,2 C 18,3 C 75 % 1003,5 hPa 0,0 l/m 0,0 km/h (0 Bft) N 360 0 min 0,000 mm 0,0 UV-I 5 W/m 12,7 C 17,2 C 0,0 km/h (0 Bft) 98,00 %
12.05.2017 20:46 17,1 C 18,3 C 74 % 1003,5 hPa 0,0 l/m 0,0 km/h (0 Bft) N 360 0 min 0,000 mm 0,0 UV-I 2 W/m 12,4 C 17,1 C 1,6 km/h (1 Bft) 98,00 %
12.05.2017 20:48 16,9 C 18,3 C 74 % 1003,5 hPa 0,0 l/m 1,7 km/h (1 Bft) N 360 0 min 0,000 mm 0,0 UV-I 0 W/m 12,2 C 16,9 C 3,2 km/h (1 Bft) 94,87 %
12.05.2017 20:50 16,8 C 18,3 C 75 % 1003,6 hPa 0,0 l/m 1,9 km/h (1 Bft) N 360 0 min 0,000 mm 0,0 UV-I 0 W/m 12,3 C 16,8 C 3,2 km/h (1 Bft) 96,00 %
12.05.2017 20:52 16,6 C 18,3 C 77 % 1003,6 hPa 0,0 l/m 0,6 km/h (0 Bft) N 360 0 min 0,000 mm 0,0 UV-I 0 W/m 12,5 C 16,6 C 1,6 km/h (1 Bft) 96,23 %
12.05.2017 20:54 16,6 C 18,3 C 76 % 1003,7 hPa 0,0 l/m 0,0 km/h (0 Bft) N 360 0 min 0,000 mm 0,0 UV-I 0 W/m 12,3 C 16,6 C 0,0 km/h (0 Bft) 100,00 %
12.05.2017 20:56 16,5 C 18,3 C 74 % 1003,7 hPa 0,0 l/m 0,3 km/h (0 Bft) N 360 0 min 0,000 mm 0,0 UV-I 0 W/m 11,8 C 16,5 C 1,6 km/h (1 Bft) 100,00 %
12.05.2017 20:58 16,6 C 18,3 C 72 % 1003,8 hPa 0,0 l/m 1,1 km/h (1 Bft) N 360 0 min 0,000 mm 0,0 UV-I 0 W/m 11,5 C 16,6 C 1,6 km/h (1 Bft) 94,00 %
12.05.2017 21:00 16,7 C 18,3 C 71 % 1003,8 hPa 0,0 l/m 0,0 km/h (0 Bft) N 360 0 min 0,000 mm 0,0 UV-I 0 W/m 11,4 C 16,7 C 0,0 km/h (0 Bft) 100,00 %
12.05.2017 21:02 16,7 C 18,3 C 72 % 1003,8 hPa 0,0 l/m 0,0 km/h (0 Bft) N 360 0 min 0,026 mm 0,0 UV-I 0 W/m 11,6 C 16,7 C 0,0 km/h (0 Bft) 100,00 %
12.05.2017 21:04 16,5 C 18,3 C 72 % 1003,8 hPa 0,0 l/m 0,0 km/h (0 Bft) N 360 0 min 0,000 mm 0,0 UV-I 0 W/m 11,4 C 16,5 C 0,0 km/h (0 Bft) 100,00 %
12.05.2017 21:06 16,3 C 18,3 C 71 % 1003,8 hPa 0,0 l/m 0,1 km/h (0 Bft) N 360 0 min 0,000 mm 0,0 UV-I 0 W/m 11,0 C 16,3 C 1,6 km/h (1 Bft) 100,00 %
12.05.2017 21:08 16,2 C 18,3 C 73 % 1003,8 hPa 0,0 l/m 0,1 km/h (0 Bft) N 360 0 min 0,000 mm 0,0 UV-I 0 W/m 11,4 C 16,2 C 1,6 km/h (1 Bft) 97,87 %
12.05.2017 21:10 16,1 C 18,3 C 73 % 1003,8 hPa 0,0 l/m 0,4 km/h (0 Bft) N 360 0 min 0,000 mm 0,0 UV-I 0 W/m 11,3 C 16,1 C 1,6 km/h (1 Bft) 98,11 %
12.05.2017 21:12 16,1 C 18,3 C 74 % 1003,8 hPa 0,0 l/m 1,2 km/h (1 Bft) N 360 0 min 0,000 mm 0,0 UV-I 0 W/m 11,5 C 16,1 C 1,6 km/h (1 Bft) 98,00 %
12.05.2017 21:14 16,0 C 18,3 C 74 % 1003,9 hPa 0,0 l/m 0,4 km/h (0 Bft) N 360 0 min 0,000 mm 0,0 UV-I 0 W/m 11,4 C 16,0 C 1,6 km/h (1 Bft) 89,47 %
12.05.2017 21:16 16,1 C 18,3 C 74 % 1003,9 hPa 0,0 l/m 0,0 km/h (0 Bft) N 360 0 min 0,000 mm 0,0 UV-I 0 W/m 11,5 C 16,1 C 0,0 km/h (0 Bft) 98,11 %
12.05.2017 21:18 16,1 C 18,3 C 74 % 1004,0 hPa 0,0 l/m 0,0 km/h (0 Bft) N 360 0 min 0,000 mm 0,0 UV-I 0 W/m 11,5 C 16,1 C 0,0 km/h (0 Bft) 97,56 %
12.05.2017 21:20 16,1 C 18,3 C 74 % 1004,0 hPa 0,0 l/m 0,0 km/h (0 Bft) N 360 0 min 0,000 mm 0,0 UV-I 0 W/m 11,5 C 16,1 C 0,0 km/h (0 Bft) 95,74 %
12.05.2017 21:22 16,1 C 18,3 C 75 % 1004,1 hPa 0,0 l/m 0,0 km/h (0 Bft) N 360 0 min 0,000 mm 0,0 UV-I 0 W/m 11,7 C 16,1 C 1,6 km/h (1 Bft) 98,00 %
12.05.2017 21:24 16,0 C 18,3 C 74 % 1004,1 hPa 0,0 l/m 0,0 km/h (0 Bft) N 360 0 min 0,000 mm 0,0 UV-I 0 W/m 11,4 C 16,0 C 0,0 km/h (0 Bft) 94,34 %
12.05.2017 21:26 16,1 C 18,3 C 74 % 1004,1 hPa 0,0 l/m 0,0 km/h (0 Bft) N 360 0 min 0,000 mm 0,0 UV-I 0 W/m 11,5 C 16,1 C 0,0 km/h (0 Bft) 100,00 %
12.05.2017 21:28 16,1 C 18,3 C 74 % 1004,1 hPa 0,0 l/m 0,0 km/h (0 Bft) N 360 0 min 0,000 mm 0,0 UV-I 0 W/m 11,5 C 16,1 C 0,0 km/h (0 Bft) 100,00 %
12.05.2017 21:30 16,1 C 18,3 C 74 % 1004,1 hPa 0,0 l/m 0,0 km/h (0 Bft) N 360 0 min 0,000 mm 0,0 UV-I 0 W/m 11,5 C 16,1 C 0,0 km/h (0 Bft) 95,74 %
12.05.2017 21:32 16,2 C 18,3 C 74 % 1004,1 hPa 0,0 l/m 0,0 km/h (0 Bft) N 360 0 min 0,000 mm 0,0 UV-I 0 W/m 11,6 C 16,2 C 0,0 km/h (0 Bft) 100,00 %
12.05.2017 21:34 16,1 C 18,3 C 76 % 1004,2 hPa 0,0 l/m 0,0 km/h (0 Bft) N 360 0 min 0,000 mm 0,0 UV-I 0 W/m 11,9 C 16,1 C 0,0 km/h (0 Bft) 97,87 %
12.05.2017 21:36 15,9 C 18,3 C 76 % 1004,2 hPa 0,0 l/m 0,0 km/h (0 Bft) N 360 0 min 0,000 mm 0,0 UV-I 0 W/m 11,7 C 15,9 C 0,0 km/h (0 Bft) 94,29 %
12.05.2017 21:38 15,9 C 18,3 C 75 % 1004,1 hPa 0,0 l/m 0,0 km/h (0 Bft) N 360 0 min 0,000 mm 0,0 UV-I 0 W/m 11,5 C 15,9 C 0,0 km/h (0 Bft) 94,34 %
12.05.2017 21:40 15,9 C 18,3 C 76 % 1004,1 hPa 0,0 l/m 0,0 km/h (0 Bft) N 360 0 min 0,000 mm 0,0 UV-I 0 W/m 11,7 C 15,9 C 0,0 km/h (0 Bft) 98,00 %
12.05.2017 21:42 15,8 C 18,3 C 77 % 1004,1 hPa 0,0 l/m 0,0 km/h (0 Bft) N 360 0 min 0,000 mm 0,0 UV-I 0 W/m 11,8 C 15,8 C 0,0 km/h (0 Bft) 95,74 %
12.05.2017 21:44 15,7 C 18,3 C 80 % 1004,1 hPa 0,0 l/m 0,0 km/h (0 Bft) N 360 0 min 0,000 mm 0,0 UV-I 0 W/m 12,3 C 15,7 C 0,0 km/h (0 Bft) 96,00 %
12.05.2017 21:46 15,6 C 18,3 C 81 % 1004,1 hPa 0,0 l/m 0,0 km/h (0 Bft) N 360 0 min 0,000 mm 0,0 UV-I 0 W/m 12,3 C 15,6 C 0,0 km/h (0 Bft) 97,37 %
12.05.2017 21:48 15,4 C 18,3 C 81 % 1004,1 hPa 0,0 l/m 0,0 km/h (0 Bft) N 360 0 min 0,000 mm 0,0 UV-I 0 W/m 12,2 C 15,4 C 0,0 km/h (0 Bft) 92,45 %
12.05.2017 21:50 15,4 C 18,3 C 81 % 1004,2 hPa 0,0 l/m 0,7 km/h (0 Bft) N 360 0 min 0,000 mm 0,0 UV-I 0 W/m 12,2 C 15,4 C 1,6 km/h (1 Bft) 96,00 %
12.05.2017 21:52 15,4 C 18,3 C 79 % 1004,1 hPa 0,0 l/m 0,4 km/h (0 Bft) N 360 0 min 0,000 mm 0,0 UV-I 0 W/m 11,8 C 15,4 C 1,6 km/h (1 Bft) 97,37 %
12.05.2017 21:54 15,3 C 18,3 C 80 % 1004,1 hPa 0,0 l/m 1,2 km/h (1 Bft) N 360 0 min 0,000 mm 0,0 UV-I 0 W/m 11,9 C 15,3 C 3,2 km/h (1 Bft) 94,00 %
12.05.2017 21:56 15,3 C 18,3 C 79 % 1004,1 hPa 0,0 l/m 0,0 km/h (0 Bft) N 360 0 min 0,000 mm 0,0 UV-I 0 W/m 11,7 C 15,3 C 0,0 km/h (0 Bft) 98,00 %
12.05.2017 21:58 15,2 C 18,3 C 79 % 1004,1 hPa 0,0 l/m 1,6 km/h (1 Bft) N 360 0 min 0,000 mm 0,0 UV-I 0 W/m 11,6 C 15,2 C 3,2 km/h (1 Bft) 97,87 %
12.05.2017 22:00 15,2 C 18,3 C 79 % 1004,1 hPa 0,0 l/m 2,0 km/h (1 Bft) N 360 0 min 0,000 mm 0,0 UV-I 0 W/m 11,6 C 15,2 C 3,2 km/h (1 Bft) 97,37 %
12.05.2017 22:02 15,0 C 18,3 C 78 % 1004,2 hPa 0,0 l/m 1,2 km/h (1 Bft) N 360 0 min 0,000 mm 0,0 UV-I 0 W/m 11,2 C 15,0 C 1,6 km/h (1 Bft) 96,43 %
12.05.2017 22:04 14,9 C 18,3 C 78 % 1004,2 hPa 0,0 l/m 0,2 km/h (0 Bft) N 360 0 min 0,000 mm 0,0 UV-I 0 W/m 11,1 C 14,9 C 1,6 km/h (1 Bft) 97,87 %
12.05.2017 22:06 14,9 C 18,3 C 77 % 1004,2 hPa 0,0 l/m 0,1 km/h (0 Bft) N 360 0 min 0,000 mm 0,0 UV-I 0 W/m 10,9 C 14,9 C 1,6 km/h (1 Bft) 93,62 %
12.05.2017 22:08 14,9 C 18,3 C 77 % 1004,3 hPa 0,0 l/m 2,6 km/h (1 Bft) N 360 0 min 0,000 mm 0,0 UV-I 0 W/m 10,9 C 14,9 C 4,8 km/h (1 Bft) 95,83 %
12.05.2017 22:10 15,0 C 18,3 C 77 % 1004,3 hPa 0,0 l/m 1,4 km/h (1 Bft) N 10 0 min 0,000 mm 0,0 UV-I 0 W/m 11,0 C 15,0 C 3,2 km/h (1 Bft) 100,00 %
12.05.2017 22:12 14,9 C 18,3 C 76 % 1004,3 hPa 0,0 l/m 0,2 km/h (0 Bft) N 10 0 min 0,000 mm 0,0 UV-I 0 W/m 10,7 C 14,9 C 1,6 km/h (1 Bft) 100,00 %
12.05.2017 22:14 14,8 C 18,3 C 76 % 1004,3 hPa 0,0 l/m 0,8 km/h (0 Bft) N 10 0 min 0,000 mm 0,0 UV-I 0 W/m 10,6 C 14,8 C 1,6 km/h (1 Bft) 94,00 %
12.05.2017 22:16 14,7 C 18,3 C 76 % 1004,3 hPa 0,0 l/m 2,7 km/h (1 Bft) N 10 0 min 0,000 mm 0,0 UV-I 0 W/m 10,5 C 14,7 C 4,8 km/h (1 Bft) 98,00 %
12.05.2017 22:18 14,7 C 18,3 C 76 % 1004,4 hPa 0,0 l/m 3,5 km/h (1 Bft) N 10 0 min 0,000 mm 0,0 UV-I 0 W/m 10,5 C 14,7 C 4,8 km/h (1 Bft) 95,74 %
12.05.2017 22:20 14,7 C 18,3 C 76 % 1004,3 hPa 0,0 l/m 4,7 km/h (1 Bft) S-SW 194 0 min 0,000 mm 0,0 UV-I 0 W/m 10,5 C 14,7 C 6,4 km/h (2 Bft) 97,87 %
12.05.2017 22:22 14,8 C 18,3 C 76 % 1004,3 hPa 0,0 l/m 4,0 km/h (1 Bft) S-SW 192 0 min 0,000 mm 0,0 UV-I 0 W/m 10,6 C 14,8 C 6,4 km/h (2 Bft) 100,00 %
12.05.2017 22:24 14,7 C 18,3 C 76 % 1004,3 hPa 0,0 l/m 3,4 km/h (1 Bft) S-SW 192 0 min 0,000 mm 0,0 UV-I 0 W/m 10,5 C 14,7 C 4,8 km/h (1 Bft) 98,00 %
12.05.2017 22:26 14,6 C 18,3 C 76 % 1004,3 hPa 0,0 l/m 3,8 km/h (1 Bft) S 191 0 min 0,000 mm 0,0 UV-I 0 W/m 10,4 C 14,6 C 6,4 km/h (2 Bft) 97,87 %
12.05.2017 22:28 14,6 C 18,3 C 76 % 1004,4 hPa 0,0 l/m 4,1 km/h (1 Bft) S 174 0 min 0,000 mm 0,0 UV-I 0 W/m 10,4 C 14,6 C 8,0 km/h (2 Bft) 100,00 %
12.05.2017 22:30 14,7 C 18,3 C 75 % 1004,4 hPa 0,0 l/m 3,0 km/h (1 Bft) S 174 0 min 0,000 mm 0,0 UV-I 0 W/m 10,3 C 14,7 C 4,8 km/h (1 Bft) 97,56 %
12.05.2017 22:32 14,7 C 18,3 C 75 % 1004,4 hPa 0,0 l/m 2,1 km/h (1 Bft) S 174 0 min 0,000 mm 0,0 UV-I 0 W/m 10,3 C 14,7 C 3,2 km/h (1 Bft) 97,87 %
12.05.2017 22:34 14,8 C 18,3 C 74 % 1004,4 hPa 0,0 l/m 3,4 km/h (1 Bft) S 174 0 min 0,000 mm 0,0 UV-I 0 W/m 10,2 C 14,8 C 4,8 km/h (1 Bft) 100,00 %
12.05.2017 22:36 14,8 C 18,3 C 75 % 1004,4 hPa 0,0 l/m 3,1 km/h (1 Bft) S 174 0 min 0,000 mm 0,0 UV-I 0 W/m 10,4 C 14,8 C 4,8 km/h (1 Bft) 97,87 %
12.05.2017 22:38 14,9 C 18,3 C 74 % 1004,3 hPa 0,0 l/m 2,1 km/h (1 Bft) S 174 0 min 0,000 mm 0,0 UV-I 0 W/m 10,3 C 14,9 C 3,2 km/h (1 Bft) 100,00 %
12.05.2017 22:40 15,0 C 18,3 C 73 % 1004,3 hPa 0,0 l/m 2,7 km/h (1 Bft) S 174 0 min 0,000 mm 0,0 UV-I 0 W/m 10,2 C 15,0 C 4,8 km/h (1 Bft) 95,74 %
12.05.2017 22:42 15,2 C 18,3 C 73 % 1004,3 hPa 0,0 l/m 3,9 km/h (1 Bft) S 184 0 min 0,000 mm 0,0 UV-I 0 W/m 10,4 C 15,2 C 8,0 km/h (2 Bft) 98,00 %
12.05.2017 22:44 15,3 C 18,3 C 72 % 1004,3 hPa 0,0 l/m 3,7 km/h (1 Bft) S 184 0 min 0,000 mm 0,0 UV-I 0 W/m 10,3 C 15,3 C 6,4 km/h (2 Bft) 100,00 %
12.05.2017 22:46 15,3 C 18,3 C 72 % 1004,4 hPa 0,0 l/m 4,7 km/h (1 Bft) SW 221 0 min 0,000 mm 0,0 UV-I 0 W/m 10,3 C 15,3 C 6,4 km/h (2 Bft) 98,11 %
12.05.2017 22:48 15,1 C 18,3 C 74 % 1004,4 hPa 0,0 l/m 6,6 km/h (2 Bft) S-SW 207 0 min 0,000 mm 0,0 UV-I 0 W/m 10,5 C 15,0 C 9,7 km/h (2 Bft) 100,00 %
12.05.2017 22:50 14,8 C 18,3 C 75 % 1004,3 hPa 0,0 l/m 2,7 km/h (1 Bft) S-SW 205 0 min 0,000 mm 0,0 UV-I 0 W/m 10,4 C 14,8 C 4,8 km/h (1 Bft) 98,00 %
12.05.2017 22:52 14,7 C 18,3 C 76 % 1004,3 hPa 0,0 l/m 5,4 km/h (1 Bft) S-SW 205 0 min 0,000 mm 0,0 UV-I 0 W/m 10,5 C 14,7 C 8,0 km/h (2 Bft) 97,87 %
12.05.2017 22:54 14,6 C 18,3 C 77 % 1004,3 hPa 0,0 l/m 5,9 km/h (2 Bft) S-SW 208 0 min 0,000 mm 0,0 UV-I 0 W/m 10,6 C 14,6 C 8,0 km/h (2 Bft) 100,00 %
12.05.2017 22:56 14,5 C 18,3 C 77 % 1004,4 hPa 0,0 l/m 5,7 km/h (1 Bft) S 190 0 min 0,000 mm 0,0 UV-I 0 W/m 10,5 C 14,5 C 8,0 km/h (2 Bft) 100,00 %
12.05.2017 22:58 14,6 C 18,3 C 77 % 1004,4 hPa 0,0 l/m 5,8 km/h (2 Bft) S-SW 213 0 min 0,000 mm 0,0 UV-I 0 W/m 10,6 C 14,6 C 8,0 km/h (2 Bft) 100,00 %
12.05.2017 23:00 14,6 C 18,3 C 77 % 1004,3 hPa 0,0 l/m 5,6 km/h (1 Bft) S-SW 212 0 min 0,000 mm 0,0 UV-I 0 W/m 10,6 C 14,6 C 6,4 km/h (2 Bft) 100,00 %
12.05.2017 23:02 14,7 C 18,3 C 76 % 1004,3 hPa 0,0 l/m 5,6 km/h (1 Bft) S-SW 204 0 min 0,025 mm 0,0 UV-I 0 W/m 10,5 C 14,7 C 11,3 km/h (2 Bft) 100,00 %
12.05.2017 23:04 14,7 C 18,3 C 76 % 1004,4 hPa 0,0 l/m 6,5 km/h (2 Bft) SW 221 0 min 0,000 mm 0,0 UV-I 0 W/m 10,5 C 14,7 C 9,7 km/h (2 Bft) 98,00 %
12.05.2017 23:06 14,8 C 18,3 C 76 % 1004,4 hPa 0,0 l/m 5,8 km/h (2 Bft) SW 215 0 min 0,000 mm 0,0 UV-I 0 W/m 10,6 C 14,8 C 9,7 km/h (2 Bft) 100,00 %
12.05.2017 23:08 14,8 C 18,3 C 76 % 1004,4 hPa 0,0 l/m 4,9 km/h (1 Bft) S-SW 199 0 min 0,000 mm 0,0 UV-I 0 W/m 10,6 C 14,8 C 8,0 km/h (2 Bft) 97,87 %
12.05.2017 23:10 14,8 C 18,3 C 76 % 1004,4 hPa 0,0 l/m 5,5 km/h (1 Bft) S-SW 202 0 min 0,000 mm 0,0 UV-I 0 W/m 10,6 C 14,8 C 9,7 km/h (2 Bft) 100,00 %
12.05.2017 23:12 14,8 C 18,3 C 76 % 1004,5 hPa 0,0 l/m 4,8 km/h (1 Bft) S-SW 207 0 min 0,000 mm 0,0 UV-I 0 W/m 10,6 C 14,8 C 6,4 km/h (2 Bft) 96,23 %
12.05.2017 23:14 14,7 C 18,3 C 76 % 1004,5 hPa 0,0 l/m 6,9 km/h (2 Bft) SW 217 0 min 0,000 mm 0,0 UV-I 0 W/m 10,5 C 14,4 C 9,7 km/h (2 Bft) 100,00 %
12.05.2017 23:16 14,7 C 18,3 C 76 % 1004,5 hPa 0,0 l/m 6,9 km/h (2 Bft) SW 215 0 min 0,000 mm 0,0 UV-I 0 W/m 10,5 C 14,4 C 11,3 km/h (2 Bft) 98,11 %
12.05.2017 23:18 14,7 C 18,3 C 76 % 1004,5 hPa 0,0 l/m 6,3 km/h (2 Bft) SW 217 0 min 0,000 mm 0,0 UV-I 0 W/m 10,5 C 14,7 C 9,7 km/h (2 Bft) 100,00 %
12.05.2017 23:20 14,7 C 18,3 C 76 % 1004,5 hPa 0,0 l/m 5,4 km/h (1 Bft) SW 223 0 min 0,000 mm 0,0 UV-I 0 W/m 10,5 C 14,7 C 8,0 km/h (2 Bft) 94,00 %
12.05.2017 23:22 14,8 C 18,3 C 76 % 1004,5 hPa 0,0 l/m 5,1 km/h (1 Bft) SW 221 0 min 0,000 mm 0,0 UV-I 0 W/m 10,6 C 14,8 C 8,0 km/h (2 Bft) 98,00 %
12.05.2017 23:24 14,7 C 18,3 C 75 % 1004,5 hPa 0,0 l/m 5,6 km/h (1 Bft) SW 227 0 min 0,000 mm 0,0 UV-I 0 W/m 10,3 C 14,7 C 6,4 km/h (2 Bft) 100,00 %
12.05.2017 23:26 14,7 C 18,3 C 75 % 1004,6 hPa 0,0 l/m 6,1 km/h (2 Bft) SW 221 0 min 0,000 mm 0,0 UV-I 0 W/m 10,3 C 14,7 C 8,0 km/h (2 Bft) 96,23 %
12.05.2017 23:28 14,6 C 18,3 C 76 % 1004,6 hPa 0,0 l/m 5,7 km/h (1 Bft) S-SW 209 0 min 0,000 mm 0,0 UV-I 0 W/m 10,4 C 14,6 C 9,7 km/h (2 Bft) 100,00 %
12.05.2017 23:30 14,5 C 18,3 C 76 % 1004,6 hPa 0,0 l/m 6,2 km/h (2 Bft) S-SW 199 0 min 0,000 mm 0,0 UV-I 0 W/m 10,3 C 14,5 C 9,7 km/h (2 Bft) 98,04 %
12.05.2017 23:32 14,4 C 18,3 C 76 % 1004,6 hPa 0,0 l/m 4,9 km/h (1 Bft) SW 221 0 min 0,000 mm 0,0 UV-I 0 W/m 10,2 C 14,4 C 8,0 km/h (2 Bft) 98,21 %
12.05.2017 23:34 14,3 C 18,3 C 77 % 1004,6 hPa 0,0 l/m 4,0 km/h (1 Bft) SW 221 0 min 0,000 mm 0,0 UV-I 0 W/m 10,3 C 14,3 C 6,4 km/h (2 Bft) 97,37 %
12.05.2017 23:36 14,2 C 18,3 C 77 % 1004,6 hPa 0,0 l/m 4,6 km/h (1 Bft) SW 231 0 min 0,000 mm 0,0 UV-I 0 W/m 10,2 C 14,2 C 6,4 km/h (2 Bft) 96,23 %
12.05.2017 23:38 14,2 C 18,3 C 77 % 1004,6 hPa 0,0 l/m 4,8 km/h (1 Bft) SW 231 0 min 0,000 mm 0,0 UV-I 0 W/m 10,2 C 14,2 C 6,4 km/h (2 Bft) 97,87 %
12.05.2017 23:40 14,1 C 18,3 C 77 % 1004,6 hPa 0,0 l/m 4,7 km/h (1 Bft) SW 230 0 min 0,000 mm 0,0 UV-I 0 W/m 10,1 C 14,1 C 6,4 km/h (2 Bft) 94,29 %
12.05.2017 23:42 14,1 C 18,3 C 78 % 1004,7 hPa 0,0 l/m 4,3 km/h (1 Bft) SW 230 0 min 0,000 mm 0,0 UV-I 0 W/m 10,3 C 14,1 C 6,4 km/h (2 Bft) 94,00 %
12.05.2017 23:44 14,0 C 18,3 C 78 % 1004,7 hPa 0,0 l/m 5,3 km/h (1 Bft) SW 228 0 min 0,000 mm 0,0 UV-I 0 W/m 10,2 C 14,0 C 6,4 km/h (2 Bft) 92,00 %
12.05.2017 23:46 13,9 C 18,3 C 78 % 1004,7 hPa 0,0 l/m 4,6 km/h (1 Bft) SW 227 0 min 0,000 mm 0,0 UV-I 0 W/m 10,1 C 13,9 C 8,0 km/h (2 Bft) 93,62 %
12.05.2017 23:48 13,9 C 18,3 C 78 % 1004,8 hPa 0,0 l/m 5,9 km/h (2 Bft) SW 214 0 min 0,000 mm 0,0 UV-I 0 W/m 10,1 C 13,9 C 9,7 km/h (2 Bft) 91,49 %
12.05.2017 23:50 13,8 C 18,3 C 78 % 1004,8 hPa 0,0 l/m 5,6 km/h (1 Bft) S-SW 212 0 min 0,000 mm 0,0 UV-I 0 W/m 10,0 C 13,8 C 8,0 km/h (2 Bft) 92,45 %
12.05.2017 23:52 13,8 C 18,3 C 78 % 1004,8 hPa 0,0 l/m 5,0 km/h (1 Bft) SW 221 0 min 0,000 mm 0,0 UV-I 0 W/m 10,0 C 13,8 C 8,0 km/h (2 Bft) 97,14 %
12.05.2017 23:54 13,8 C 18,3 C 79 % 1004,8 hPa 0,0 l/m 5,0 km/h (1 Bft) S-SW 209 0 min 0,000 mm 0,0 UV-I 0 W/m 10,2 C 13,8 C 9,7 km/h (2 Bft) 92,45 %
12.05.2017 23:56 13,7 C 18,3 C 79 % 1004,9 hPa 0,0 l/m 5,7 km/h (1 Bft) SW 215 0 min 0,000 mm 0,0 UV-I 0 W/m 10,1 C 13,7 C 6,4 km/h (2 Bft) 95,45 %
12.05.2017 23:58 13,7 C 18,3 C 79 % 1004,9 hPa 0,0 l/m 3,9 km/h (1 Bft) SW 214 0 min 0,000 mm 0,0 UV-I 0 W/m 10,1 C 13,7 C 4,8 km/h (1 Bft) 94,34 %
_ Min-Zeit 02:23 04:50 17:02 00:00 - 00:10 - - - - - - 18:26 09:14 00:10 19:54
Minimum _ 11,2 C 16,1 C 44 % 998,6 hPa - 0,0 km/h (0 Bft) - - - - - - 8,5 C 6,9 C 0,0 km/h (0 Bft) 86,84 %
_ Max-Zeit 17:12 16:12 06:10 11:28 07:12 11:06 - - 18:16 15:00 13:14 13:16 13:44 17:10 10:52 00:12
Maximum _ 21,6 C 18,3 C 92 % 1004,9 hPa 0,2 l/m 24,4 km/h
SW (4 Bft)
- - 4 min 0,534 mm 6,3 UV-I 1131 W/m 13,4 C 21,5 C 33,8 km/h
SW (5 Bft)
100,00 %
Durchschnitt _ 15,7 C 17,2 C 75 % 1002,4 hPa #2,0 l/m 6,2 km/h (2 Bft) SW - #8:30 h #3,632 mm 2,8 UV-I 361 W/m 10,9 C 14,6 C 10,1 km/h (2 Bft) 96,67 %